<?xml version="1.0" encoding="UTF-8" standalone="no" ?>
<gpx xmlns="http://www.topografix.com/GPX/1/1" xmlns:xsi="http://www.w3.org/2001/XMLSchema-instance" xsi:schemaLocation="http://www.topografix.com/GPX/1/1 http://www.topografix.com/GPX/1/1/gpx.xsd" version="1.1" creator="VisuGPX - https://www.visugpx.com">
  <metadata>
    <name>2017-04-22 boucle autour de Lagrasse (aude)</name>
    <desc><![CDATA[2017-04-22 boucle autour de Lagrasse (aude)
combinaison de 2 boucles : Notre Dame du CARLA et le Pied de CHARLEMAGNE ]]></desc>
  </metadata>
  <trk>
    <name><![CDATA[2017-04-22 17:14:44]]></name>
    <trkseg>
      <trkpt lat="43.09279" lon="2.62049">
        <ele>173.17</ele>
        <time>2017-04-22T07:49:11Z</time>
      </trkpt>
      <trkpt lat="43.09277" lon="2.62055">
        <ele>124.15</ele>
        <time>2017-04-22T07:52:06Z</time>
      </trkpt>
      <trkpt lat="43.09281" lon="2.62055">
        <ele>124.63</ele>
        <time>2017-04-22T07:52:25Z</time>
      </trkpt>
      <trkpt lat="43.09282" lon="2.62058">
        <ele>124.63</ele>
        <time>2017-04-22T07:52:28Z</time>
      </trkpt>
      <trkpt lat="43.09284" lon="2.62059">
        <ele>124.63</ele>
        <time>2017-04-22T07:52:30Z</time>
      </trkpt>
      <trkpt lat="43.09281" lon="2.62066">
        <ele>125.11</ele>
        <time>2017-04-22T07:55:10Z</time>
      </trkpt>
      <trkpt lat="43.09281" lon="2.62072">
        <ele>125.11</ele>
        <time>2017-04-22T07:55:19Z</time>
      </trkpt>
      <trkpt lat="43.09278" lon="2.62083">
        <ele>125.59</ele>
        <time>2017-04-22T07:55:33Z</time>
      </trkpt>
      <trkpt lat="43.09275" lon="2.62085">
        <ele>126.07</ele>
        <time>2017-04-22T07:55:37Z</time>
      </trkpt>
      <trkpt lat="43.09267" lon="2.6207">
        <ele>127.03</ele>
        <time>2017-04-22T07:55:52Z</time>
      </trkpt>
      <trkpt lat="43.09266" lon="2.62068">
        <ele>127.03</ele>
        <time>2017-04-22T07:55:55Z</time>
      </trkpt>
      <trkpt lat="43.09258" lon="2.62056">
        <ele>128.47</ele>
        <time>2017-04-22T07:56:10Z</time>
      </trkpt>
      <trkpt lat="43.09257" lon="2.62055">
        <ele>128.47</ele>
        <time>2017-04-22T07:56:12Z</time>
      </trkpt>
      <trkpt lat="43.09246" lon="2.62037">
        <ele>128.47</ele>
        <time>2017-04-22T07:56:31Z</time>
      </trkpt>
      <trkpt lat="43.09242" lon="2.6203">
        <ele>128.47</ele>
        <time>2017-04-22T07:57:10Z</time>
      </trkpt>
      <trkpt lat="43.09236" lon="2.62028">
        <ele>128.47</ele>
        <time>2017-04-22T07:57:28Z</time>
      </trkpt>
      <trkpt lat="43.09234" lon="2.62028">
        <ele>128.47</ele>
        <time>2017-04-22T07:57:42Z</time>
      </trkpt>
      <trkpt lat="43.09225" lon="2.62036">
        <ele>128.47</ele>
        <time>2017-04-22T07:57:53Z</time>
      </trkpt>
      <trkpt lat="43.0922" lon="2.62038">
        <ele>128.47</ele>
        <time>2017-04-22T07:58:07Z</time>
      </trkpt>
      <trkpt lat="43.09214" lon="2.6204">
        <ele>127.99</ele>
        <time>2017-04-22T07:58:30Z</time>
      </trkpt>
      <trkpt lat="43.09204" lon="2.62046">
        <ele>126.55</ele>
        <time>2017-04-22T07:58:41Z</time>
      </trkpt>
      <trkpt lat="43.09201" lon="2.62045">
        <ele>126.07</ele>
        <time>2017-04-22T07:58:43Z</time>
      </trkpt>
      <trkpt lat="43.09199" lon="2.62041">
        <ele>125.59</ele>
        <time>2017-04-22T07:58:47Z</time>
      </trkpt>
      <trkpt lat="43.09209" lon="2.62022">
        <ele>125.11</ele>
        <time>2017-04-22T07:59:01Z</time>
      </trkpt>
      <trkpt lat="43.09196" lon="2.62028">
        <ele>127.03</ele>
        <time>2017-04-22T08:06:27Z</time>
      </trkpt>
      <trkpt lat="43.0918" lon="2.62014">
        <ele>126.55</ele>
        <time>2017-04-22T08:06:50Z</time>
      </trkpt>
      <trkpt lat="43.09161" lon="2.62005">
        <ele>127.03</ele>
        <time>2017-04-22T08:07:08Z</time>
      </trkpt>
      <trkpt lat="43.09161" lon="2.62004">
        <ele>126.55</ele>
        <time>2017-04-22T08:07:10Z</time>
      </trkpt>
      <trkpt lat="43.09143" lon="2.61998">
        <ele>127.03</ele>
        <time>2017-04-22T08:07:27Z</time>
      </trkpt>
      <trkpt lat="43.0914" lon="2.61995">
        <ele>127.03</ele>
        <time>2017-04-22T08:07:31Z</time>
      </trkpt>
      <trkpt lat="43.09122" lon="2.61989">
        <ele>127.99</ele>
        <time>2017-04-22T08:07:49Z</time>
      </trkpt>
      <trkpt lat="43.09112" lon="2.61986">
        <ele>127.99</ele>
        <time>2017-04-22T08:08:00Z</time>
      </trkpt>
      <trkpt lat="43.09096" lon="2.61973">
        <ele>128.47</ele>
        <time>2017-04-22T08:08:19Z</time>
      </trkpt>
      <trkpt lat="43.09099" lon="2.61957">
        <ele>128.47</ele>
        <time>2017-04-22T08:08:33Z</time>
      </trkpt>
      <trkpt lat="43.09101" lon="2.61947">
        <ele>128.47</ele>
        <time>2017-04-22T08:08:52Z</time>
      </trkpt>
      <trkpt lat="43.09102" lon="2.61927">
        <ele>128.95</ele>
        <time>2017-04-22T08:09:11Z</time>
      </trkpt>
      <trkpt lat="43.09099" lon="2.6191">
        <ele>128.95</ele>
        <time>2017-04-22T08:09:33Z</time>
      </trkpt>
      <trkpt lat="43.09101" lon="2.61908">
        <ele>128.95</ele>
        <time>2017-04-22T08:09:51Z</time>
      </trkpt>
      <trkpt lat="43.091" lon="2.61905">
        <ele>128.95</ele>
        <time>2017-04-22T08:10:13Z</time>
      </trkpt>
      <trkpt lat="43.09121" lon="2.61894">
        <ele>128.47</ele>
        <time>2017-04-22T08:10:36Z</time>
      </trkpt>
      <trkpt lat="43.0913" lon="2.6188">
        <ele>127.99</ele>
        <time>2017-04-22T08:10:54Z</time>
      </trkpt>
      <trkpt lat="43.09139" lon="2.61873">
        <ele>127.51</ele>
        <time>2017-04-22T08:11:07Z</time>
      </trkpt>
      <trkpt lat="43.09145" lon="2.61871">
        <ele>127.99</ele>
        <time>2017-04-22T08:11:29Z</time>
      </trkpt>
      <trkpt lat="43.09152" lon="2.61876">
        <ele>127.99</ele>
        <time>2017-04-22T08:11:50Z</time>
      </trkpt>
      <trkpt lat="43.09155" lon="2.61874">
        <ele>128.47</ele>
        <time>2017-04-22T08:12:10Z</time>
      </trkpt>
      <trkpt lat="43.09163" lon="2.6187">
        <ele>127.99</ele>
        <time>2017-04-22T08:12:27Z</time>
      </trkpt>
      <trkpt lat="43.09166" lon="2.61871">
        <ele>127.99</ele>
        <time>2017-04-22T08:12:32Z</time>
      </trkpt>
      <trkpt lat="43.0919" lon="2.6187">
        <ele>127.03</ele>
        <time>2017-04-22T08:12:54Z</time>
      </trkpt>
      <trkpt lat="43.09211" lon="2.61875">
        <ele>127.03</ele>
        <time>2017-04-22T08:13:14Z</time>
      </trkpt>
      <trkpt lat="43.09212" lon="2.61874">
        <ele>127.03</ele>
        <time>2017-04-22T08:13:16Z</time>
      </trkpt>
      <trkpt lat="43.09216" lon="2.61867">
        <ele>128.95</ele>
        <time>2017-04-22T08:13:24Z</time>
      </trkpt>
      <trkpt lat="43.09217" lon="2.61863">
        <ele>128.95</ele>
        <time>2017-04-22T08:13:26Z</time>
      </trkpt>
      <trkpt lat="43.09218" lon="2.61847">
        <ele>130.88</ele>
        <time>2017-04-22T08:13:39Z</time>
      </trkpt>
      <trkpt lat="43.09222" lon="2.61841">
        <ele>132.32</ele>
        <time>2017-04-22T08:13:51Z</time>
      </trkpt>
      <trkpt lat="43.0923" lon="2.61835">
        <ele>131.36</ele>
        <time>2017-04-22T08:19:14Z</time>
      </trkpt>
      <trkpt lat="43.09233" lon="2.6183">
        <ele>130.88</ele>
        <time>2017-04-22T08:19:26Z</time>
      </trkpt>
      <trkpt lat="43.09236" lon="2.61826">
        <ele>130.4</ele>
        <time>2017-04-22T08:19:48Z</time>
      </trkpt>
      <trkpt lat="43.09238" lon="2.61822">
        <ele>129.92</ele>
        <time>2017-04-22T08:20:07Z</time>
      </trkpt>
      <trkpt lat="43.09244" lon="2.61815">
        <ele>129.92</ele>
        <time>2017-04-22T08:21:14Z</time>
      </trkpt>
      <trkpt lat="43.09246" lon="2.61813">
        <ele>130.4</ele>
        <time>2017-04-22T08:21:19Z</time>
      </trkpt>
      <trkpt lat="43.09258" lon="2.61816">
        <ele>130.88</ele>
        <time>2017-04-22T08:21:35Z</time>
      </trkpt>
      <trkpt lat="43.0927" lon="2.61809">
        <ele>131.36</ele>
        <time>2017-04-22T08:21:49Z</time>
      </trkpt>
      <trkpt lat="43.0928" lon="2.61798">
        <ele>131.36</ele>
        <time>2017-04-22T08:22:05Z</time>
      </trkpt>
      <trkpt lat="43.09284" lon="2.61791">
        <ele>132.8</ele>
        <time>2017-04-22T08:22:23Z</time>
      </trkpt>
      <trkpt lat="43.09281" lon="2.61783">
        <ele>133.28</ele>
        <time>2017-04-22T08:22:34Z</time>
      </trkpt>
      <trkpt lat="43.09272" lon="2.61775">
        <ele>135.2</ele>
        <time>2017-04-22T08:22:47Z</time>
      </trkpt>
      <trkpt lat="43.09269" lon="2.61769">
        <ele>135.68</ele>
        <time>2017-04-22T08:22:54Z</time>
      </trkpt>
      <trkpt lat="43.09268" lon="2.61767">
        <ele>136.16</ele>
        <time>2017-04-22T08:22:56Z</time>
      </trkpt>
      <trkpt lat="43.09266" lon="2.61765">
        <ele>136.64</ele>
        <time>2017-04-22T08:22:59Z</time>
      </trkpt>
      <trkpt lat="43.09264" lon="2.61762">
        <ele>137.13</ele>
        <time>2017-04-22T08:23:02Z</time>
      </trkpt>
      <trkpt lat="43.09254" lon="2.6175">
        <ele>138.57</ele>
        <time>2017-04-22T08:23:16Z</time>
      </trkpt>
      <trkpt lat="43.09247" lon="2.61744">
        <ele>140.49</ele>
        <time>2017-04-22T08:23:28Z</time>
      </trkpt>
      <trkpt lat="43.09243" lon="2.61742">
        <ele>140.97</ele>
        <time>2017-04-22T08:23:32Z</time>
      </trkpt>
      <trkpt lat="43.09234" lon="2.61733">
        <ele>143.37</ele>
        <time>2017-04-22T08:23:46Z</time>
      </trkpt>
      <trkpt lat="43.0923" lon="2.61728">
        <ele>143.85</ele>
        <time>2017-04-22T08:24:01Z</time>
      </trkpt>
      <trkpt lat="43.0923" lon="2.61727">
        <ele>143.85</ele>
        <time>2017-04-22T08:24:02Z</time>
      </trkpt>
      <trkpt lat="43.09224" lon="2.61713">
        <ele>145.78</ele>
        <time>2017-04-22T08:24:16Z</time>
      </trkpt>
      <trkpt lat="43.0922" lon="2.61703">
        <ele>147.22</ele>
        <time>2017-04-22T08:24:28Z</time>
      </trkpt>
      <trkpt lat="43.09214" lon="2.61696">
        <ele>149.14</ele>
        <time>2017-04-22T08:24:40Z</time>
      </trkpt>
      <trkpt lat="43.09208" lon="2.61692">
        <ele>150.58</ele>
        <time>2017-04-22T08:24:50Z</time>
      </trkpt>
      <trkpt lat="43.09204" lon="2.61687">
        <ele>151.54</ele>
        <time>2017-04-22T08:24:56Z</time>
      </trkpt>
      <trkpt lat="43.09203" lon="2.61685">
        <ele>152.03</ele>
        <time>2017-04-22T08:24:58Z</time>
      </trkpt>
      <trkpt lat="43.09195" lon="2.61672">
        <ele>154.43</ele>
        <time>2017-04-22T08:25:13Z</time>
      </trkpt>
      <trkpt lat="43.09195" lon="2.61671">
        <ele>154.91</ele>
        <time>2017-04-22T08:25:15Z</time>
      </trkpt>
      <trkpt lat="43.09191" lon="2.61662">
        <ele>156.35</ele>
        <time>2017-04-22T08:25:28Z</time>
      </trkpt>
      <trkpt lat="43.09184" lon="2.61662">
        <ele>157.31</ele>
        <time>2017-04-22T08:25:41Z</time>
      </trkpt>
      <trkpt lat="43.09178" lon="2.61663">
        <ele>157.79</ele>
        <time>2017-04-22T08:25:54Z</time>
      </trkpt>
      <trkpt lat="43.09178" lon="2.61664">
        <ele>157.79</ele>
        <time>2017-04-22T08:26:13Z</time>
      </trkpt>
      <trkpt lat="43.09178" lon="2.61665">
        <ele>157.31</ele>
        <time>2017-04-22T08:27:33Z</time>
      </trkpt>
      <trkpt lat="43.09176" lon="2.61665">
        <ele>157.31</ele>
        <time>2017-04-22T08:27:56Z</time>
      </trkpt>
      <trkpt lat="43.09176" lon="2.61663">
        <ele>157.31</ele>
        <time>2017-04-22T08:28:16Z</time>
      </trkpt>
      <trkpt lat="43.09178" lon="2.6166">
        <ele>157.31</ele>
        <time>2017-04-22T08:28:45Z</time>
      </trkpt>
      <trkpt lat="43.09181" lon="2.6166">
        <ele>157.31</ele>
        <time>2017-04-22T08:29:04Z</time>
      </trkpt>
      <trkpt lat="43.09184" lon="2.61656">
        <ele>157.31</ele>
        <time>2017-04-22T08:29:17Z</time>
      </trkpt>
      <trkpt lat="43.09179" lon="2.61643">
        <ele>158.27</ele>
        <time>2017-04-22T08:29:32Z</time>
      </trkpt>
      <trkpt lat="43.09176" lon="2.61628">
        <ele>159.72</ele>
        <time>2017-04-22T08:29:46Z</time>
      </trkpt>
      <trkpt lat="43.09172" lon="2.61618">
        <ele>161.16</ele>
        <time>2017-04-22T08:29:58Z</time>
      </trkpt>
      <trkpt lat="43.09166" lon="2.61608">
        <ele>162.6</ele>
        <time>2017-04-22T08:30:11Z</time>
      </trkpt>
      <trkpt lat="43.09162" lon="2.61596">
        <ele>164.52</ele>
        <time>2017-04-22T08:30:25Z</time>
      </trkpt>
      <trkpt lat="43.09159" lon="2.61584">
        <ele>166.45</ele>
        <time>2017-04-22T08:30:41Z</time>
      </trkpt>
      <trkpt lat="43.09153" lon="2.61575">
        <ele>168.37</ele>
        <time>2017-04-22T08:30:57Z</time>
      </trkpt>
      <trkpt lat="43.09148" lon="2.61563">
        <ele>170.29</ele>
        <time>2017-04-22T08:31:12Z</time>
      </trkpt>
      <trkpt lat="43.09144" lon="2.61554">
        <ele>171.73</ele>
        <time>2017-04-22T08:31:24Z</time>
      </trkpt>
      <trkpt lat="43.09138" lon="2.61545">
        <ele>174.14</ele>
        <time>2017-04-22T08:31:39Z</time>
      </trkpt>
      <trkpt lat="43.09131" lon="2.61535">
        <ele>176.06</ele>
        <time>2017-04-22T08:31:54Z</time>
      </trkpt>
      <trkpt lat="43.09127" lon="2.61524">
        <ele>177.98</ele>
        <time>2017-04-22T08:32:07Z</time>
      </trkpt>
      <trkpt lat="43.0912" lon="2.61512">
        <ele>180.38</ele>
        <time>2017-04-22T08:32:23Z</time>
      </trkpt>
      <trkpt lat="43.09115" lon="2.61505">
        <ele>182.31</ele>
        <time>2017-04-22T08:32:37Z</time>
      </trkpt>
      <trkpt lat="43.09114" lon="2.61503">
        <ele>182.79</ele>
        <time>2017-04-22T08:32:40Z</time>
      </trkpt>
      <trkpt lat="43.09105" lon="2.61495">
        <ele>185.19</ele>
        <time>2017-04-22T08:32:56Z</time>
      </trkpt>
      <trkpt lat="43.09102" lon="2.61483">
        <ele>187.11</ele>
        <time>2017-04-22T08:33:10Z</time>
      </trkpt>
      <trkpt lat="43.0909" lon="2.61477">
        <ele>189.04</ele>
        <time>2017-04-22T08:33:28Z</time>
      </trkpt>
      <trkpt lat="43.09083" lon="2.61468">
        <ele>191.44</ele>
        <time>2017-04-22T08:33:43Z</time>
      </trkpt>
      <trkpt lat="43.09081" lon="2.61456">
        <ele>192.88</ele>
        <time>2017-04-22T08:33:57Z</time>
      </trkpt>
      <trkpt lat="43.09074" lon="2.61448">
        <ele>194.8</ele>
        <time>2017-04-22T08:34:10Z</time>
      </trkpt>
      <trkpt lat="43.09063" lon="2.61444">
        <ele>196.73</ele>
        <time>2017-04-22T08:34:25Z</time>
      </trkpt>
      <trkpt lat="43.09057" lon="2.61433">
        <ele>199.13</ele>
        <time>2017-04-22T08:34:40Z</time>
      </trkpt>
      <trkpt lat="43.09053" lon="2.61424">
        <ele>200.09</ele>
        <time>2017-04-22T08:34:54Z</time>
      </trkpt>
      <trkpt lat="43.09048" lon="2.61415">
        <ele>202.01</ele>
        <time>2017-04-22T08:35:08Z</time>
      </trkpt>
      <trkpt lat="43.09047" lon="2.61413">
        <ele>202.49</ele>
        <time>2017-04-22T08:35:11Z</time>
      </trkpt>
      <trkpt lat="43.09041" lon="2.61403">
        <ele>204.42</ele>
        <time>2017-04-22T08:35:25Z</time>
      </trkpt>
      <trkpt lat="43.09036" lon="2.614">
        <ele>206.34</ele>
        <time>2017-04-22T08:35:35Z</time>
      </trkpt>
      <trkpt lat="43.09026" lon="2.61393">
        <ele>207.78</ele>
        <time>2017-04-22T08:35:51Z</time>
      </trkpt>
      <trkpt lat="43.09021" lon="2.61384">
        <ele>209.7</ele>
        <time>2017-04-22T08:36:05Z</time>
      </trkpt>
      <trkpt lat="43.09018" lon="2.61375">
        <ele>211.15</ele>
        <time>2017-04-22T08:36:18Z</time>
      </trkpt>
      <trkpt lat="43.09015" lon="2.61364">
        <ele>213.07</ele>
        <time>2017-04-22T08:36:32Z</time>
      </trkpt>
      <trkpt lat="43.09007" lon="2.61356">
        <ele>214.99</ele>
        <time>2017-04-22T08:36:45Z</time>
      </trkpt>
      <trkpt lat="43.09001" lon="2.61347">
        <ele>216.43</ele>
        <time>2017-04-22T08:36:58Z</time>
      </trkpt>
      <trkpt lat="43.08997" lon="2.61335">
        <ele>218.36</ele>
        <time>2017-04-22T08:37:14Z</time>
      </trkpt>
      <trkpt lat="43.08993" lon="2.61328">
        <ele>219.8</ele>
        <time>2017-04-22T08:37:25Z</time>
      </trkpt>
      <trkpt lat="43.08988" lon="2.61319">
        <ele>221.72</ele>
        <time>2017-04-22T08:37:40Z</time>
      </trkpt>
      <trkpt lat="43.0898" lon="2.61312">
        <ele>222.68</ele>
        <time>2017-04-22T08:37:51Z</time>
      </trkpt>
      <trkpt lat="43.08971" lon="2.61304">
        <ele>224.12</ele>
        <time>2017-04-22T08:38:05Z</time>
      </trkpt>
      <trkpt lat="43.08963" lon="2.61295">
        <ele>226.05</ele>
        <time>2017-04-22T08:38:20Z</time>
      </trkpt>
      <trkpt lat="43.08957" lon="2.61289">
        <ele>227.49</ele>
        <time>2017-04-22T08:38:33Z</time>
      </trkpt>
      <trkpt lat="43.08953" lon="2.6128">
        <ele>228.93</ele>
        <time>2017-04-22T08:38:44Z</time>
      </trkpt>
      <trkpt lat="43.08945" lon="2.61271">
        <ele>230.37</ele>
        <time>2017-04-22T08:38:59Z</time>
      </trkpt>
      <trkpt lat="43.08942" lon="2.61258">
        <ele>231.81</ele>
        <time>2017-04-22T08:39:11Z</time>
      </trkpt>
      <trkpt lat="43.0894" lon="2.61247">
        <ele>232.78</ele>
        <time>2017-04-22T08:39:24Z</time>
      </trkpt>
      <trkpt lat="43.0894" lon="2.61239">
        <ele>233.74</ele>
        <time>2017-04-22T08:39:32Z</time>
      </trkpt>
      <trkpt lat="43.0894" lon="2.61227">
        <ele>234.22</ele>
        <time>2017-04-22T08:39:44Z</time>
      </trkpt>
      <trkpt lat="43.08935" lon="2.61218">
        <ele>235.66</ele>
        <time>2017-04-22T08:39:57Z</time>
      </trkpt>
      <trkpt lat="43.0893" lon="2.61208">
        <ele>237.1</ele>
        <time>2017-04-22T08:40:10Z</time>
      </trkpt>
      <trkpt lat="43.08923" lon="2.61201">
        <ele>238.06</ele>
        <time>2017-04-22T08:40:22Z</time>
      </trkpt>
      <trkpt lat="43.08921" lon="2.61182">
        <ele>239.51</ele>
        <time>2017-04-22T08:40:37Z</time>
      </trkpt>
      <trkpt lat="43.08918" lon="2.61171">
        <ele>240.47</ele>
        <time>2017-04-22T08:40:47Z</time>
      </trkpt>
      <trkpt lat="43.08912" lon="2.61161">
        <ele>241.43</ele>
        <time>2017-04-22T08:40:59Z</time>
      </trkpt>
      <trkpt lat="43.08912" lon="2.61151">
        <ele>242.39</ele>
        <time>2017-04-22T08:41:11Z</time>
      </trkpt>
      <trkpt lat="43.08905" lon="2.61139">
        <ele>243.35</ele>
        <time>2017-04-22T08:41:27Z</time>
      </trkpt>
      <trkpt lat="43.089" lon="2.61126">
        <ele>244.31</ele>
        <time>2017-04-22T08:41:44Z</time>
      </trkpt>
      <trkpt lat="43.08897" lon="2.61118">
        <ele>244.79</ele>
        <time>2017-04-22T08:41:56Z</time>
      </trkpt>
      <trkpt lat="43.08893" lon="2.61108">
        <ele>245.75</ele>
        <time>2017-04-22T08:42:10Z</time>
      </trkpt>
      <trkpt lat="43.08891" lon="2.61096">
        <ele>246.23</ele>
        <time>2017-04-22T08:42:20Z</time>
      </trkpt>
      <trkpt lat="43.0889" lon="2.61083">
        <ele>246.72</ele>
        <time>2017-04-22T08:42:32Z</time>
      </trkpt>
      <trkpt lat="43.08888" lon="2.61069">
        <ele>247.2</ele>
        <time>2017-04-22T08:42:45Z</time>
      </trkpt>
      <trkpt lat="43.08887" lon="2.61062">
        <ele>247.68</ele>
        <time>2017-04-22T08:49:05Z</time>
      </trkpt>
      <trkpt lat="43.08888" lon="2.61064">
        <ele>248.16</ele>
        <time>2017-04-22T08:49:22Z</time>
      </trkpt>
      <trkpt lat="43.08889" lon="2.61065">
        <ele>248.16</ele>
        <time>2017-04-22T08:50:17Z</time>
      </trkpt>
      <trkpt lat="43.08887" lon="2.61062">
        <ele>248.16</ele>
        <time>2017-04-22T08:50:40Z</time>
      </trkpt>
      <trkpt lat="43.08888" lon="2.61063">
        <ele>248.16</ele>
        <time>2017-04-22T08:51:04Z</time>
      </trkpt>
      <trkpt lat="43.08889" lon="2.61064">
        <ele>248.16</ele>
        <time>2017-04-22T08:51:23Z</time>
      </trkpt>
      <trkpt lat="43.08888" lon="2.61061">
        <ele>248.16</ele>
        <time>2017-04-22T08:51:26Z</time>
      </trkpt>
      <trkpt lat="43.08882" lon="2.61047">
        <ele>248.16</ele>
        <time>2017-04-22T08:51:40Z</time>
      </trkpt>
      <trkpt lat="43.0888" lon="2.61036">
        <ele>248.16</ele>
        <time>2017-04-22T08:51:50Z</time>
      </trkpt>
      <trkpt lat="43.0888" lon="2.61021">
        <ele>247.68</ele>
        <time>2017-04-22T08:52:01Z</time>
      </trkpt>
      <trkpt lat="43.08879" lon="2.61016">
        <ele>247.2</ele>
        <time>2017-04-22T08:52:08Z</time>
      </trkpt>
      <trkpt lat="43.08881" lon="2.60998">
        <ele>247.68</ele>
        <time>2017-04-22T08:52:22Z</time>
      </trkpt>
      <trkpt lat="43.08883" lon="2.60983">
        <ele>248.64</ele>
        <time>2017-04-22T08:52:35Z</time>
      </trkpt>
      <trkpt lat="43.08884" lon="2.60982">
        <ele>248.64</ele>
        <time>2017-04-22T08:52:36Z</time>
      </trkpt>
      <trkpt lat="43.08887" lon="2.60968">
        <ele>250.08</ele>
        <time>2017-04-22T08:52:48Z</time>
      </trkpt>
      <trkpt lat="43.08889" lon="2.60955">
        <ele>251.52</ele>
        <time>2017-04-22T08:53:00Z</time>
      </trkpt>
      <trkpt lat="43.08892" lon="2.60944">
        <ele>252.96</ele>
        <time>2017-04-22T08:53:12Z</time>
      </trkpt>
      <trkpt lat="43.08899" lon="2.60933">
        <ele>254.41</ele>
        <time>2017-04-22T08:53:25Z</time>
      </trkpt>
      <trkpt lat="43.08904" lon="2.60923">
        <ele>255.85</ele>
        <time>2017-04-22T08:53:39Z</time>
      </trkpt>
      <trkpt lat="43.08907" lon="2.60911">
        <ele>257.77</ele>
        <time>2017-04-22T08:53:53Z</time>
      </trkpt>
      <trkpt lat="43.08907" lon="2.60901">
        <ele>258.73</ele>
        <time>2017-04-22T08:54:05Z</time>
      </trkpt>
      <trkpt lat="43.08908" lon="2.60894">
        <ele>260.17</ele>
        <time>2017-04-22T08:54:16Z</time>
      </trkpt>
      <trkpt lat="43.08908" lon="2.60883">
        <ele>261.62</ele>
        <time>2017-04-22T08:54:28Z</time>
      </trkpt>
      <trkpt lat="43.08908" lon="2.60876">
        <ele>263.06</ele>
        <time>2017-04-22T08:54:39Z</time>
      </trkpt>
      <trkpt lat="43.08908" lon="2.60866">
        <ele>264.02</ele>
        <time>2017-04-22T08:54:51Z</time>
      </trkpt>
      <trkpt lat="43.08907" lon="2.60857">
        <ele>264.98</ele>
        <time>2017-04-22T08:55:01Z</time>
      </trkpt>
      <trkpt lat="43.08905" lon="2.60848">
        <ele>265.94</ele>
        <time>2017-04-22T08:55:13Z</time>
      </trkpt>
      <trkpt lat="43.08902" lon="2.60838">
        <ele>267.38</ele>
        <time>2017-04-22T08:55:25Z</time>
      </trkpt>
      <trkpt lat="43.08902" lon="2.60835">
        <ele>267.86</ele>
        <time>2017-04-22T08:55:29Z</time>
      </trkpt>
      <trkpt lat="43.089" lon="2.6082">
        <ele>269.31</ele>
        <time>2017-04-22T08:55:42Z</time>
      </trkpt>
      <trkpt lat="43.08897" lon="2.60805">
        <ele>270.75</ele>
        <time>2017-04-22T08:55:57Z</time>
      </trkpt>
      <trkpt lat="43.08896" lon="2.60792">
        <ele>272.19</ele>
        <time>2017-04-22T08:56:11Z</time>
      </trkpt>
      <trkpt lat="43.08894" lon="2.60781">
        <ele>272.67</ele>
        <time>2017-04-22T08:56:24Z</time>
      </trkpt>
      <trkpt lat="43.08893" lon="2.60767">
        <ele>274.11</ele>
        <time>2017-04-22T08:56:37Z</time>
      </trkpt>
      <trkpt lat="43.08891" lon="2.60754">
        <ele>275.07</ele>
        <time>2017-04-22T08:56:52Z</time>
      </trkpt>
      <trkpt lat="43.08891" lon="2.60737">
        <ele>276.52</ele>
        <time>2017-04-22T08:57:08Z</time>
      </trkpt>
      <trkpt lat="43.08888" lon="2.60723">
        <ele>277.48</ele>
        <time>2017-04-22T08:57:21Z</time>
      </trkpt>
      <trkpt lat="43.08888" lon="2.60709">
        <ele>278.44</ele>
        <time>2017-04-22T08:57:34Z</time>
      </trkpt>
      <trkpt lat="43.08887" lon="2.60703">
        <ele>278.92</ele>
        <time>2017-04-22T08:57:39Z</time>
      </trkpt>
      <trkpt lat="43.08887" lon="2.607">
        <ele>279.4</ele>
        <time>2017-04-22T08:57:42Z</time>
      </trkpt>
      <trkpt lat="43.08888" lon="2.60677">
        <ele>280.36</ele>
        <time>2017-04-22T08:57:59Z</time>
      </trkpt>
      <trkpt lat="43.08887" lon="2.60659">
        <ele>280.84</ele>
        <time>2017-04-22T08:58:13Z</time>
      </trkpt>
      <trkpt lat="43.08888" lon="2.60641">
        <ele>281.8</ele>
        <time>2017-04-22T08:58:27Z</time>
      </trkpt>
      <trkpt lat="43.08887" lon="2.60624">
        <ele>282.77</ele>
        <time>2017-04-22T08:58:40Z</time>
      </trkpt>
      <trkpt lat="43.08889" lon="2.60607">
        <ele>283.73</ele>
        <time>2017-04-22T08:58:54Z</time>
      </trkpt>
      <trkpt lat="43.08889" lon="2.606">
        <ele>283.73</ele>
        <time>2017-04-22T08:58:59Z</time>
      </trkpt>
      <trkpt lat="43.0889" lon="2.60584">
        <ele>284.69</ele>
        <time>2017-04-22T08:59:14Z</time>
      </trkpt>
      <trkpt lat="43.0889" lon="2.60567">
        <ele>285.65</ele>
        <time>2017-04-22T08:59:29Z</time>
      </trkpt>
      <trkpt lat="43.08889" lon="2.6055">
        <ele>286.13</ele>
        <time>2017-04-22T08:59:43Z</time>
      </trkpt>
      <trkpt lat="43.08888" lon="2.60534">
        <ele>286.61</ele>
        <time>2017-04-22T08:59:55Z</time>
      </trkpt>
      <trkpt lat="43.08886" lon="2.60516">
        <ele>286.61</ele>
        <time>2017-04-22T09:00:10Z</time>
      </trkpt>
      <trkpt lat="43.08882" lon="2.605">
        <ele>287.09</ele>
        <time>2017-04-22T09:00:24Z</time>
      </trkpt>
      <trkpt lat="43.08882" lon="2.60499">
        <ele>287.09</ele>
        <time>2017-04-22T09:00:25Z</time>
      </trkpt>
      <trkpt lat="43.08878" lon="2.60481">
        <ele>287.57</ele>
        <time>2017-04-22T09:00:40Z</time>
      </trkpt>
      <trkpt lat="43.08873" lon="2.60465">
        <ele>288.05</ele>
        <time>2017-04-22T09:00:53Z</time>
      </trkpt>
      <trkpt lat="43.08868" lon="2.6045">
        <ele>288.05</ele>
        <time>2017-04-22T09:01:07Z</time>
      </trkpt>
      <trkpt lat="43.08864" lon="2.60435">
        <ele>288.53</ele>
        <time>2017-04-22T09:01:20Z</time>
      </trkpt>
      <trkpt lat="43.0886" lon="2.60413">
        <ele>288.05</ele>
        <time>2017-04-22T09:01:36Z</time>
      </trkpt>
      <trkpt lat="43.08855" lon="2.60396">
        <ele>288.05</ele>
        <time>2017-04-22T09:01:50Z</time>
      </trkpt>
      <trkpt lat="43.08852" lon="2.60378">
        <ele>288.05</ele>
        <time>2017-04-22T09:02:04Z</time>
      </trkpt>
      <trkpt lat="43.08851" lon="2.60377">
        <ele>288.05</ele>
        <time>2017-04-22T09:02:10Z</time>
      </trkpt>
      <trkpt lat="43.08853" lon="2.60377">
        <ele>288.05</ele>
        <time>2017-04-22T09:02:24Z</time>
      </trkpt>
      <trkpt lat="43.08853" lon="2.60376">
        <ele>287.09</ele>
        <time>2017-04-22T09:02:44Z</time>
      </trkpt>
      <trkpt lat="43.08851" lon="2.60376">
        <ele>288.05</ele>
        <time>2017-04-22T09:03:02Z</time>
      </trkpt>
      <trkpt lat="43.0885" lon="2.6037">
        <ele>288.05</ele>
        <time>2017-04-22T09:03:07Z</time>
      </trkpt>
      <trkpt lat="43.08847" lon="2.60363">
        <ele>288.05</ele>
        <time>2017-04-22T09:03:12Z</time>
      </trkpt>
      <trkpt lat="43.08839" lon="2.60346">
        <ele>288.05</ele>
        <time>2017-04-22T09:03:26Z</time>
      </trkpt>
      <trkpt lat="43.08834" lon="2.60333">
        <ele>288.53</ele>
        <time>2017-04-22T09:03:36Z</time>
      </trkpt>
      <trkpt lat="43.0883" lon="2.60327">
        <ele>288.53</ele>
        <time>2017-04-22T09:03:41Z</time>
      </trkpt>
      <trkpt lat="43.08822" lon="2.60311">
        <ele>288.53</ele>
        <time>2017-04-22T09:03:55Z</time>
      </trkpt>
      <trkpt lat="43.08819" lon="2.60302">
        <ele>288.53</ele>
        <time>2017-04-22T09:04:04Z</time>
      </trkpt>
      <trkpt lat="43.08815" lon="2.6029">
        <ele>288.53</ele>
        <time>2017-04-22T09:04:15Z</time>
      </trkpt>
      <trkpt lat="43.08815" lon="2.60289">
        <ele>289.01</ele>
        <time>2017-04-22T09:04:16Z</time>
      </trkpt>
      <trkpt lat="43.08816" lon="2.60282">
        <ele>289.01</ele>
        <time>2017-04-22T09:04:30Z</time>
      </trkpt>
      <trkpt lat="43.08816" lon="2.60274">
        <ele>289.01</ele>
        <time>2017-04-22T09:04:40Z</time>
      </trkpt>
      <trkpt lat="43.08817" lon="2.60269">
        <ele>289.49</ele>
        <time>2017-04-22T09:04:46Z</time>
      </trkpt>
      <trkpt lat="43.08816" lon="2.6026">
        <ele>289.49</ele>
        <time>2017-04-22T09:04:57Z</time>
      </trkpt>
      <trkpt lat="43.08812" lon="2.60252">
        <ele>289.49</ele>
        <time>2017-04-22T09:06:43Z</time>
      </trkpt>
      <trkpt lat="43.08812" lon="2.60251">
        <ele>289.49</ele>
        <time>2017-04-22T09:06:44Z</time>
      </trkpt>
      <trkpt lat="43.08802" lon="2.60239">
        <ele>289.49</ele>
        <time>2017-04-22T09:06:58Z</time>
      </trkpt>
      <trkpt lat="43.08789" lon="2.60225">
        <ele>289.49</ele>
        <time>2017-04-22T09:07:17Z</time>
      </trkpt>
      <trkpt lat="43.08782" lon="2.60206">
        <ele>287.57</ele>
        <time>2017-04-22T09:07:33Z</time>
      </trkpt>
      <trkpt lat="43.0878" lon="2.60202">
        <ele>287.09</ele>
        <time>2017-04-22T09:07:36Z</time>
      </trkpt>
      <trkpt lat="43.08778" lon="2.60195">
        <ele>287.09</ele>
        <time>2017-04-22T09:07:41Z</time>
      </trkpt>
      <trkpt lat="43.08773" lon="2.60179">
        <ele>288.05</ele>
        <time>2017-04-22T09:07:53Z</time>
      </trkpt>
      <trkpt lat="43.08769" lon="2.60173">
        <ele>288.53</ele>
        <time>2017-04-22T09:07:58Z</time>
      </trkpt>
      <trkpt lat="43.08763" lon="2.60165">
        <ele>288.53</ele>
        <time>2017-04-22T09:08:06Z</time>
      </trkpt>
      <trkpt lat="43.08762" lon="2.60164">
        <ele>288.53</ele>
        <time>2017-04-22T09:08:08Z</time>
      </trkpt>
      <trkpt lat="43.08761" lon="2.6016">
        <ele>288.53</ele>
        <time>2017-04-22T09:08:11Z</time>
      </trkpt>
      <trkpt lat="43.08753" lon="2.60147">
        <ele>288.53</ele>
        <time>2017-04-22T09:08:23Z</time>
      </trkpt>
      <trkpt lat="43.0875" lon="2.60142">
        <ele>288.53</ele>
        <time>2017-04-22T09:08:27Z</time>
      </trkpt>
      <trkpt lat="43.08747" lon="2.60134">
        <ele>289.01</ele>
        <time>2017-04-22T09:08:33Z</time>
      </trkpt>
      <trkpt lat="43.08739" lon="2.60111">
        <ele>289.01</ele>
        <time>2017-04-22T09:08:50Z</time>
      </trkpt>
      <trkpt lat="43.08739" lon="2.60108">
        <ele>288.53</ele>
        <time>2017-04-22T09:08:52Z</time>
      </trkpt>
      <trkpt lat="43.08736" lon="2.60098">
        <ele>289.01</ele>
        <time>2017-04-22T09:08:59Z</time>
      </trkpt>
      <trkpt lat="43.08731" lon="2.60078">
        <ele>287.57</ele>
        <time>2017-04-22T09:09:14Z</time>
      </trkpt>
      <trkpt lat="43.08727" lon="2.60069">
        <ele>287.09</ele>
        <time>2017-04-22T09:09:20Z</time>
      </trkpt>
      <trkpt lat="43.08724" lon="2.60059">
        <ele>287.57</ele>
        <time>2017-04-22T09:09:28Z</time>
      </trkpt>
      <trkpt lat="43.0872" lon="2.60043">
        <ele>288.05</ele>
        <time>2017-04-22T09:09:39Z</time>
      </trkpt>
      <trkpt lat="43.08721" lon="2.60033">
        <ele>288.05</ele>
        <time>2017-04-22T09:09:46Z</time>
      </trkpt>
      <trkpt lat="43.0872" lon="2.60011">
        <ele>289.49</ele>
        <time>2017-04-22T09:10:00Z</time>
      </trkpt>
      <trkpt lat="43.0872" lon="2.60005">
        <ele>289.49</ele>
        <time>2017-04-22T09:10:04Z</time>
      </trkpt>
      <trkpt lat="43.08713" lon="2.59991">
        <ele>289.97</ele>
        <time>2017-04-22T09:10:16Z</time>
      </trkpt>
      <trkpt lat="43.08709" lon="2.59984">
        <ele>290.46</ele>
        <time>2017-04-22T09:10:22Z</time>
      </trkpt>
      <trkpt lat="43.08704" lon="2.59972">
        <ele>290.94</ele>
        <time>2017-04-22T09:10:31Z</time>
      </trkpt>
      <trkpt lat="43.08697" lon="2.59949">
        <ele>291.42</ele>
        <time>2017-04-22T09:10:47Z</time>
      </trkpt>
      <trkpt lat="43.08696" lon="2.59936">
        <ele>291.9</ele>
        <time>2017-04-22T09:10:55Z</time>
      </trkpt>
      <trkpt lat="43.08694" lon="2.59926">
        <ele>292.38</ele>
        <time>2017-04-22T09:11:02Z</time>
      </trkpt>
      <trkpt lat="43.08694" lon="2.59923">
        <ele>292.38</ele>
        <time>2017-04-22T09:11:04Z</time>
      </trkpt>
      <trkpt lat="43.08692" lon="2.59907">
        <ele>293.34</ele>
        <time>2017-04-22T09:11:14Z</time>
      </trkpt>
      <trkpt lat="43.08692" lon="2.599">
        <ele>293.82</ele>
        <time>2017-04-22T09:11:21Z</time>
      </trkpt>
      <trkpt lat="43.0869" lon="2.59896">
        <ele>293.82</ele>
        <time>2017-04-22T09:11:25Z</time>
      </trkpt>
      <trkpt lat="43.08687" lon="2.59877">
        <ele>294.3</ele>
        <time>2017-04-22T09:11:37Z</time>
      </trkpt>
      <trkpt lat="43.08681" lon="2.59856">
        <ele>294.78</ele>
        <time>2017-04-22T09:11:51Z</time>
      </trkpt>
      <trkpt lat="43.08671" lon="2.59834">
        <ele>295.26</ele>
        <time>2017-04-22T09:12:06Z</time>
      </trkpt>
      <trkpt lat="43.08663" lon="2.59819">
        <ele>296.22</ele>
        <time>2017-04-22T09:12:18Z</time>
      </trkpt>
      <trkpt lat="43.08656" lon="2.59795">
        <ele>296.7</ele>
        <time>2017-04-22T09:12:35Z</time>
      </trkpt>
      <trkpt lat="43.08653" lon="2.59791">
        <ele>296.7</ele>
        <time>2017-04-22T09:12:38Z</time>
      </trkpt>
      <trkpt lat="43.08642" lon="2.59792">
        <ele>296.22</ele>
        <time>2017-04-22T09:12:52Z</time>
      </trkpt>
      <trkpt lat="43.08637" lon="2.59794">
        <ele>295.74</ele>
        <time>2017-04-22T09:13:08Z</time>
      </trkpt>
      <trkpt lat="43.08635" lon="2.59796">
        <ele>295.26</ele>
        <time>2017-04-22T09:13:12Z</time>
      </trkpt>
      <trkpt lat="43.0862" lon="2.59804">
        <ele>294.3</ele>
        <time>2017-04-22T09:13:29Z</time>
      </trkpt>
      <trkpt lat="43.08618" lon="2.59804">
        <ele>293.82</ele>
        <time>2017-04-22T09:13:31Z</time>
      </trkpt>
      <trkpt lat="43.08608" lon="2.59802">
        <ele>293.82</ele>
        <time>2017-04-22T09:13:46Z</time>
      </trkpt>
      <trkpt lat="43.08606" lon="2.59801">
        <ele>293.34</ele>
        <time>2017-04-22T09:14:06Z</time>
      </trkpt>
      <trkpt lat="43.08606" lon="2.59801">
        <ele>293.34</ele>
        <time>2017-04-22T09:14:16Z</time>
      </trkpt>
      <trkpt lat="43.08605" lon="2.59799">
        <ele>293.34</ele>
        <time>2017-04-22T09:14:19Z</time>
      </trkpt>
      <trkpt lat="43.08605" lon="2.59793">
        <ele>293.34</ele>
        <time>2017-04-22T09:14:24Z</time>
      </trkpt>
      <trkpt lat="43.08603" lon="2.5978">
        <ele>294.3</ele>
        <time>2017-04-22T09:14:35Z</time>
      </trkpt>
      <trkpt lat="43.08606" lon="2.59774">
        <ele>294.3</ele>
        <time>2017-04-22T09:14:39Z</time>
      </trkpt>
      <trkpt lat="43.08607" lon="2.59764">
        <ele>294.78</ele>
        <time>2017-04-22T09:14:45Z</time>
      </trkpt>
      <trkpt lat="43.08608" lon="2.59751">
        <ele>295.26</ele>
        <time>2017-04-22T09:14:54Z</time>
      </trkpt>
      <trkpt lat="43.08609" lon="2.59733">
        <ele>296.22</ele>
        <time>2017-04-22T09:15:07Z</time>
      </trkpt>
      <trkpt lat="43.08607" lon="2.59723">
        <ele>296.22</ele>
        <time>2017-04-22T09:15:20Z</time>
      </trkpt>
      <trkpt lat="43.08607" lon="2.59715">
        <ele>296.7</ele>
        <time>2017-04-22T09:15:25Z</time>
      </trkpt>
      <trkpt lat="43.08607" lon="2.59712">
        <ele>296.7</ele>
        <time>2017-04-22T09:15:27Z</time>
      </trkpt>
      <trkpt lat="43.08605" lon="2.59698">
        <ele>297.18</ele>
        <time>2017-04-22T09:15:36Z</time>
      </trkpt>
      <trkpt lat="43.08602" lon="2.59682">
        <ele>298.15</ele>
        <time>2017-04-22T09:15:47Z</time>
      </trkpt>
      <trkpt lat="43.08603" lon="2.59678">
        <ele>298.63</ele>
        <time>2017-04-22T09:15:49Z</time>
      </trkpt>
      <trkpt lat="43.08601" lon="2.59658">
        <ele>299.59</ele>
        <time>2017-04-22T09:16:02Z</time>
      </trkpt>
      <trkpt lat="43.08601" lon="2.59655">
        <ele>299.59</ele>
        <time>2017-04-22T09:16:04Z</time>
      </trkpt>
      <trkpt lat="43.08602" lon="2.59636">
        <ele>300.55</ele>
        <time>2017-04-22T09:16:17Z</time>
      </trkpt>
      <trkpt lat="43.08602" lon="2.59632">
        <ele>300.55</ele>
        <time>2017-04-22T09:16:20Z</time>
      </trkpt>
      <trkpt lat="43.08602" lon="2.59617">
        <ele>301.03</ele>
        <time>2017-04-22T09:16:33Z</time>
      </trkpt>
      <trkpt lat="43.08602" lon="2.59614">
        <ele>301.03</ele>
        <time>2017-04-22T09:16:35Z</time>
      </trkpt>
      <trkpt lat="43.08601" lon="2.59596">
        <ele>301.99</ele>
        <time>2017-04-22T09:16:48Z</time>
      </trkpt>
      <trkpt lat="43.08602" lon="2.59577">
        <ele>302.47</ele>
        <time>2017-04-22T09:17:02Z</time>
      </trkpt>
      <trkpt lat="43.08602" lon="2.59568">
        <ele>301.99</ele>
        <time>2017-04-22T09:17:08Z</time>
      </trkpt>
      <trkpt lat="43.08602" lon="2.59564">
        <ele>302.47</ele>
        <time>2017-04-22T09:17:11Z</time>
      </trkpt>
      <trkpt lat="43.08602" lon="2.59561">
        <ele>301.99</ele>
        <time>2017-04-22T09:17:13Z</time>
      </trkpt>
      <trkpt lat="43.08602" lon="2.59545">
        <ele>302.47</ele>
        <time>2017-04-22T09:17:24Z</time>
      </trkpt>
      <trkpt lat="43.08602" lon="2.59539">
        <ele>302.95</ele>
        <time>2017-04-22T09:17:28Z</time>
      </trkpt>
      <trkpt lat="43.08603" lon="2.59533">
        <ele>302.95</ele>
        <time>2017-04-22T09:17:43Z</time>
      </trkpt>
      <trkpt lat="43.08604" lon="2.59524">
        <ele>302.95</ele>
        <time>2017-04-22T09:17:55Z</time>
      </trkpt>
      <trkpt lat="43.08603" lon="2.59515">
        <ele>302.95</ele>
        <time>2017-04-22T09:18:04Z</time>
      </trkpt>
      <trkpt lat="43.08603" lon="2.59512">
        <ele>303.43</ele>
        <time>2017-04-22T09:18:07Z</time>
      </trkpt>
      <trkpt lat="43.08603" lon="2.595">
        <ele>303.43</ele>
        <time>2017-04-22T09:18:15Z</time>
      </trkpt>
      <trkpt lat="43.08608" lon="2.59477">
        <ele>303.43</ele>
        <time>2017-04-22T09:18:30Z</time>
      </trkpt>
      <trkpt lat="43.08608" lon="2.5946">
        <ele>304.88</ele>
        <time>2017-04-22T09:18:44Z</time>
      </trkpt>
      <trkpt lat="43.08606" lon="2.59451">
        <ele>304.88</ele>
        <time>2017-04-22T09:18:50Z</time>
      </trkpt>
      <trkpt lat="43.08605" lon="2.59446">
        <ele>304.88</ele>
        <time>2017-04-22T09:18:54Z</time>
      </trkpt>
      <trkpt lat="43.08603" lon="2.5944">
        <ele>304.88</ele>
        <time>2017-04-22T09:18:58Z</time>
      </trkpt>
      <trkpt lat="43.08592" lon="2.59423">
        <ele>305.84</ele>
        <time>2017-04-22T09:19:15Z</time>
      </trkpt>
      <trkpt lat="43.08587" lon="2.5942">
        <ele>306.32</ele>
        <time>2017-04-22T09:19:23Z</time>
      </trkpt>
      <trkpt lat="43.08582" lon="2.59419">
        <ele>306.32</ele>
        <time>2017-04-22T09:19:27Z</time>
      </trkpt>
      <trkpt lat="43.08566" lon="2.59413">
        <ele>307.76</ele>
        <time>2017-04-22T09:19:43Z</time>
      </trkpt>
      <trkpt lat="43.08557" lon="2.59413">
        <ele>308.24</ele>
        <time>2017-04-22T09:19:50Z</time>
      </trkpt>
      <trkpt lat="43.0854" lon="2.59409">
        <ele>309.68</ele>
        <time>2017-04-22T09:20:06Z</time>
      </trkpt>
      <trkpt lat="43.08535" lon="2.59402">
        <ele>309.68</ele>
        <time>2017-04-22T09:20:12Z</time>
      </trkpt>
      <trkpt lat="43.08533" lon="2.59392">
        <ele>310.16</ele>
        <time>2017-04-22T09:20:18Z</time>
      </trkpt>
      <trkpt lat="43.08533" lon="2.59385">
        <ele>310.16</ele>
        <time>2017-04-22T09:20:22Z</time>
      </trkpt>
      <trkpt lat="43.08537" lon="2.59369">
        <ele>311.12</ele>
        <time>2017-04-22T09:20:33Z</time>
      </trkpt>
      <trkpt lat="43.08538" lon="2.59361">
        <ele>311.12</ele>
        <time>2017-04-22T09:20:38Z</time>
      </trkpt>
      <trkpt lat="43.08542" lon="2.59353">
        <ele>311.12</ele>
        <time>2017-04-22T09:20:45Z</time>
      </trkpt>
      <trkpt lat="43.08547" lon="2.59335">
        <ele>311.12</ele>
        <time>2017-04-22T09:20:58Z</time>
      </trkpt>
      <trkpt lat="43.08553" lon="2.59312">
        <ele>311.6</ele>
        <time>2017-04-22T09:21:13Z</time>
      </trkpt>
      <trkpt lat="43.08556" lon="2.59297">
        <ele>312.09</ele>
        <time>2017-04-22T09:21:24Z</time>
      </trkpt>
      <trkpt lat="43.08562" lon="2.59278">
        <ele>313.05</ele>
        <time>2017-04-22T09:21:38Z</time>
      </trkpt>
      <trkpt lat="43.08566" lon="2.5926">
        <ele>313.05</ele>
        <time>2017-04-22T09:21:50Z</time>
      </trkpt>
      <trkpt lat="43.08567" lon="2.59245">
        <ele>313.05</ele>
        <time>2017-04-22T09:22:01Z</time>
      </trkpt>
      <trkpt lat="43.08568" lon="2.59227">
        <ele>313.53</ele>
        <time>2017-04-22T09:22:14Z</time>
      </trkpt>
      <trkpt lat="43.08569" lon="2.59206">
        <ele>313.05</ele>
        <time>2017-04-22T09:22:27Z</time>
      </trkpt>
      <trkpt lat="43.08569" lon="2.59194">
        <ele>313.05</ele>
        <time>2017-04-22T09:22:35Z</time>
      </trkpt>
      <trkpt lat="43.08569" lon="2.59179">
        <ele>313.05</ele>
        <time>2017-04-22T09:22:45Z</time>
      </trkpt>
      <trkpt lat="43.08572" lon="2.59155">
        <ele>313.53</ele>
        <time>2017-04-22T09:23:00Z</time>
      </trkpt>
      <trkpt lat="43.08573" lon="2.59154">
        <ele>313.53</ele>
        <time>2017-04-22T09:23:01Z</time>
      </trkpt>
      <trkpt lat="43.08575" lon="2.59126">
        <ele>313.05</ele>
        <time>2017-04-22T09:23:19Z</time>
      </trkpt>
      <trkpt lat="43.08575" lon="2.5912">
        <ele>313.53</ele>
        <time>2017-04-22T09:23:23Z</time>
      </trkpt>
      <trkpt lat="43.08575" lon="2.59111">
        <ele>313.05</ele>
        <time>2017-04-22T09:23:29Z</time>
      </trkpt>
      <trkpt lat="43.08575" lon="2.59104">
        <ele>313.53</ele>
        <time>2017-04-22T09:23:34Z</time>
      </trkpt>
      <trkpt lat="43.08575" lon="2.59097">
        <ele>313.05</ele>
        <time>2017-04-22T09:23:38Z</time>
      </trkpt>
      <trkpt lat="43.08574" lon="2.59089">
        <ele>313.53</ele>
        <time>2017-04-22T09:23:43Z</time>
      </trkpt>
      <trkpt lat="43.08575" lon="2.59086">
        <ele>313.05</ele>
        <time>2017-04-22T09:23:45Z</time>
      </trkpt>
      <trkpt lat="43.08575" lon="2.59076">
        <ele>313.05</ele>
        <time>2017-04-22T09:23:52Z</time>
      </trkpt>
      <trkpt lat="43.08575" lon="2.59056">
        <ele>313.53</ele>
        <time>2017-04-22T09:24:05Z</time>
      </trkpt>
      <trkpt lat="43.08575" lon="2.59038">
        <ele>314.01</ele>
        <time>2017-04-22T09:24:18Z</time>
      </trkpt>
      <trkpt lat="43.08576" lon="2.59022">
        <ele>314.49</ele>
        <time>2017-04-22T09:24:29Z</time>
      </trkpt>
      <trkpt lat="43.08576" lon="2.59002">
        <ele>314.97</ele>
        <time>2017-04-22T09:24:44Z</time>
      </trkpt>
      <trkpt lat="43.08577" lon="2.58984">
        <ele>314.97</ele>
        <time>2017-04-22T09:24:56Z</time>
      </trkpt>
      <trkpt lat="43.08578" lon="2.58967">
        <ele>315.45</ele>
        <time>2017-04-22T09:25:07Z</time>
      </trkpt>
      <trkpt lat="43.08578" lon="2.58966">
        <ele>315.45</ele>
        <time>2017-04-22T09:25:08Z</time>
      </trkpt>
      <trkpt lat="43.08578" lon="2.5895">
        <ele>315.45</ele>
        <time>2017-04-22T09:25:19Z</time>
      </trkpt>
      <trkpt lat="43.08579" lon="2.58931">
        <ele>315.45</ele>
        <time>2017-04-22T09:25:32Z</time>
      </trkpt>
      <trkpt lat="43.08578" lon="2.58911">
        <ele>316.41</ele>
        <time>2017-04-22T09:25:46Z</time>
      </trkpt>
      <trkpt lat="43.08578" lon="2.58909">
        <ele>316.41</ele>
        <time>2017-04-22T09:25:47Z</time>
      </trkpt>
      <trkpt lat="43.0858" lon="2.58888">
        <ele>316.41</ele>
        <time>2017-04-22T09:26:01Z</time>
      </trkpt>
      <trkpt lat="43.08577" lon="2.58867">
        <ele>317.37</ele>
        <time>2017-04-22T09:26:15Z</time>
      </trkpt>
      <trkpt lat="43.08575" lon="2.5886">
        <ele>317.37</ele>
        <time>2017-04-22T09:26:20Z</time>
      </trkpt>
      <trkpt lat="43.08571" lon="2.58839">
        <ele>317.37</ele>
        <time>2017-04-22T09:26:34Z</time>
      </trkpt>
      <trkpt lat="43.08568" lon="2.58819">
        <ele>317.85</ele>
        <time>2017-04-22T09:26:48Z</time>
      </trkpt>
      <trkpt lat="43.08562" lon="2.58797">
        <ele>318.33</ele>
        <time>2017-04-22T09:27:03Z</time>
      </trkpt>
      <trkpt lat="43.08556" lon="2.58778">
        <ele>318.81</ele>
        <time>2017-04-22T09:27:17Z</time>
      </trkpt>
      <trkpt lat="43.08551" lon="2.58756">
        <ele>319.3</ele>
        <time>2017-04-22T09:27:33Z</time>
      </trkpt>
      <trkpt lat="43.08547" lon="2.58745">
        <ele>319.3</ele>
        <time>2017-04-22T09:27:41Z</time>
      </trkpt>
      <trkpt lat="43.08544" lon="2.58729">
        <ele>319.3</ele>
        <time>2017-04-22T09:27:53Z</time>
      </trkpt>
      <trkpt lat="43.08542" lon="2.58722">
        <ele>319.3</ele>
        <time>2017-04-22T09:27:58Z</time>
      </trkpt>
      <trkpt lat="43.08536" lon="2.58702">
        <ele>319.3</ele>
        <time>2017-04-22T09:28:12Z</time>
      </trkpt>
      <trkpt lat="43.08535" lon="2.58698">
        <ele>318.81</ele>
        <time>2017-04-22T09:28:15Z</time>
      </trkpt>
      <trkpt lat="43.08528" lon="2.58676">
        <ele>319.78</ele>
        <time>2017-04-22T09:28:32Z</time>
      </trkpt>
      <trkpt lat="43.08525" lon="2.58671">
        <ele>319.78</ele>
        <time>2017-04-22T09:28:45Z</time>
      </trkpt>
      <trkpt lat="43.08525" lon="2.58671">
        <ele>320.26</ele>
        <time>2017-04-22T09:29:12Z</time>
      </trkpt>
      <trkpt lat="43.08524" lon="2.5867">
        <ele>320.26</ele>
        <time>2017-04-22T09:29:29Z</time>
      </trkpt>
      <trkpt lat="43.08526" lon="2.58671">
        <ele>320.26</ele>
        <time>2017-04-22T09:29:56Z</time>
      </trkpt>
      <trkpt lat="43.08522" lon="2.58662">
        <ele>320.74</ele>
        <time>2017-04-22T09:31:03Z</time>
      </trkpt>
      <trkpt lat="43.08519" lon="2.58651">
        <ele>321.22</ele>
        <time>2017-04-22T09:31:14Z</time>
      </trkpt>
      <trkpt lat="43.08517" lon="2.58645">
        <ele>321.7</ele>
        <time>2017-04-22T09:31:20Z</time>
      </trkpt>
      <trkpt lat="43.08512" lon="2.58629">
        <ele>321.7</ele>
        <time>2017-04-22T09:31:33Z</time>
      </trkpt>
      <trkpt lat="43.08512" lon="2.58625">
        <ele>322.18</ele>
        <time>2017-04-22T09:31:36Z</time>
      </trkpt>
      <trkpt lat="43.0851" lon="2.58622">
        <ele>322.66</ele>
        <time>2017-04-22T09:31:38Z</time>
      </trkpt>
      <trkpt lat="43.08507" lon="2.58615">
        <ele>322.18</ele>
        <time>2017-04-22T09:31:43Z</time>
      </trkpt>
      <trkpt lat="43.08506" lon="2.58594">
        <ele>323.14</ele>
        <time>2017-04-22T09:31:59Z</time>
      </trkpt>
      <trkpt lat="43.08505" lon="2.58588">
        <ele>323.14</ele>
        <time>2017-04-22T09:32:03Z</time>
      </trkpt>
      <trkpt lat="43.08502" lon="2.58572">
        <ele>323.62</ele>
        <time>2017-04-22T09:32:15Z</time>
      </trkpt>
      <trkpt lat="43.085" lon="2.58568">
        <ele>323.62</ele>
        <time>2017-04-22T09:32:19Z</time>
      </trkpt>
      <trkpt lat="43.08498" lon="2.58553">
        <ele>324.1</ele>
        <time>2017-04-22T09:32:30Z</time>
      </trkpt>
      <trkpt lat="43.08498" lon="2.58548">
        <ele>324.58</ele>
        <time>2017-04-22T09:32:33Z</time>
      </trkpt>
      <trkpt lat="43.08494" lon="2.58534">
        <ele>325.06</ele>
        <time>2017-04-22T09:32:42Z</time>
      </trkpt>
      <trkpt lat="43.08497" lon="2.58515">
        <ele>324.1</ele>
        <time>2017-04-22T09:32:56Z</time>
      </trkpt>
      <trkpt lat="43.08497" lon="2.58511">
        <ele>324.1</ele>
        <time>2017-04-22T09:32:59Z</time>
      </trkpt>
      <trkpt lat="43.08492" lon="2.58489">
        <ele>322.18</ele>
        <time>2017-04-22T09:33:15Z</time>
      </trkpt>
      <trkpt lat="43.08486" lon="2.58466">
        <ele>320.74</ele>
        <time>2017-04-22T09:33:31Z</time>
      </trkpt>
      <trkpt lat="43.08485" lon="2.58462">
        <ele>320.74</ele>
        <time>2017-04-22T09:33:34Z</time>
      </trkpt>
      <trkpt lat="43.08479" lon="2.58443">
        <ele>319.3</ele>
        <time>2017-04-22T09:33:49Z</time>
      </trkpt>
      <trkpt lat="43.08477" lon="2.58425">
        <ele>316.41</ele>
        <time>2017-04-22T09:34:05Z</time>
      </trkpt>
      <trkpt lat="43.08477" lon="2.5842">
        <ele>316.41</ele>
        <time>2017-04-22T09:34:08Z</time>
      </trkpt>
      <trkpt lat="43.08476" lon="2.58411">
        <ele>315.93</ele>
        <time>2017-04-22T09:34:15Z</time>
      </trkpt>
      <trkpt lat="43.08468" lon="2.58392">
        <ele>315.45</ele>
        <time>2017-04-22T09:34:30Z</time>
      </trkpt>
      <trkpt lat="43.08465" lon="2.58375">
        <ele>314.97</ele>
        <time>2017-04-22T09:34:45Z</time>
      </trkpt>
      <trkpt lat="43.08463" lon="2.58358">
        <ele>313.53</ele>
        <time>2017-04-22T09:35:00Z</time>
      </trkpt>
      <trkpt lat="43.08461" lon="2.58343">
        <ele>312.09</ele>
        <time>2017-04-22T09:35:14Z</time>
      </trkpt>
      <trkpt lat="43.0846" lon="2.58327">
        <ele>310.64</ele>
        <time>2017-04-22T09:35:29Z</time>
      </trkpt>
      <trkpt lat="43.08459" lon="2.58314">
        <ele>310.16</ele>
        <time>2017-04-22T09:35:40Z</time>
      </trkpt>
      <trkpt lat="43.08459" lon="2.58303">
        <ele>308.24</ele>
        <time>2017-04-22T09:35:54Z</time>
      </trkpt>
      <trkpt lat="43.08463" lon="2.58287">
        <ele>306.8</ele>
        <time>2017-04-22T09:36:08Z</time>
      </trkpt>
      <trkpt lat="43.08468" lon="2.58273">
        <ele>304.88</ele>
        <time>2017-04-22T09:36:20Z</time>
      </trkpt>
      <trkpt lat="43.08474" lon="2.58255">
        <ele>302.47</ele>
        <time>2017-04-22T09:36:35Z</time>
      </trkpt>
      <trkpt lat="43.0848" lon="2.58242">
        <ele>300.07</ele>
        <time>2017-04-22T09:36:51Z</time>
      </trkpt>
      <trkpt lat="43.08485" lon="2.58224">
        <ele>298.15</ele>
        <time>2017-04-22T09:37:06Z</time>
      </trkpt>
      <trkpt lat="43.08489" lon="2.58212">
        <ele>296.7</ele>
        <time>2017-04-22T09:37:22Z</time>
      </trkpt>
      <trkpt lat="43.08493" lon="2.58196">
        <ele>294.78</ele>
        <time>2017-04-22T09:37:35Z</time>
      </trkpt>
      <trkpt lat="43.085" lon="2.58182">
        <ele>292.38</ele>
        <time>2017-04-22T09:37:51Z</time>
      </trkpt>
      <trkpt lat="43.08505" lon="2.5817">
        <ele>290.94</ele>
        <time>2017-04-22T09:38:03Z</time>
      </trkpt>
      <trkpt lat="43.08518" lon="2.58154">
        <ele>289.01</ele>
        <time>2017-04-22T09:38:22Z</time>
      </trkpt>
      <trkpt lat="43.08522" lon="2.58136">
        <ele>287.09</ele>
        <time>2017-04-22T09:38:38Z</time>
      </trkpt>
      <trkpt lat="43.0853" lon="2.58123">
        <ele>285.65</ele>
        <time>2017-04-22T09:38:53Z</time>
      </trkpt>
      <trkpt lat="43.08534" lon="2.58115">
        <ele>284.69</ele>
        <time>2017-04-22T09:39:00Z</time>
      </trkpt>
      <trkpt lat="43.08549" lon="2.58101">
        <ele>281.8</ele>
        <time>2017-04-22T09:39:20Z</time>
      </trkpt>
      <trkpt lat="43.08565" lon="2.58089">
        <ele>279.88</ele>
        <time>2017-04-22T09:39:39Z</time>
      </trkpt>
      <trkpt lat="43.08583" lon="2.5808">
        <ele>278.44</ele>
        <time>2017-04-22T09:39:57Z</time>
      </trkpt>
      <trkpt lat="43.08599" lon="2.58073">
        <ele>277.96</ele>
        <time>2017-04-22T09:40:12Z</time>
      </trkpt>
      <trkpt lat="43.08616" lon="2.58066">
        <ele>277</ele>
        <time>2017-04-22T09:40:28Z</time>
      </trkpt>
      <trkpt lat="43.08629" lon="2.58057">
        <ele>277</ele>
        <time>2017-04-22T09:40:43Z</time>
      </trkpt>
      <trkpt lat="43.08644" lon="2.58046">
        <ele>277</ele>
        <time>2017-04-22T09:40:59Z</time>
      </trkpt>
      <trkpt lat="43.08646" lon="2.58046">
        <ele>277</ele>
        <time>2017-04-22T09:41:00Z</time>
      </trkpt>
      <trkpt lat="43.08654" lon="2.58039">
        <ele>276.04</ele>
        <time>2017-04-22T09:41:09Z</time>
      </trkpt>
      <trkpt lat="43.08668" lon="2.58027">
        <ele>274.11</ele>
        <time>2017-04-22T09:41:25Z</time>
      </trkpt>
      <trkpt lat="43.0868" lon="2.58014">
        <ele>272.67</ele>
        <time>2017-04-22T09:41:41Z</time>
      </trkpt>
      <trkpt lat="43.08694" lon="2.58003">
        <ele>271.23</ele>
        <time>2017-04-22T09:41:56Z</time>
      </trkpt>
      <trkpt lat="43.08709" lon="2.5799">
        <ele>270.75</ele>
        <time>2017-04-22T09:42:12Z</time>
      </trkpt>
      <trkpt lat="43.0872" lon="2.57979">
        <ele>270.27</ele>
        <time>2017-04-22T09:42:28Z</time>
      </trkpt>
      <trkpt lat="43.0873" lon="2.57964">
        <ele>270.27</ele>
        <time>2017-04-22T09:42:49Z</time>
      </trkpt>
      <trkpt lat="43.0874" lon="2.57948">
        <ele>269.79</ele>
        <time>2017-04-22T09:43:04Z</time>
      </trkpt>
      <trkpt lat="43.08744" lon="2.5794">
        <ele>269.31</ele>
        <time>2017-04-22T09:43:10Z</time>
      </trkpt>
      <trkpt lat="43.08753" lon="2.57917">
        <ele>268.83</ele>
        <time>2017-04-22T09:43:27Z</time>
      </trkpt>
      <trkpt lat="43.08758" lon="2.57899">
        <ele>267.86</ele>
        <time>2017-04-22T09:43:41Z</time>
      </trkpt>
      <trkpt lat="43.08759" lon="2.57895">
        <ele>267.86</ele>
        <time>2017-04-22T09:43:44Z</time>
      </trkpt>
      <trkpt lat="43.08763" lon="2.57882">
        <ele>267.38</ele>
        <time>2017-04-22T09:43:53Z</time>
      </trkpt>
      <trkpt lat="43.0877" lon="2.57856">
        <ele>266.42</ele>
        <time>2017-04-22T09:44:10Z</time>
      </trkpt>
      <trkpt lat="43.08772" lon="2.57837">
        <ele>265.94</ele>
        <time>2017-04-22T09:44:23Z</time>
      </trkpt>
      <trkpt lat="43.08773" lon="2.57816">
        <ele>264.5</ele>
        <time>2017-04-22T09:44:38Z</time>
      </trkpt>
      <trkpt lat="43.08778" lon="2.57795">
        <ele>263.54</ele>
        <time>2017-04-22T09:44:53Z</time>
      </trkpt>
      <trkpt lat="43.0878" lon="2.57777">
        <ele>262.58</ele>
        <time>2017-04-22T09:45:08Z</time>
      </trkpt>
      <trkpt lat="43.0878" lon="2.57763">
        <ele>260.17</ele>
        <time>2017-04-22T09:45:21Z</time>
      </trkpt>
      <trkpt lat="43.08785" lon="2.57747">
        <ele>258.25</ele>
        <time>2017-04-22T09:45:36Z</time>
      </trkpt>
      <trkpt lat="43.08794" lon="2.57738">
        <ele>257.29</ele>
        <time>2017-04-22T09:45:52Z</time>
      </trkpt>
      <trkpt lat="43.088" lon="2.57725">
        <ele>257.29</ele>
        <time>2017-04-22T09:46:06Z</time>
      </trkpt>
      <trkpt lat="43.08808" lon="2.57716">
        <ele>256.81</ele>
        <time>2017-04-22T09:46:19Z</time>
      </trkpt>
      <trkpt lat="43.08809" lon="2.57711">
        <ele>255.85</ele>
        <time>2017-04-22T09:46:33Z</time>
      </trkpt>
      <trkpt lat="43.08812" lon="2.57704">
        <ele>255.85</ele>
        <time>2017-04-22T09:46:41Z</time>
      </trkpt>
      <trkpt lat="43.08813" lon="2.577">
        <ele>255.37</ele>
        <time>2017-04-22T09:46:45Z</time>
      </trkpt>
      <trkpt lat="43.0882" lon="2.5769">
        <ele>252.96</ele>
        <time>2017-04-22T09:46:58Z</time>
      </trkpt>
      <trkpt lat="43.08821" lon="2.57688">
        <ele>252.48</ele>
        <time>2017-04-22T09:47:02Z</time>
      </trkpt>
      <trkpt lat="43.08826" lon="2.5768">
        <ele>252.48</ele>
        <time>2017-04-22T09:47:11Z</time>
      </trkpt>
      <trkpt lat="43.08834" lon="2.57676">
        <ele>251.04</ele>
        <time>2017-04-22T09:47:20Z</time>
      </trkpt>
      <trkpt lat="43.08844" lon="2.57675">
        <ele>251.04</ele>
        <time>2017-04-22T09:47:35Z</time>
      </trkpt>
      <trkpt lat="43.08843" lon="2.57675">
        <ele>251.04</ele>
        <time>2017-04-22T09:48:04Z</time>
      </trkpt>
      <trkpt lat="43.0885" lon="2.57665">
        <ele>251.04</ele>
        <time>2017-04-22T09:51:55Z</time>
      </trkpt>
      <trkpt lat="43.08859" lon="2.57648">
        <ele>251.52</ele>
        <time>2017-04-22T09:52:11Z</time>
      </trkpt>
      <trkpt lat="43.0886" lon="2.57648">
        <ele>251.52</ele>
        <time>2017-04-22T09:52:12Z</time>
      </trkpt>
      <trkpt lat="43.0886" lon="2.57645">
        <ele>251.52</ele>
        <time>2017-04-22T09:52:14Z</time>
      </trkpt>
      <trkpt lat="43.08866" lon="2.57628">
        <ele>252.48</ele>
        <time>2017-04-22T09:52:28Z</time>
      </trkpt>
      <trkpt lat="43.08868" lon="2.57621">
        <ele>253.44</ele>
        <time>2017-04-22T09:52:34Z</time>
      </trkpt>
      <trkpt lat="43.08869" lon="2.57615">
        <ele>253.93</ele>
        <time>2017-04-22T09:52:39Z</time>
      </trkpt>
      <trkpt lat="43.08875" lon="2.57599">
        <ele>254.89</ele>
        <time>2017-04-22T09:52:52Z</time>
      </trkpt>
      <trkpt lat="43.08884" lon="2.57583">
        <ele>256.33</ele>
        <time>2017-04-22T09:53:07Z</time>
      </trkpt>
      <trkpt lat="43.08887" lon="2.57578">
        <ele>256.81</ele>
        <time>2017-04-22T09:53:13Z</time>
      </trkpt>
      <trkpt lat="43.0889" lon="2.5757">
        <ele>257.77</ele>
        <time>2017-04-22T09:53:21Z</time>
      </trkpt>
      <trkpt lat="43.08898" lon="2.57557">
        <ele>259.69</ele>
        <time>2017-04-22T09:53:35Z</time>
      </trkpt>
      <trkpt lat="43.08906" lon="2.57548">
        <ele>261.62</ele>
        <time>2017-04-22T09:53:49Z</time>
      </trkpt>
      <trkpt lat="43.08909" lon="2.57544">
        <ele>262.58</ele>
        <time>2017-04-22T09:53:54Z</time>
      </trkpt>
      <trkpt lat="43.08913" lon="2.57539">
        <ele>263.06</ele>
        <time>2017-04-22T09:54:00Z</time>
      </trkpt>
      <trkpt lat="43.08923" lon="2.57527">
        <ele>263.06</ele>
        <time>2017-04-22T09:54:13Z</time>
      </trkpt>
      <trkpt lat="43.08931" lon="2.57513">
        <ele>264.5</ele>
        <time>2017-04-22T09:54:29Z</time>
      </trkpt>
      <trkpt lat="43.0894" lon="2.57503">
        <ele>263.06</ele>
        <time>2017-04-22T09:54:44Z</time>
      </trkpt>
      <trkpt lat="43.08943" lon="2.57506">
        <ele>263.06</ele>
        <time>2017-04-22T09:54:55Z</time>
      </trkpt>
      <trkpt lat="43.08942" lon="2.57518">
        <ele>264.5</ele>
        <time>2017-04-22T09:55:07Z</time>
      </trkpt>
      <trkpt lat="43.08939" lon="2.57534">
        <ele>266.42</ele>
        <time>2017-04-22T09:55:21Z</time>
      </trkpt>
      <trkpt lat="43.08937" lon="2.57549">
        <ele>268.83</ele>
        <time>2017-04-22T09:55:35Z</time>
      </trkpt>
      <trkpt lat="43.08936" lon="2.57554">
        <ele>269.31</ele>
        <time>2017-04-22T09:55:49Z</time>
      </trkpt>
      <trkpt lat="43.08936" lon="2.57562">
        <ele>270.75</ele>
        <time>2017-04-22T09:56:05Z</time>
      </trkpt>
      <trkpt lat="43.08935" lon="2.57563">
        <ele>270.75</ele>
        <time>2017-04-22T09:56:10Z</time>
      </trkpt>
      <trkpt lat="43.08933" lon="2.57579">
        <ele>273.15</ele>
        <time>2017-04-22T09:56:22Z</time>
      </trkpt>
      <trkpt lat="43.08933" lon="2.57588">
        <ele>274.11</ele>
        <time>2017-04-22T09:56:35Z</time>
      </trkpt>
      <trkpt lat="43.08929" lon="2.57596">
        <ele>276.04</ele>
        <time>2017-04-22T09:56:46Z</time>
      </trkpt>
      <trkpt lat="43.08928" lon="2.57608">
        <ele>277</ele>
        <time>2017-04-22T09:56:59Z</time>
      </trkpt>
      <trkpt lat="43.08929" lon="2.57606">
        <ele>277</ele>
        <time>2017-04-22T09:59:59Z</time>
      </trkpt>
      <trkpt lat="43.08928" lon="2.57606">
        <ele>277</ele>
        <time>2017-04-22T10:00:23Z</time>
      </trkpt>
      <trkpt lat="43.08927" lon="2.57596">
        <ele>276.04</ele>
        <time>2017-04-22T10:00:38Z</time>
      </trkpt>
      <trkpt lat="43.08929" lon="2.57587">
        <ele>274.59</ele>
        <time>2017-04-22T10:00:50Z</time>
      </trkpt>
      <trkpt lat="43.08933" lon="2.57573">
        <ele>272.19</ele>
        <time>2017-04-22T10:01:05Z</time>
      </trkpt>
      <trkpt lat="43.08935" lon="2.5756">
        <ele>270.27</ele>
        <time>2017-04-22T10:01:17Z</time>
      </trkpt>
      <trkpt lat="43.08937" lon="2.57546">
        <ele>268.35</ele>
        <time>2017-04-22T10:01:28Z</time>
      </trkpt>
      <trkpt lat="43.08938" lon="2.57531">
        <ele>266.42</ele>
        <time>2017-04-22T10:01:41Z</time>
      </trkpt>
      <trkpt lat="43.08941" lon="2.57513">
        <ele>264.5</ele>
        <time>2017-04-22T10:01:55Z</time>
      </trkpt>
      <trkpt lat="43.08942" lon="2.57499">
        <ele>262.1</ele>
        <time>2017-04-22T10:02:07Z</time>
      </trkpt>
      <trkpt lat="43.08947" lon="2.57483">
        <ele>260.17</ele>
        <time>2017-04-22T10:02:22Z</time>
      </trkpt>
      <trkpt lat="43.08947" lon="2.57483">
        <ele>260.17</ele>
        <time>2017-04-22T10:02:23Z</time>
      </trkpt>
      <trkpt lat="43.08946" lon="2.57463">
        <ele>259.21</ele>
        <time>2017-04-22T10:02:39Z</time>
      </trkpt>
      <trkpt lat="43.08949" lon="2.57447">
        <ele>260.17</ele>
        <time>2017-04-22T10:02:55Z</time>
      </trkpt>
      <trkpt lat="43.08947" lon="2.57447">
        <ele>260.17</ele>
        <time>2017-04-22T10:04:47Z</time>
      </trkpt>
      <trkpt lat="43.08948" lon="2.57443">
        <ele>260.17</ele>
        <time>2017-04-22T10:05:01Z</time>
      </trkpt>
      <trkpt lat="43.08948" lon="2.57443">
        <ele>260.17</ele>
        <time>2017-04-22T10:05:26Z</time>
      </trkpt>
      <trkpt lat="43.08946" lon="2.57439">
        <ele>260.17</ele>
        <time>2017-04-22T10:05:29Z</time>
      </trkpt>
      <trkpt lat="43.08948" lon="2.57431">
        <ele>259.69</ele>
        <time>2017-04-22T10:05:35Z</time>
      </trkpt>
      <trkpt lat="43.08951" lon="2.57424">
        <ele>259.69</ele>
        <time>2017-04-22T10:05:41Z</time>
      </trkpt>
      <trkpt lat="43.08956" lon="2.5741">
        <ele>258.73</ele>
        <time>2017-04-22T10:05:56Z</time>
      </trkpt>
      <trkpt lat="43.08956" lon="2.57404">
        <ele>257.77</ele>
        <time>2017-04-22T10:06:10Z</time>
      </trkpt>
      <trkpt lat="43.08957" lon="2.57397">
        <ele>257.29</ele>
        <time>2017-04-22T10:06:22Z</time>
      </trkpt>
      <trkpt lat="43.08958" lon="2.574">
        <ele>256.81</ele>
        <time>2017-04-22T10:06:42Z</time>
      </trkpt>
      <trkpt lat="43.08958" lon="2.57405">
        <ele>257.29</ele>
        <time>2017-04-22T10:06:52Z</time>
      </trkpt>
      <trkpt lat="43.08958" lon="2.57417">
        <ele>258.73</ele>
        <time>2017-04-22T10:07:04Z</time>
      </trkpt>
      <trkpt lat="43.08956" lon="2.57421">
        <ele>259.21</ele>
        <time>2017-04-22T10:07:17Z</time>
      </trkpt>
      <trkpt lat="43.08954" lon="2.57425">
        <ele>259.21</ele>
        <time>2017-04-22T10:07:31Z</time>
      </trkpt>
      <trkpt lat="43.0895" lon="2.57431">
        <ele>259.69</ele>
        <time>2017-04-22T10:07:46Z</time>
      </trkpt>
      <trkpt lat="43.08947" lon="2.5744">
        <ele>259.69</ele>
        <time>2017-04-22T10:07:58Z</time>
      </trkpt>
      <trkpt lat="43.08944" lon="2.57446">
        <ele>260.17</ele>
        <time>2017-04-22T10:08:13Z</time>
      </trkpt>
      <trkpt lat="43.08945" lon="2.57445">
        <ele>260.17</ele>
        <time>2017-04-22T10:08:32Z</time>
      </trkpt>
      <trkpt lat="43.08945" lon="2.57445">
        <ele>260.17</ele>
        <time>2017-04-22T10:08:49Z</time>
      </trkpt>
      <trkpt lat="43.08947" lon="2.57459">
        <ele>260.17</ele>
        <time>2017-04-22T10:09:06Z</time>
      </trkpt>
      <trkpt lat="43.08947" lon="2.57484">
        <ele>260.17</ele>
        <time>2017-04-22T10:09:22Z</time>
      </trkpt>
      <trkpt lat="43.08944" lon="2.57498">
        <ele>261.62</ele>
        <time>2017-04-22T10:09:33Z</time>
      </trkpt>
      <trkpt lat="43.08943" lon="2.57499">
        <ele>262.1</ele>
        <time>2017-04-22T10:09:35Z</time>
      </trkpt>
      <trkpt lat="43.0894" lon="2.57501">
        <ele>262.58</ele>
        <time>2017-04-22T10:09:38Z</time>
      </trkpt>
      <trkpt lat="43.08934" lon="2.57508">
        <ele>264.02</ele>
        <time>2017-04-22T10:09:45Z</time>
      </trkpt>
      <trkpt lat="43.08932" lon="2.5751">
        <ele>264.02</ele>
        <time>2017-04-22T10:09:47Z</time>
      </trkpt>
      <trkpt lat="43.08929" lon="2.57517">
        <ele>264.98</ele>
        <time>2017-04-22T10:09:53Z</time>
      </trkpt>
      <trkpt lat="43.08918" lon="2.57535">
        <ele>263.54</ele>
        <time>2017-04-22T10:10:09Z</time>
      </trkpt>
      <trkpt lat="43.08909" lon="2.57546">
        <ele>262.58</ele>
        <time>2017-04-22T10:10:24Z</time>
      </trkpt>
      <trkpt lat="43.08898" lon="2.57561">
        <ele>259.69</ele>
        <time>2017-04-22T10:10:39Z</time>
      </trkpt>
      <trkpt lat="43.08891" lon="2.57572">
        <ele>257.77</ele>
        <time>2017-04-22T10:10:50Z</time>
      </trkpt>
      <trkpt lat="43.08884" lon="2.57592">
        <ele>255.37</ele>
        <time>2017-04-22T10:11:05Z</time>
      </trkpt>
      <trkpt lat="43.08879" lon="2.57599">
        <ele>254.89</ele>
        <time>2017-04-22T10:11:11Z</time>
      </trkpt>
      <trkpt lat="43.08871" lon="2.57619">
        <ele>253.93</ele>
        <time>2017-04-22T10:11:25Z</time>
      </trkpt>
      <trkpt lat="43.08866" lon="2.57634">
        <ele>252.48</ele>
        <time>2017-04-22T10:11:35Z</time>
      </trkpt>
      <trkpt lat="43.08859" lon="2.57655">
        <ele>251.52</ele>
        <time>2017-04-22T10:11:49Z</time>
      </trkpt>
      <trkpt lat="43.08847" lon="2.57672">
        <ele>251.04</ele>
        <time>2017-04-22T10:12:04Z</time>
      </trkpt>
      <trkpt lat="43.0883" lon="2.57681">
        <ele>252.48</ele>
        <time>2017-04-22T10:12:19Z</time>
      </trkpt>
      <trkpt lat="43.08826" lon="2.57682">
        <ele>252.48</ele>
        <time>2017-04-22T10:12:22Z</time>
      </trkpt>
      <trkpt lat="43.08819" lon="2.57679">
        <ele>253.93</ele>
        <time>2017-04-22T10:12:30Z</time>
      </trkpt>
      <trkpt lat="43.08813" lon="2.57677">
        <ele>254.89</ele>
        <time>2017-04-22T10:12:36Z</time>
      </trkpt>
      <trkpt lat="43.0881" lon="2.57675">
        <ele>254.89</ele>
        <time>2017-04-22T10:12:39Z</time>
      </trkpt>
      <trkpt lat="43.08797" lon="2.57664">
        <ele>257.29</ele>
        <time>2017-04-22T10:12:55Z</time>
      </trkpt>
      <trkpt lat="43.08783" lon="2.57655">
        <ele>258.73</ele>
        <time>2017-04-22T10:13:10Z</time>
      </trkpt>
      <trkpt lat="43.08781" lon="2.57653">
        <ele>258.73</ele>
        <time>2017-04-22T10:13:12Z</time>
      </trkpt>
      <trkpt lat="43.08777" lon="2.57649">
        <ele>259.69</ele>
        <time>2017-04-22T10:13:17Z</time>
      </trkpt>
      <trkpt lat="43.08773" lon="2.57643">
        <ele>260.17</ele>
        <time>2017-04-22T10:13:23Z</time>
      </trkpt>
      <trkpt lat="43.08771" lon="2.57637">
        <ele>260.65</ele>
        <time>2017-04-22T10:13:28Z</time>
      </trkpt>
      <trkpt lat="43.08766" lon="2.57619">
        <ele>262.1</ele>
        <time>2017-04-22T10:13:42Z</time>
      </trkpt>
      <trkpt lat="43.08762" lon="2.57607">
        <ele>263.06</ele>
        <time>2017-04-22T10:13:51Z</time>
      </trkpt>
      <trkpt lat="43.08759" lon="2.57596">
        <ele>263.06</ele>
        <time>2017-04-22T10:13:59Z</time>
      </trkpt>
      <trkpt lat="43.08755" lon="2.57577">
        <ele>264.5</ele>
        <time>2017-04-22T10:14:12Z</time>
      </trkpt>
      <trkpt lat="43.08752" lon="2.57562">
        <ele>265.94</ele>
        <time>2017-04-22T10:14:24Z</time>
      </trkpt>
      <trkpt lat="43.08747" lon="2.57547">
        <ele>266.9</ele>
        <time>2017-04-22T10:14:36Z</time>
      </trkpt>
      <trkpt lat="43.08744" lon="2.57541">
        <ele>267.38</ele>
        <time>2017-04-22T10:14:50Z</time>
      </trkpt>
      <trkpt lat="43.08744" lon="2.5754">
        <ele>266.9</ele>
        <time>2017-04-22T10:15:15Z</time>
      </trkpt>
      <trkpt lat="43.08743" lon="2.57534">
        <ele>267.38</ele>
        <time>2017-04-22T10:15:28Z</time>
      </trkpt>
      <trkpt lat="43.08735" lon="2.57517">
        <ele>268.83</ele>
        <time>2017-04-22T10:15:44Z</time>
      </trkpt>
      <trkpt lat="43.08729" lon="2.57494">
        <ele>270.75</ele>
        <time>2017-04-22T10:16:01Z</time>
      </trkpt>
      <trkpt lat="43.08727" lon="2.57487">
        <ele>271.71</ele>
        <time>2017-04-22T10:16:08Z</time>
      </trkpt>
      <trkpt lat="43.08726" lon="2.57484">
        <ele>271.71</ele>
        <time>2017-04-22T10:16:10Z</time>
      </trkpt>
      <trkpt lat="43.08718" lon="2.57474">
        <ele>272.67</ele>
        <time>2017-04-22T10:16:23Z</time>
      </trkpt>
      <trkpt lat="43.08705" lon="2.57471">
        <ele>274.11</ele>
        <time>2017-04-22T10:16:37Z</time>
      </trkpt>
      <trkpt lat="43.08694" lon="2.5747">
        <ele>275.07</ele>
        <time>2017-04-22T10:16:49Z</time>
      </trkpt>
      <trkpt lat="43.08684" lon="2.57467">
        <ele>276.04</ele>
        <time>2017-04-22T10:17:01Z</time>
      </trkpt>
      <trkpt lat="43.08672" lon="2.57461">
        <ele>277</ele>
        <time>2017-04-22T10:17:15Z</time>
      </trkpt>
      <trkpt lat="43.08665" lon="2.57458">
        <ele>277.96</ele>
        <time>2017-04-22T10:17:24Z</time>
      </trkpt>
      <trkpt lat="43.08662" lon="2.57457">
        <ele>278.44</ele>
        <time>2017-04-22T10:17:28Z</time>
      </trkpt>
      <trkpt lat="43.08651" lon="2.57456">
        <ele>279.88</ele>
        <time>2017-04-22T10:17:40Z</time>
      </trkpt>
      <trkpt lat="43.08642" lon="2.57461">
        <ele>280.84</ele>
        <time>2017-04-22T10:17:52Z</time>
      </trkpt>
      <trkpt lat="43.08635" lon="2.57468">
        <ele>282.28</ele>
        <time>2017-04-22T10:18:05Z</time>
      </trkpt>
      <trkpt lat="43.08626" lon="2.57476">
        <ele>283.73</ele>
        <time>2017-04-22T10:18:17Z</time>
      </trkpt>
      <trkpt lat="43.08616" lon="2.57484">
        <ele>284.69</ele>
        <time>2017-04-22T10:18:30Z</time>
      </trkpt>
      <trkpt lat="43.08606" lon="2.57491">
        <ele>285.65</ele>
        <time>2017-04-22T10:18:44Z</time>
      </trkpt>
      <trkpt lat="43.08594" lon="2.57501">
        <ele>286.61</ele>
        <time>2017-04-22T10:18:57Z</time>
      </trkpt>
      <trkpt lat="43.08587" lon="2.57515">
        <ele>287.57</ele>
        <time>2017-04-22T10:19:11Z</time>
      </trkpt>
      <trkpt lat="43.08585" lon="2.57528">
        <ele>288.53</ele>
        <time>2017-04-22T10:19:22Z</time>
      </trkpt>
      <trkpt lat="43.08586" lon="2.57536">
        <ele>289.01</ele>
        <time>2017-04-22T10:19:28Z</time>
      </trkpt>
      <trkpt lat="43.08592" lon="2.57553">
        <ele>289.97</ele>
        <time>2017-04-22T10:19:45Z</time>
      </trkpt>
      <trkpt lat="43.08597" lon="2.57559">
        <ele>290.46</ele>
        <time>2017-04-22T10:19:53Z</time>
      </trkpt>
      <trkpt lat="43.08607" lon="2.57569">
        <ele>291.9</ele>
        <time>2017-04-22T10:20:07Z</time>
      </trkpt>
      <trkpt lat="43.08622" lon="2.57577">
        <ele>293.34</ele>
        <time>2017-04-22T10:20:23Z</time>
      </trkpt>
      <trkpt lat="43.08632" lon="2.57583">
        <ele>293.82</ele>
        <time>2017-04-22T10:20:36Z</time>
      </trkpt>
      <trkpt lat="43.08648" lon="2.57593">
        <ele>295.74</ele>
        <time>2017-04-22T10:20:53Z</time>
      </trkpt>
      <trkpt lat="43.08661" lon="2.57596">
        <ele>296.22</ele>
        <time>2017-04-22T10:21:08Z</time>
      </trkpt>
      <trkpt lat="43.08663" lon="2.57609">
        <ele>296.7</ele>
        <time>2017-04-22T10:21:20Z</time>
      </trkpt>
      <trkpt lat="43.08658" lon="2.57613">
        <ele>297.18</ele>
        <time>2017-04-22T10:21:26Z</time>
      </trkpt>
      <trkpt lat="43.08644" lon="2.57613">
        <ele>298.15</ele>
        <time>2017-04-22T10:21:40Z</time>
      </trkpt>
      <trkpt lat="43.08632" lon="2.57615">
        <ele>299.11</ele>
        <time>2017-04-22T10:21:53Z</time>
      </trkpt>
      <trkpt lat="43.0862" lon="2.57615">
        <ele>299.59</ele>
        <time>2017-04-22T10:22:05Z</time>
      </trkpt>
      <trkpt lat="43.0861" lon="2.57615">
        <ele>300.07</ele>
        <time>2017-04-22T10:22:17Z</time>
      </trkpt>
      <trkpt lat="43.08606" lon="2.57615">
        <ele>300.07</ele>
        <time>2017-04-22T10:22:21Z</time>
      </trkpt>
      <trkpt lat="43.08595" lon="2.57615">
        <ele>301.03</ele>
        <time>2017-04-22T10:22:35Z</time>
      </trkpt>
      <trkpt lat="43.08594" lon="2.57615">
        <ele>301.03</ele>
        <time>2017-04-22T10:22:36Z</time>
      </trkpt>
      <trkpt lat="43.08586" lon="2.57614">
        <ele>301.51</ele>
        <time>2017-04-22T10:22:44Z</time>
      </trkpt>
      <trkpt lat="43.08574" lon="2.57611">
        <ele>302.95</ele>
        <time>2017-04-22T10:22:57Z</time>
      </trkpt>
      <trkpt lat="43.08562" lon="2.57608">
        <ele>303.43</ele>
        <time>2017-04-22T10:23:12Z</time>
      </trkpt>
      <trkpt lat="43.0855" lon="2.57604">
        <ele>304.39</ele>
        <time>2017-04-22T10:23:26Z</time>
      </trkpt>
      <trkpt lat="43.08538" lon="2.57601">
        <ele>305.36</ele>
        <time>2017-04-22T10:23:41Z</time>
      </trkpt>
      <trkpt lat="43.08525" lon="2.57596">
        <ele>306.32</ele>
        <time>2017-04-22T10:23:55Z</time>
      </trkpt>
      <trkpt lat="43.08516" lon="2.57591">
        <ele>306.8</ele>
        <time>2017-04-22T10:24:06Z</time>
      </trkpt>
      <trkpt lat="43.0851" lon="2.57586">
        <ele>307.28</ele>
        <time>2017-04-22T10:24:13Z</time>
      </trkpt>
      <trkpt lat="43.08499" lon="2.57579">
        <ele>308.24</ele>
        <time>2017-04-22T10:24:26Z</time>
      </trkpt>
      <trkpt lat="43.08488" lon="2.5757">
        <ele>309.2</ele>
        <time>2017-04-22T10:24:41Z</time>
      </trkpt>
      <trkpt lat="43.08477" lon="2.57565">
        <ele>310.16</ele>
        <time>2017-04-22T10:24:54Z</time>
      </trkpt>
      <trkpt lat="43.08475" lon="2.57568">
        <ele>311.12</ele>
        <time>2017-04-22T10:24:59Z</time>
      </trkpt>
      <trkpt lat="43.08476" lon="2.57575">
        <ele>311.6</ele>
        <time>2017-04-22T10:25:05Z</time>
      </trkpt>
      <trkpt lat="43.08485" lon="2.57591">
        <ele>312.57</ele>
        <time>2017-04-22T10:25:20Z</time>
      </trkpt>
      <trkpt lat="43.08494" lon="2.57609">
        <ele>314.01</ele>
        <time>2017-04-22T10:25:37Z</time>
      </trkpt>
      <trkpt lat="43.08496" lon="2.57618">
        <ele>314.49</ele>
        <time>2017-04-22T10:25:46Z</time>
      </trkpt>
      <trkpt lat="43.08496" lon="2.57622">
        <ele>314.97</ele>
        <time>2017-04-22T10:25:49Z</time>
      </trkpt>
      <trkpt lat="43.08493" lon="2.57636">
        <ele>315.93</ele>
        <time>2017-04-22T10:26:02Z</time>
      </trkpt>
      <trkpt lat="43.08486" lon="2.57646">
        <ele>316.89</ele>
        <time>2017-04-22T10:26:14Z</time>
      </trkpt>
      <trkpt lat="43.08484" lon="2.57649">
        <ele>316.89</ele>
        <time>2017-04-22T10:26:16Z</time>
      </trkpt>
      <trkpt lat="43.08478" lon="2.57656">
        <ele>316.89</ele>
        <time>2017-04-22T10:26:24Z</time>
      </trkpt>
      <trkpt lat="43.08465" lon="2.57673">
        <ele>317.37</ele>
        <time>2017-04-22T10:26:41Z</time>
      </trkpt>
      <trkpt lat="43.08458" lon="2.57687">
        <ele>316.89</ele>
        <time>2017-04-22T10:26:54Z</time>
      </trkpt>
      <trkpt lat="43.08458" lon="2.57688">
        <ele>316.41</ele>
        <time>2017-04-22T10:26:55Z</time>
      </trkpt>
      <trkpt lat="43.08456" lon="2.57701">
        <ele>316.41</ele>
        <time>2017-04-22T10:27:08Z</time>
      </trkpt>
      <trkpt lat="43.08454" lon="2.57701">
        <ele>316.89</ele>
        <time>2017-04-22T10:31:02Z</time>
      </trkpt>
      <trkpt lat="43.08454" lon="2.577">
        <ele>316.89</ele>
        <time>2017-04-22T10:31:28Z</time>
      </trkpt>
      <trkpt lat="43.08454" lon="2.577">
        <ele>316.89</ele>
        <time>2017-04-22T10:31:55Z</time>
      </trkpt>
      <trkpt lat="43.08453" lon="2.57699">
        <ele>316.41</ele>
        <time>2017-04-22T10:32:21Z</time>
      </trkpt>
      <trkpt lat="43.08453" lon="2.57703">
        <ele>316.41</ele>
        <time>2017-04-22T10:32:48Z</time>
      </trkpt>
      <trkpt lat="43.08454" lon="2.57715">
        <ele>316.41</ele>
        <time>2017-04-22T10:33:00Z</time>
      </trkpt>
      <trkpt lat="43.08452" lon="2.57728">
        <ele>316.41</ele>
        <time>2017-04-22T10:33:14Z</time>
      </trkpt>
      <trkpt lat="43.08451" lon="2.57745">
        <ele>316.41</ele>
        <time>2017-04-22T10:33:29Z</time>
      </trkpt>
      <trkpt lat="43.08451" lon="2.57748">
        <ele>316.41</ele>
        <time>2017-04-22T10:33:31Z</time>
      </trkpt>
      <trkpt lat="43.08451" lon="2.5777">
        <ele>316.41</ele>
        <time>2017-04-22T10:33:48Z</time>
      </trkpt>
      <trkpt lat="43.08452" lon="2.57782">
        <ele>316.41</ele>
        <time>2017-04-22T10:33:57Z</time>
      </trkpt>
      <trkpt lat="43.08454" lon="2.57802">
        <ele>315.93</ele>
        <time>2017-04-22T10:34:14Z</time>
      </trkpt>
      <trkpt lat="43.08453" lon="2.57827">
        <ele>315.93</ele>
        <time>2017-04-22T10:34:31Z</time>
      </trkpt>
      <trkpt lat="43.08452" lon="2.5785">
        <ele>315.45</ele>
        <time>2017-04-22T10:34:46Z</time>
      </trkpt>
      <trkpt lat="43.08452" lon="2.57876">
        <ele>314.97</ele>
        <time>2017-04-22T10:35:04Z</time>
      </trkpt>
      <trkpt lat="43.0845" lon="2.57896">
        <ele>315.45</ele>
        <time>2017-04-22T10:35:18Z</time>
      </trkpt>
      <trkpt lat="43.08449" lon="2.57913">
        <ele>316.41</ele>
        <time>2017-04-22T10:35:31Z</time>
      </trkpt>
      <trkpt lat="43.08448" lon="2.5792">
        <ele>316.41</ele>
        <time>2017-04-22T10:35:55Z</time>
      </trkpt>
      <trkpt lat="43.08448" lon="2.57922">
        <ele>316.89</ele>
        <time>2017-04-22T10:35:57Z</time>
      </trkpt>
      <trkpt lat="43.0845" lon="2.57934">
        <ele>316.89</ele>
        <time>2017-04-22T10:36:05Z</time>
      </trkpt>
      <trkpt lat="43.08448" lon="2.57945">
        <ele>317.85</ele>
        <time>2017-04-22T10:36:12Z</time>
      </trkpt>
      <trkpt lat="43.08447" lon="2.57963">
        <ele>317.85</ele>
        <time>2017-04-22T10:36:24Z</time>
      </trkpt>
      <trkpt lat="43.08447" lon="2.57966">
        <ele>317.85</ele>
        <time>2017-04-22T10:36:26Z</time>
      </trkpt>
      <trkpt lat="43.08447" lon="2.57989">
        <ele>318.81</ele>
        <time>2017-04-22T10:36:41Z</time>
      </trkpt>
      <trkpt lat="43.08445" lon="2.58008">
        <ele>318.81</ele>
        <time>2017-04-22T10:36:54Z</time>
      </trkpt>
      <trkpt lat="43.08444" lon="2.58027">
        <ele>319.3</ele>
        <time>2017-04-22T10:37:08Z</time>
      </trkpt>
      <trkpt lat="43.08443" lon="2.5804">
        <ele>319.78</ele>
        <time>2017-04-22T10:37:16Z</time>
      </trkpt>
      <trkpt lat="43.08443" lon="2.58059">
        <ele>320.74</ele>
        <time>2017-04-22T10:37:29Z</time>
      </trkpt>
      <trkpt lat="43.08443" lon="2.58071">
        <ele>321.22</ele>
        <time>2017-04-22T10:37:37Z</time>
      </trkpt>
      <trkpt lat="43.08442" lon="2.58091">
        <ele>322.18</ele>
        <time>2017-04-22T10:37:51Z</time>
      </trkpt>
      <trkpt lat="43.08443" lon="2.58115">
        <ele>321.7</ele>
        <time>2017-04-22T10:38:07Z</time>
      </trkpt>
      <trkpt lat="43.08442" lon="2.58137">
        <ele>320.26</ele>
        <time>2017-04-22T10:38:21Z</time>
      </trkpt>
      <trkpt lat="43.0844" lon="2.58158">
        <ele>319.78</ele>
        <time>2017-04-22T10:38:35Z</time>
      </trkpt>
      <trkpt lat="43.08439" lon="2.58161">
        <ele>319.78</ele>
        <time>2017-04-22T10:38:37Z</time>
      </trkpt>
      <trkpt lat="43.08437" lon="2.58178">
        <ele>319.3</ele>
        <time>2017-04-22T10:38:48Z</time>
      </trkpt>
      <trkpt lat="43.08436" lon="2.58199">
        <ele>318.81</ele>
        <time>2017-04-22T10:39:02Z</time>
      </trkpt>
      <trkpt lat="43.08436" lon="2.58209">
        <ele>318.81</ele>
        <time>2017-04-22T10:39:09Z</time>
      </trkpt>
      <trkpt lat="43.08424" lon="2.58213">
        <ele>318.81</ele>
        <time>2017-04-22T10:39:19Z</time>
      </trkpt>
      <trkpt lat="43.08406" lon="2.58211">
        <ele>318.33</ele>
        <time>2017-04-22T10:39:34Z</time>
      </trkpt>
      <trkpt lat="43.0839" lon="2.58208">
        <ele>317.85</ele>
        <time>2017-04-22T10:39:48Z</time>
      </trkpt>
      <trkpt lat="43.08374" lon="2.58203">
        <ele>317.37</ele>
        <time>2017-04-22T10:40:02Z</time>
      </trkpt>
      <trkpt lat="43.08355" lon="2.58201">
        <ele>316.89</ele>
        <time>2017-04-22T10:40:19Z</time>
      </trkpt>
      <trkpt lat="43.08341" lon="2.58196">
        <ele>316.41</ele>
        <time>2017-04-22T10:40:33Z</time>
      </trkpt>
      <trkpt lat="43.08336" lon="2.58193">
        <ele>316.41</ele>
        <time>2017-04-22T10:42:05Z</time>
      </trkpt>
      <trkpt lat="43.08334" lon="2.58193">
        <ele>315.93</ele>
        <time>2017-04-22T10:42:09Z</time>
      </trkpt>
      <trkpt lat="43.08326" lon="2.58193">
        <ele>315.45</ele>
        <time>2017-04-22T10:42:20Z</time>
      </trkpt>
      <trkpt lat="43.08316" lon="2.58189">
        <ele>315.45</ele>
        <time>2017-04-22T10:42:33Z</time>
      </trkpt>
      <trkpt lat="43.08308" lon="2.58185">
        <ele>314.49</ele>
        <time>2017-04-22T10:42:42Z</time>
      </trkpt>
      <trkpt lat="43.08299" lon="2.58183">
        <ele>314.01</ele>
        <time>2017-04-22T10:42:50Z</time>
      </trkpt>
      <trkpt lat="43.08297" lon="2.58182">
        <ele>314.01</ele>
        <time>2017-04-22T10:42:52Z</time>
      </trkpt>
      <trkpt lat="43.08281" lon="2.58179">
        <ele>313.05</ele>
        <time>2017-04-22T10:43:07Z</time>
      </trkpt>
      <trkpt lat="43.08269" lon="2.58175">
        <ele>312.57</ele>
        <time>2017-04-22T10:43:20Z</time>
      </trkpt>
      <trkpt lat="43.08251" lon="2.5817">
        <ele>312.09</ele>
        <time>2017-04-22T10:43:37Z</time>
      </trkpt>
      <trkpt lat="43.08248" lon="2.5817">
        <ele>312.09</ele>
        <time>2017-04-22T10:43:54Z</time>
      </trkpt>
      <trkpt lat="43.08239" lon="2.58167">
        <ele>311.6</ele>
        <time>2017-04-22T10:44:06Z</time>
      </trkpt>
      <trkpt lat="43.08233" lon="2.58165">
        <ele>311.6</ele>
        <time>2017-04-22T10:44:11Z</time>
      </trkpt>
      <trkpt lat="43.08217" lon="2.58177">
        <ele>311.12</ele>
        <time>2017-04-22T10:44:28Z</time>
      </trkpt>
      <trkpt lat="43.08211" lon="2.58189">
        <ele>312.09</ele>
        <time>2017-04-22T10:44:38Z</time>
      </trkpt>
      <trkpt lat="43.08211" lon="2.58195">
        <ele>312.09</ele>
        <time>2017-04-22T10:44:42Z</time>
      </trkpt>
      <trkpt lat="43.0821" lon="2.58198">
        <ele>312.09</ele>
        <time>2017-04-22T10:44:44Z</time>
      </trkpt>
      <trkpt lat="43.0821" lon="2.58203">
        <ele>312.57</ele>
        <time>2017-04-22T10:44:47Z</time>
      </trkpt>
      <trkpt lat="43.08209" lon="2.58207">
        <ele>312.57</ele>
        <time>2017-04-22T10:44:50Z</time>
      </trkpt>
      <trkpt lat="43.0821" lon="2.5823">
        <ele>312.09</ele>
        <time>2017-04-22T10:45:05Z</time>
      </trkpt>
      <trkpt lat="43.08214" lon="2.58248">
        <ele>312.57</ele>
        <time>2017-04-22T10:45:17Z</time>
      </trkpt>
      <trkpt lat="43.08214" lon="2.5825">
        <ele>312.57</ele>
        <time>2017-04-22T10:45:18Z</time>
      </trkpt>
      <trkpt lat="43.0822" lon="2.58267">
        <ele>312.57</ele>
        <time>2017-04-22T10:45:32Z</time>
      </trkpt>
      <trkpt lat="43.08221" lon="2.5827">
        <ele>313.05</ele>
        <time>2017-04-22T10:45:34Z</time>
      </trkpt>
      <trkpt lat="43.08222" lon="2.58275">
        <ele>312.57</ele>
        <time>2017-04-22T10:45:37Z</time>
      </trkpt>
      <trkpt lat="43.08228" lon="2.58292">
        <ele>312.57</ele>
        <time>2017-04-22T10:45:51Z</time>
      </trkpt>
      <trkpt lat="43.08234" lon="2.58311">
        <ele>313.53</ele>
        <time>2017-04-22T10:46:03Z</time>
      </trkpt>
      <trkpt lat="43.0824" lon="2.58321">
        <ele>312.57</ele>
        <time>2017-04-22T10:46:10Z</time>
      </trkpt>
      <trkpt lat="43.08243" lon="2.5833">
        <ele>313.05</ele>
        <time>2017-04-22T10:46:15Z</time>
      </trkpt>
      <trkpt lat="43.08249" lon="2.58347">
        <ele>313.05</ele>
        <time>2017-04-22T10:46:27Z</time>
      </trkpt>
      <trkpt lat="43.0826" lon="2.5837">
        <ele>313.05</ele>
        <time>2017-04-22T10:46:43Z</time>
      </trkpt>
      <trkpt lat="43.08269" lon="2.58391">
        <ele>312.09</ele>
        <time>2017-04-22T10:46:57Z</time>
      </trkpt>
      <trkpt lat="43.08272" lon="2.58397">
        <ele>312.09</ele>
        <time>2017-04-22T10:47:02Z</time>
      </trkpt>
      <trkpt lat="43.08278" lon="2.58415">
        <ele>312.09</ele>
        <time>2017-04-22T10:47:15Z</time>
      </trkpt>
      <trkpt lat="43.08285" lon="2.58433">
        <ele>311.6</ele>
        <time>2017-04-22T10:47:29Z</time>
      </trkpt>
      <trkpt lat="43.0829" lon="2.58443">
        <ele>311.12</ele>
        <time>2017-04-22T10:47:35Z</time>
      </trkpt>
      <trkpt lat="43.08297" lon="2.58463">
        <ele>311.6</ele>
        <time>2017-04-22T10:47:49Z</time>
      </trkpt>
      <trkpt lat="43.08305" lon="2.58486">
        <ele>311.6</ele>
        <time>2017-04-22T10:48:03Z</time>
      </trkpt>
      <trkpt lat="43.08312" lon="2.58505">
        <ele>311.6</ele>
        <time>2017-04-22T10:48:16Z</time>
      </trkpt>
      <trkpt lat="43.08314" lon="2.5851">
        <ele>312.09</ele>
        <time>2017-04-22T10:48:19Z</time>
      </trkpt>
      <trkpt lat="43.08324" lon="2.58529">
        <ele>312.09</ele>
        <time>2017-04-22T10:48:33Z</time>
      </trkpt>
      <trkpt lat="43.08331" lon="2.58545">
        <ele>312.57</ele>
        <time>2017-04-22T10:48:44Z</time>
      </trkpt>
      <trkpt lat="43.08331" lon="2.5855">
        <ele>312.57</ele>
        <time>2017-04-22T10:48:47Z</time>
      </trkpt>
      <trkpt lat="43.08332" lon="2.58552">
        <ele>312.57</ele>
        <time>2017-04-22T10:48:49Z</time>
      </trkpt>
      <trkpt lat="43.08339" lon="2.58565">
        <ele>313.05</ele>
        <time>2017-04-22T10:49:00Z</time>
      </trkpt>
      <trkpt lat="43.08344" lon="2.58575">
        <ele>313.53</ele>
        <time>2017-04-22T10:49:07Z</time>
      </trkpt>
      <trkpt lat="43.08355" lon="2.58591">
        <ele>313.53</ele>
        <time>2017-04-22T10:49:21Z</time>
      </trkpt>
      <trkpt lat="43.08369" lon="2.58609">
        <ele>314.01</ele>
        <time>2017-04-22T10:49:36Z</time>
      </trkpt>
      <trkpt lat="43.0837" lon="2.58611">
        <ele>314.49</ele>
        <time>2017-04-22T10:49:38Z</time>
      </trkpt>
      <trkpt lat="43.0838" lon="2.5862">
        <ele>314.49</ele>
        <time>2017-04-22T10:49:48Z</time>
      </trkpt>
      <trkpt lat="43.08389" lon="2.58629">
        <ele>314.49</ele>
        <time>2017-04-22T10:49:58Z</time>
      </trkpt>
      <trkpt lat="43.08394" lon="2.58634">
        <ele>314.49</ele>
        <time>2017-04-22T10:50:02Z</time>
      </trkpt>
      <trkpt lat="43.08406" lon="2.58655">
        <ele>314.01</ele>
        <time>2017-04-22T10:50:18Z</time>
      </trkpt>
      <trkpt lat="43.08413" lon="2.58676">
        <ele>313.05</ele>
        <time>2017-04-22T10:50:32Z</time>
      </trkpt>
      <trkpt lat="43.08414" lon="2.58678">
        <ele>313.53</ele>
        <time>2017-04-22T10:50:34Z</time>
      </trkpt>
      <trkpt lat="43.08421" lon="2.58699">
        <ele>311.6</ele>
        <time>2017-04-22T10:50:48Z</time>
      </trkpt>
      <trkpt lat="43.08427" lon="2.58723">
        <ele>311.6</ele>
        <time>2017-04-22T10:51:03Z</time>
      </trkpt>
      <trkpt lat="43.08429" lon="2.5873">
        <ele>311.12</ele>
        <time>2017-04-22T10:51:08Z</time>
      </trkpt>
      <trkpt lat="43.08431" lon="2.58735">
        <ele>311.12</ele>
        <time>2017-04-22T10:51:11Z</time>
      </trkpt>
      <trkpt lat="43.08432" lon="2.58741">
        <ele>311.6</ele>
        <time>2017-04-22T10:51:15Z</time>
      </trkpt>
      <trkpt lat="43.08438" lon="2.58761">
        <ele>310.64</ele>
        <time>2017-04-22T10:51:28Z</time>
      </trkpt>
      <trkpt lat="43.08442" lon="2.58783">
        <ele>311.12</ele>
        <time>2017-04-22T10:51:42Z</time>
      </trkpt>
      <trkpt lat="43.08444" lon="2.58791">
        <ele>311.12</ele>
        <time>2017-04-22T10:51:47Z</time>
      </trkpt>
      <trkpt lat="43.0845" lon="2.58815">
        <ele>311.6</ele>
        <time>2017-04-22T10:52:03Z</time>
      </trkpt>
      <trkpt lat="43.08451" lon="2.58821">
        <ele>312.09</ele>
        <time>2017-04-22T10:52:07Z</time>
      </trkpt>
      <trkpt lat="43.08458" lon="2.5884">
        <ele>312.09</ele>
        <time>2017-04-22T10:52:20Z</time>
      </trkpt>
      <trkpt lat="43.08464" lon="2.58861">
        <ele>312.09</ele>
        <time>2017-04-22T10:52:34Z</time>
      </trkpt>
      <trkpt lat="43.08473" lon="2.58884">
        <ele>312.57</ele>
        <time>2017-04-22T10:52:50Z</time>
      </trkpt>
      <trkpt lat="43.0848" lon="2.58904">
        <ele>312.57</ele>
        <time>2017-04-22T10:53:04Z</time>
      </trkpt>
      <trkpt lat="43.08487" lon="2.58922">
        <ele>312.09</ele>
        <time>2017-04-22T10:53:16Z</time>
      </trkpt>
      <trkpt lat="43.08493" lon="2.58947">
        <ele>311.6</ele>
        <time>2017-04-22T10:53:32Z</time>
      </trkpt>
      <trkpt lat="43.08495" lon="2.58961">
        <ele>311.6</ele>
        <time>2017-04-22T10:53:41Z</time>
      </trkpt>
      <trkpt lat="43.08499" lon="2.5898">
        <ele>311.12</ele>
        <time>2017-04-22T10:53:53Z</time>
      </trkpt>
      <trkpt lat="43.08502" lon="2.59005">
        <ele>311.12</ele>
        <time>2017-04-22T10:54:08Z</time>
      </trkpt>
      <trkpt lat="43.08503" lon="2.59022">
        <ele>311.12</ele>
        <time>2017-04-22T10:54:18Z</time>
      </trkpt>
      <trkpt lat="43.08501" lon="2.59047">
        <ele>310.64</ele>
        <time>2017-04-22T10:54:33Z</time>
      </trkpt>
      <trkpt lat="43.08501" lon="2.59073">
        <ele>310.64</ele>
        <time>2017-04-22T10:54:49Z</time>
      </trkpt>
      <trkpt lat="43.08501" lon="2.59091">
        <ele>310.16</ele>
        <time>2017-04-22T10:55:00Z</time>
      </trkpt>
      <trkpt lat="43.08501" lon="2.59121">
        <ele>309.68</ele>
        <time>2017-04-22T10:55:18Z</time>
      </trkpt>
      <trkpt lat="43.08501" lon="2.59151">
        <ele>309.2</ele>
        <time>2017-04-22T10:55:37Z</time>
      </trkpt>
      <trkpt lat="43.08502" lon="2.59179">
        <ele>309.2</ele>
        <time>2017-04-22T10:55:54Z</time>
      </trkpt>
      <trkpt lat="43.08503" lon="2.59205">
        <ele>309.2</ele>
        <time>2017-04-22T10:56:10Z</time>
      </trkpt>
      <trkpt lat="43.08503" lon="2.59214">
        <ele>308.72</ele>
        <time>2017-04-22T10:56:15Z</time>
      </trkpt>
      <trkpt lat="43.08503" lon="2.59224">
        <ele>308.72</ele>
        <time>2017-04-22T10:56:21Z</time>
      </trkpt>
      <trkpt lat="43.08505" lon="2.59238">
        <ele>309.2</ele>
        <time>2017-04-22T10:56:29Z</time>
      </trkpt>
      <trkpt lat="43.08504" lon="2.59256">
        <ele>309.68</ele>
        <time>2017-04-22T10:56:41Z</time>
      </trkpt>
      <trkpt lat="43.08505" lon="2.59273">
        <ele>309.68</ele>
        <time>2017-04-22T10:56:51Z</time>
      </trkpt>
      <trkpt lat="43.08508" lon="2.59293">
        <ele>309.2</ele>
        <time>2017-04-22T10:57:03Z</time>
      </trkpt>
      <trkpt lat="43.08515" lon="2.59317">
        <ele>308.72</ele>
        <time>2017-04-22T10:57:19Z</time>
      </trkpt>
      <trkpt lat="43.08524" lon="2.59339">
        <ele>307.76</ele>
        <time>2017-04-22T10:57:35Z</time>
      </trkpt>
      <trkpt lat="43.0853" lon="2.59361">
        <ele>307.76</ele>
        <time>2017-04-22T10:57:49Z</time>
      </trkpt>
      <trkpt lat="43.08533" lon="2.59378">
        <ele>307.28</ele>
        <time>2017-04-22T10:58:00Z</time>
      </trkpt>
      <trkpt lat="43.08534" lon="2.59385">
        <ele>307.28</ele>
        <time>2017-04-22T10:58:04Z</time>
      </trkpt>
      <trkpt lat="43.08536" lon="2.5939">
        <ele>307.28</ele>
        <time>2017-04-22T10:58:07Z</time>
      </trkpt>
      <trkpt lat="43.08538" lon="2.59395">
        <ele>307.28</ele>
        <time>2017-04-22T10:58:11Z</time>
      </trkpt>
      <trkpt lat="43.08543" lon="2.59404">
        <ele>306.8</ele>
        <time>2017-04-22T10:58:18Z</time>
      </trkpt>
      <trkpt lat="43.08549" lon="2.59408">
        <ele>306.8</ele>
        <time>2017-04-22T10:58:27Z</time>
      </trkpt>
      <trkpt lat="43.08563" lon="2.59409">
        <ele>305.36</ele>
        <time>2017-04-22T10:58:42Z</time>
      </trkpt>
      <trkpt lat="43.08573" lon="2.5941">
        <ele>304.88</ele>
        <time>2017-04-22T10:58:51Z</time>
      </trkpt>
      <trkpt lat="43.08581" lon="2.59412">
        <ele>304.39</ele>
        <time>2017-04-22T10:58:57Z</time>
      </trkpt>
      <trkpt lat="43.08597" lon="2.59427">
        <ele>303.43</ele>
        <time>2017-04-22T10:59:13Z</time>
      </trkpt>
      <trkpt lat="43.08606" lon="2.59444">
        <ele>302.47</ele>
        <time>2017-04-22T10:59:26Z</time>
      </trkpt>
      <trkpt lat="43.08612" lon="2.59469">
        <ele>301.99</ele>
        <time>2017-04-22T10:59:43Z</time>
      </trkpt>
      <trkpt lat="43.0861" lon="2.59488">
        <ele>301.03</ele>
        <time>2017-04-22T10:59:55Z</time>
      </trkpt>
      <trkpt lat="43.08607" lon="2.59493">
        <ele>300.55</ele>
        <time>2017-04-22T10:59:58Z</time>
      </trkpt>
      <trkpt lat="43.08606" lon="2.59508">
        <ele>300.55</ele>
        <time>2017-04-22T11:00:07Z</time>
      </trkpt>
      <trkpt lat="43.08606" lon="2.59511">
        <ele>300.55</ele>
        <time>2017-04-22T11:00:09Z</time>
      </trkpt>
      <trkpt lat="43.08606" lon="2.59523">
        <ele>300.55</ele>
        <time>2017-04-22T11:00:16Z</time>
      </trkpt>
      <trkpt lat="43.08605" lon="2.59538">
        <ele>300.55</ele>
        <time>2017-04-22T11:00:25Z</time>
      </trkpt>
      <trkpt lat="43.08606" lon="2.59554">
        <ele>299.59</ele>
        <time>2017-04-22T11:00:35Z</time>
      </trkpt>
      <trkpt lat="43.08605" lon="2.59564">
        <ele>299.11</ele>
        <time>2017-04-22T11:00:42Z</time>
      </trkpt>
      <trkpt lat="43.08604" lon="2.59577">
        <ele>299.11</ele>
        <time>2017-04-22T11:00:49Z</time>
      </trkpt>
      <trkpt lat="43.08605" lon="2.59583">
        <ele>298.63</ele>
        <time>2017-04-22T11:00:53Z</time>
      </trkpt>
      <trkpt lat="43.08605" lon="2.59588">
        <ele>298.63</ele>
        <time>2017-04-22T11:00:56Z</time>
      </trkpt>
      <trkpt lat="43.08606" lon="2.59596">
        <ele>298.63</ele>
        <time>2017-04-22T11:01:00Z</time>
      </trkpt>
      <trkpt lat="43.08605" lon="2.596">
        <ele>298.15</ele>
        <time>2017-04-22T11:01:03Z</time>
      </trkpt>
      <trkpt lat="43.08605" lon="2.59603">
        <ele>298.15</ele>
        <time>2017-04-22T11:01:05Z</time>
      </trkpt>
      <trkpt lat="43.08604" lon="2.59618">
        <ele>297.67</ele>
        <time>2017-04-22T11:01:14Z</time>
      </trkpt>
      <trkpt lat="43.08604" lon="2.59633">
        <ele>297.67</ele>
        <time>2017-04-22T11:01:23Z</time>
      </trkpt>
      <trkpt lat="43.08605" lon="2.59662">
        <ele>296.22</ele>
        <time>2017-04-22T11:01:41Z</time>
      </trkpt>
      <trkpt lat="43.08607" lon="2.59678">
        <ele>295.26</ele>
        <time>2017-04-22T11:01:51Z</time>
      </trkpt>
      <trkpt lat="43.08608" lon="2.59695">
        <ele>294.3</ele>
        <time>2017-04-22T11:02:01Z</time>
      </trkpt>
      <trkpt lat="43.08611" lon="2.59716">
        <ele>293.34</ele>
        <time>2017-04-22T11:02:15Z</time>
      </trkpt>
      <trkpt lat="43.08611" lon="2.59736">
        <ele>292.86</ele>
        <time>2017-04-22T11:02:27Z</time>
      </trkpt>
      <trkpt lat="43.08609" lon="2.59751">
        <ele>292.38</ele>
        <time>2017-04-22T11:02:36Z</time>
      </trkpt>
      <trkpt lat="43.08608" lon="2.59771">
        <ele>291.42</ele>
        <time>2017-04-22T11:02:48Z</time>
      </trkpt>
      <trkpt lat="43.08606" lon="2.59774">
        <ele>291.42</ele>
        <time>2017-04-22T11:02:50Z</time>
      </trkpt>
      <trkpt lat="43.08607" lon="2.59782">
        <ele>290.94</ele>
        <time>2017-04-22T11:02:55Z</time>
      </trkpt>
      <trkpt lat="43.08608" lon="2.59801">
        <ele>289.97</ele>
        <time>2017-04-22T11:03:06Z</time>
      </trkpt>
      <trkpt lat="43.08613" lon="2.59817">
        <ele>289.49</ele>
        <time>2017-04-22T11:03:17Z</time>
      </trkpt>
      <trkpt lat="43.08613" lon="2.59822">
        <ele>289.01</ele>
        <time>2017-04-22T11:03:20Z</time>
      </trkpt>
      <trkpt lat="43.08617" lon="2.5983">
        <ele>289.01</ele>
        <time>2017-04-22T11:03:27Z</time>
      </trkpt>
      <trkpt lat="43.0862" lon="2.59834">
        <ele>289.01</ele>
        <time>2017-04-22T11:03:31Z</time>
      </trkpt>
      <trkpt lat="43.08636" lon="2.59849">
        <ele>287.57</ele>
        <time>2017-04-22T11:03:48Z</time>
      </trkpt>
      <trkpt lat="43.08641" lon="2.59855">
        <ele>287.09</ele>
        <time>2017-04-22T11:03:56Z</time>
      </trkpt>
      <trkpt lat="43.08646" lon="2.59863">
        <ele>286.61</ele>
        <time>2017-04-22T11:04:04Z</time>
      </trkpt>
      <trkpt lat="43.08653" lon="2.59888">
        <ele>285.17</ele>
        <time>2017-04-22T11:04:20Z</time>
      </trkpt>
      <trkpt lat="43.08653" lon="2.59893">
        <ele>285.17</ele>
        <time>2017-04-22T11:04:23Z</time>
      </trkpt>
      <trkpt lat="43.08654" lon="2.59918">
        <ele>283.73</ele>
        <time>2017-04-22T11:04:38Z</time>
      </trkpt>
      <trkpt lat="43.08654" lon="2.59919">
        <ele>283.73</ele>
        <time>2017-04-22T11:04:39Z</time>
      </trkpt>
      <trkpt lat="43.08659" lon="2.59945">
        <ele>283.25</ele>
        <time>2017-04-22T11:04:55Z</time>
      </trkpt>
      <trkpt lat="43.08664" lon="2.59967">
        <ele>281.8</ele>
        <time>2017-04-22T11:05:09Z</time>
      </trkpt>
      <trkpt lat="43.08669" lon="2.59989">
        <ele>281.32</ele>
        <time>2017-04-22T11:05:23Z</time>
      </trkpt>
      <trkpt lat="43.08671" lon="2.59992">
        <ele>280.84</ele>
        <time>2017-04-22T11:05:26Z</time>
      </trkpt>
      <trkpt lat="43.08677" lon="2.60012">
        <ele>279.4</ele>
        <time>2017-04-22T11:05:39Z</time>
      </trkpt>
      <trkpt lat="43.08678" lon="2.60015">
        <ele>278.92</ele>
        <time>2017-04-22T11:05:41Z</time>
      </trkpt>
      <trkpt lat="43.08685" lon="2.60032">
        <ele>278.44</ele>
        <time>2017-04-22T11:05:52Z</time>
      </trkpt>
      <trkpt lat="43.08694" lon="2.60055">
        <ele>277.48</ele>
        <time>2017-04-22T11:06:08Z</time>
      </trkpt>
      <trkpt lat="43.08699" lon="2.60071">
        <ele>276.52</ele>
        <time>2017-04-22T11:06:18Z</time>
      </trkpt>
      <trkpt lat="43.08702" lon="2.60091">
        <ele>275.56</ele>
        <time>2017-04-22T11:06:32Z</time>
      </trkpt>
      <trkpt lat="43.08704" lon="2.60113">
        <ele>274.11</ele>
        <time>2017-04-22T11:06:46Z</time>
      </trkpt>
      <trkpt lat="43.08705" lon="2.60116">
        <ele>274.11</ele>
        <time>2017-04-22T11:06:48Z</time>
      </trkpt>
      <trkpt lat="43.08704" lon="2.60123">
        <ele>273.63</ele>
        <time>2017-04-22T11:06:52Z</time>
      </trkpt>
      <trkpt lat="43.08703" lon="2.60147">
        <ele>272.67</ele>
        <time>2017-04-22T11:07:08Z</time>
      </trkpt>
      <trkpt lat="43.08703" lon="2.6017">
        <ele>271.71</ele>
        <time>2017-04-22T11:07:23Z</time>
      </trkpt>
      <trkpt lat="43.08704" lon="2.60189">
        <ele>270.75</ele>
        <time>2017-04-22T11:07:36Z</time>
      </trkpt>
      <trkpt lat="43.08701" lon="2.60213">
        <ele>270.27</ele>
        <time>2017-04-22T11:07:52Z</time>
      </trkpt>
      <trkpt lat="43.08699" lon="2.60237">
        <ele>269.31</ele>
        <time>2017-04-22T11:08:08Z</time>
      </trkpt>
      <trkpt lat="43.08697" lon="2.60249">
        <ele>268.35</ele>
        <time>2017-04-22T11:08:16Z</time>
      </trkpt>
      <trkpt lat="43.08697" lon="2.60256">
        <ele>267.86</ele>
        <time>2017-04-22T11:08:21Z</time>
      </trkpt>
      <trkpt lat="43.08694" lon="2.60263">
        <ele>267.38</ele>
        <time>2017-04-22T11:08:26Z</time>
      </trkpt>
      <trkpt lat="43.08691" lon="2.60285">
        <ele>266.42</ele>
        <time>2017-04-22T11:08:41Z</time>
      </trkpt>
      <trkpt lat="43.08689" lon="2.60297">
        <ele>265.46</ele>
        <time>2017-04-22T11:08:55Z</time>
      </trkpt>
      <trkpt lat="43.0869" lon="2.60297">
        <ele>265.46</ele>
        <time>2017-04-22T11:08:56Z</time>
      </trkpt>
      <trkpt lat="43.08688" lon="2.60311">
        <ele>264.5</ele>
        <time>2017-04-22T11:09:05Z</time>
      </trkpt>
      <trkpt lat="43.08686" lon="2.6032">
        <ele>264.5</ele>
        <time>2017-04-22T11:09:11Z</time>
      </trkpt>
      <trkpt lat="43.08682" lon="2.60342">
        <ele>262.58</ele>
        <time>2017-04-22T11:09:26Z</time>
      </trkpt>
      <trkpt lat="43.08679" lon="2.60366">
        <ele>261.62</ele>
        <time>2017-04-22T11:09:41Z</time>
      </trkpt>
      <trkpt lat="43.08678" lon="2.60389">
        <ele>261.14</ele>
        <time>2017-04-22T11:09:55Z</time>
      </trkpt>
      <trkpt lat="43.08677" lon="2.60404">
        <ele>260.17</ele>
        <time>2017-04-22T11:10:05Z</time>
      </trkpt>
      <trkpt lat="43.08676" lon="2.60411">
        <ele>260.17</ele>
        <time>2017-04-22T11:10:09Z</time>
      </trkpt>
      <trkpt lat="43.08675" lon="2.60426">
        <ele>259.69</ele>
        <time>2017-04-22T11:10:19Z</time>
      </trkpt>
      <trkpt lat="43.08674" lon="2.6045">
        <ele>258.25</ele>
        <time>2017-04-22T11:10:34Z</time>
      </trkpt>
      <trkpt lat="43.08673" lon="2.60459">
        <ele>258.25</ele>
        <time>2017-04-22T11:10:39Z</time>
      </trkpt>
      <trkpt lat="43.08672" lon="2.60463">
        <ele>257.77</ele>
        <time>2017-04-22T11:10:42Z</time>
      </trkpt>
      <trkpt lat="43.08673" lon="2.60473">
        <ele>257.29</ele>
        <time>2017-04-22T11:10:48Z</time>
      </trkpt>
      <trkpt lat="43.0867" lon="2.60484">
        <ele>256.33</ele>
        <time>2017-04-22T11:10:57Z</time>
      </trkpt>
      <trkpt lat="43.08662" lon="2.60484">
        <ele>255.37</ele>
        <time>2017-04-22T11:11:04Z</time>
      </trkpt>
      <trkpt lat="43.08661" lon="2.60477">
        <ele>255.37</ele>
        <time>2017-04-22T11:11:09Z</time>
      </trkpt>
      <trkpt lat="43.08662" lon="2.60474">
        <ele>254.89</ele>
        <time>2017-04-22T11:11:11Z</time>
      </trkpt>
      <trkpt lat="43.08662" lon="2.60451">
        <ele>253.93</ele>
        <time>2017-04-22T11:11:26Z</time>
      </trkpt>
      <trkpt lat="43.08661" lon="2.6043">
        <ele>253.44</ele>
        <time>2017-04-22T11:11:39Z</time>
      </trkpt>
      <trkpt lat="43.0866" lon="2.60425">
        <ele>252.96</ele>
        <time>2017-04-22T11:11:42Z</time>
      </trkpt>
      <trkpt lat="43.08658" lon="2.60409">
        <ele>252.48</ele>
        <time>2017-04-22T11:11:52Z</time>
      </trkpt>
      <trkpt lat="43.08657" lon="2.60407">
        <ele>252.48</ele>
        <time>2017-04-22T11:11:54Z</time>
      </trkpt>
      <trkpt lat="43.08653" lon="2.6039">
        <ele>252</ele>
        <time>2017-04-22T11:12:05Z</time>
      </trkpt>
      <trkpt lat="43.08648" lon="2.60372">
        <ele>251.04</ele>
        <time>2017-04-22T11:12:17Z</time>
      </trkpt>
      <trkpt lat="43.08649" lon="2.60344">
        <ele>249.6</ele>
        <time>2017-04-22T11:12:34Z</time>
      </trkpt>
      <trkpt lat="43.08647" lon="2.60321">
        <ele>248.64</ele>
        <time>2017-04-22T11:12:49Z</time>
      </trkpt>
      <trkpt lat="43.08641" lon="2.60298">
        <ele>247.68</ele>
        <time>2017-04-22T11:13:05Z</time>
      </trkpt>
      <trkpt lat="43.0864" lon="2.60283">
        <ele>246.72</ele>
        <time>2017-04-22T11:13:14Z</time>
      </trkpt>
      <trkpt lat="43.08639" lon="2.6028">
        <ele>246.23</ele>
        <time>2017-04-22T11:13:17Z</time>
      </trkpt>
      <trkpt lat="43.08637" lon="2.60267">
        <ele>246.23</ele>
        <time>2017-04-22T11:13:27Z</time>
      </trkpt>
      <trkpt lat="43.08634" lon="2.60258">
        <ele>245.75</ele>
        <time>2017-04-22T11:13:44Z</time>
      </trkpt>
      <trkpt lat="43.08635" lon="2.60259">
        <ele>245.75</ele>
        <time>2017-04-22T11:14:11Z</time>
      </trkpt>
      <trkpt lat="43.08635" lon="2.60258">
        <ele>246.72</ele>
        <time>2017-04-22T11:14:42Z</time>
      </trkpt>
      <trkpt lat="43.08636" lon="2.60257">
        <ele>246.23</ele>
        <time>2017-04-22T11:15:13Z</time>
      </trkpt>
      <trkpt lat="43.08636" lon="2.60257">
        <ele>246.23</ele>
        <time>2017-04-22T11:15:46Z</time>
      </trkpt>
      <trkpt lat="43.08635" lon="2.6026">
        <ele>246.23</ele>
        <time>2017-04-22T11:16:08Z</time>
      </trkpt>
      <trkpt lat="43.08637" lon="2.60258">
        <ele>246.23</ele>
        <time>2017-04-22T11:16:33Z</time>
      </trkpt>
      <trkpt lat="43.08634" lon="2.60247">
        <ele>246.72</ele>
        <time>2017-04-22T11:16:48Z</time>
      </trkpt>
      <trkpt lat="43.08631" lon="2.60236">
        <ele>245.75</ele>
        <time>2017-04-22T11:16:55Z</time>
      </trkpt>
      <trkpt lat="43.08629" lon="2.60219">
        <ele>244.79</ele>
        <time>2017-04-22T11:17:05Z</time>
      </trkpt>
      <trkpt lat="43.08628" lon="2.60216">
        <ele>245.27</ele>
        <time>2017-04-22T11:17:07Z</time>
      </trkpt>
      <trkpt lat="43.08628" lon="2.6021">
        <ele>244.79</ele>
        <time>2017-04-22T11:17:11Z</time>
      </trkpt>
      <trkpt lat="43.08627" lon="2.602">
        <ele>243.83</ele>
        <time>2017-04-22T11:17:17Z</time>
      </trkpt>
      <trkpt lat="43.08625" lon="2.60194">
        <ele>244.31</ele>
        <time>2017-04-22T11:17:21Z</time>
      </trkpt>
      <trkpt lat="43.08619" lon="2.60171">
        <ele>243.35</ele>
        <time>2017-04-22T11:17:36Z</time>
      </trkpt>
      <trkpt lat="43.08619" lon="2.6017">
        <ele>242.87</ele>
        <time>2017-04-22T11:17:37Z</time>
      </trkpt>
      <trkpt lat="43.08617" lon="2.60166">
        <ele>242.87</ele>
        <time>2017-04-22T11:17:40Z</time>
      </trkpt>
      <trkpt lat="43.08613" lon="2.60159">
        <ele>242.87</ele>
        <time>2017-04-22T11:17:45Z</time>
      </trkpt>
      <trkpt lat="43.0861" lon="2.60153">
        <ele>242.39</ele>
        <time>2017-04-22T11:17:50Z</time>
      </trkpt>
      <trkpt lat="43.08599" lon="2.60131">
        <ele>241.43</ele>
        <time>2017-04-22T11:18:06Z</time>
      </trkpt>
      <trkpt lat="43.08597" lon="2.60127">
        <ele>241.43</ele>
        <time>2017-04-22T11:18:09Z</time>
      </trkpt>
      <trkpt lat="43.08584" lon="2.60112">
        <ele>241.43</ele>
        <time>2017-04-22T11:18:23Z</time>
      </trkpt>
      <trkpt lat="43.08581" lon="2.60114">
        <ele>240.95</ele>
        <time>2017-04-22T11:18:27Z</time>
      </trkpt>
      <trkpt lat="43.08581" lon="2.60124">
        <ele>239.51</ele>
        <time>2017-04-22T11:18:33Z</time>
      </trkpt>
      <trkpt lat="43.08581" lon="2.60127">
        <ele>239.99</ele>
        <time>2017-04-22T11:18:35Z</time>
      </trkpt>
      <trkpt lat="43.08587" lon="2.60138">
        <ele>239.02</ele>
        <time>2017-04-22T11:18:45Z</time>
      </trkpt>
      <trkpt lat="43.08589" lon="2.60143">
        <ele>238.54</ele>
        <time>2017-04-22T11:18:49Z</time>
      </trkpt>
      <trkpt lat="43.08592" lon="2.60153">
        <ele>238.06</ele>
        <time>2017-04-22T11:18:56Z</time>
      </trkpt>
      <trkpt lat="43.08593" lon="2.6016">
        <ele>237.58</ele>
        <time>2017-04-22T11:19:01Z</time>
      </trkpt>
      <trkpt lat="43.08594" lon="2.60168">
        <ele>237.1</ele>
        <time>2017-04-22T11:19:06Z</time>
      </trkpt>
      <trkpt lat="43.08596" lon="2.60176">
        <ele>236.62</ele>
        <time>2017-04-22T11:19:11Z</time>
      </trkpt>
      <trkpt lat="43.08597" lon="2.60182">
        <ele>236.14</ele>
        <time>2017-04-22T11:19:15Z</time>
      </trkpt>
      <trkpt lat="43.08596" lon="2.60212">
        <ele>234.7</ele>
        <time>2017-04-22T11:19:32Z</time>
      </trkpt>
      <trkpt lat="43.08597" lon="2.60218">
        <ele>234.22</ele>
        <time>2017-04-22T11:19:36Z</time>
      </trkpt>
      <trkpt lat="43.08593" lon="2.60246">
        <ele>231.81</ele>
        <time>2017-04-22T11:19:54Z</time>
      </trkpt>
      <trkpt lat="43.08593" lon="2.60248">
        <ele>232.3</ele>
        <time>2017-04-22T11:19:55Z</time>
      </trkpt>
      <trkpt lat="43.08582" lon="2.60268">
        <ele>230.85</ele>
        <time>2017-04-22T11:20:11Z</time>
      </trkpt>
      <trkpt lat="43.08572" lon="2.60292">
        <ele>228.45</ele>
        <time>2017-04-22T11:20:28Z</time>
      </trkpt>
      <trkpt lat="43.0857" lon="2.60299">
        <ele>227.49</ele>
        <time>2017-04-22T11:20:34Z</time>
      </trkpt>
      <trkpt lat="43.08567" lon="2.60307">
        <ele>226.53</ele>
        <time>2017-04-22T11:20:40Z</time>
      </trkpt>
      <trkpt lat="43.08563" lon="2.60323">
        <ele>225.57</ele>
        <time>2017-04-22T11:20:51Z</time>
      </trkpt>
      <trkpt lat="43.08561" lon="2.60332">
        <ele>224.61</ele>
        <time>2017-04-22T11:20:57Z</time>
      </trkpt>
      <trkpt lat="43.08556" lon="2.60358">
        <ele>222.68</ele>
        <time>2017-04-22T11:21:15Z</time>
      </trkpt>
      <trkpt lat="43.08547" lon="2.60385">
        <ele>220.76</ele>
        <time>2017-04-22T11:21:33Z</time>
      </trkpt>
      <trkpt lat="43.08546" lon="2.60391">
        <ele>219.32</ele>
        <time>2017-04-22T11:21:37Z</time>
      </trkpt>
      <trkpt lat="43.08541" lon="2.60419">
        <ele>218.36</ele>
        <time>2017-04-22T11:21:56Z</time>
      </trkpt>
      <trkpt lat="43.0854" lon="2.60426">
        <ele>218.36</ele>
        <time>2017-04-22T11:22:00Z</time>
      </trkpt>
      <trkpt lat="43.08539" lon="2.60451">
        <ele>216.91</ele>
        <time>2017-04-22T11:22:16Z</time>
      </trkpt>
      <trkpt lat="43.08539" lon="2.60478">
        <ele>214.99</ele>
        <time>2017-04-22T11:22:33Z</time>
      </trkpt>
      <trkpt lat="43.0854" lon="2.6049">
        <ele>214.03</ele>
        <time>2017-04-22T11:22:41Z</time>
      </trkpt>
      <trkpt lat="43.0854" lon="2.60494">
        <ele>213.55</ele>
        <time>2017-04-22T11:22:44Z</time>
      </trkpt>
      <trkpt lat="43.08538" lon="2.60521">
        <ele>212.11</ele>
        <time>2017-04-22T11:23:01Z</time>
      </trkpt>
      <trkpt lat="43.08537" lon="2.60523">
        <ele>212.11</ele>
        <time>2017-04-22T11:23:02Z</time>
      </trkpt>
      <trkpt lat="43.08537" lon="2.60529">
        <ele>211.63</ele>
        <time>2017-04-22T11:23:06Z</time>
      </trkpt>
      <trkpt lat="43.08535" lon="2.60545">
        <ele>210.19</ele>
        <time>2017-04-22T11:23:17Z</time>
      </trkpt>
      <trkpt lat="43.08531" lon="2.60571">
        <ele>209.22</ele>
        <time>2017-04-22T11:23:32Z</time>
      </trkpt>
      <trkpt lat="43.08531" lon="2.60574">
        <ele>209.22</ele>
        <time>2017-04-22T11:23:34Z</time>
      </trkpt>
      <trkpt lat="43.08531" lon="2.606">
        <ele>206.82</ele>
        <time>2017-04-22T11:23:51Z</time>
      </trkpt>
      <trkpt lat="43.0853" lon="2.60624">
        <ele>205.86</ele>
        <time>2017-04-22T11:24:07Z</time>
      </trkpt>
      <trkpt lat="43.08534" lon="2.60648">
        <ele>205.38</ele>
        <time>2017-04-22T11:24:23Z</time>
      </trkpt>
      <trkpt lat="43.08536" lon="2.6066">
        <ele>204.9</ele>
        <time>2017-04-22T11:24:31Z</time>
      </trkpt>
      <trkpt lat="43.08539" lon="2.60682">
        <ele>203.94</ele>
        <time>2017-04-22T11:24:45Z</time>
      </trkpt>
      <trkpt lat="43.0854" lon="2.60694">
        <ele>203.94</ele>
        <time>2017-04-22T11:24:53Z</time>
      </trkpt>
      <trkpt lat="43.08536" lon="2.60723">
        <ele>203.94</ele>
        <time>2017-04-22T11:25:11Z</time>
      </trkpt>
      <trkpt lat="43.08535" lon="2.60746">
        <ele>202.98</ele>
        <time>2017-04-22T11:25:27Z</time>
      </trkpt>
      <trkpt lat="43.08535" lon="2.60773">
        <ele>202.98</ele>
        <time>2017-04-22T11:25:43Z</time>
      </trkpt>
      <trkpt lat="43.08534" lon="2.60786">
        <ele>202.98</ele>
        <time>2017-04-22T11:25:51Z</time>
      </trkpt>
      <trkpt lat="43.08531" lon="2.60809">
        <ele>202.49</ele>
        <time>2017-04-22T11:26:06Z</time>
      </trkpt>
      <trkpt lat="43.08525" lon="2.60831">
        <ele>202.01</ele>
        <time>2017-04-22T11:26:21Z</time>
      </trkpt>
      <trkpt lat="43.08521" lon="2.60849">
        <ele>201.53</ele>
        <time>2017-04-22T11:26:33Z</time>
      </trkpt>
      <trkpt lat="43.0852" lon="2.60875">
        <ele>200.57</ele>
        <time>2017-04-22T11:26:50Z</time>
      </trkpt>
      <trkpt lat="43.08518" lon="2.60896">
        <ele>198.65</ele>
        <time>2017-04-22T11:27:04Z</time>
      </trkpt>
      <trkpt lat="43.08516" lon="2.60907">
        <ele>197.69</ele>
        <time>2017-04-22T11:27:11Z</time>
      </trkpt>
      <trkpt lat="43.08517" lon="2.60925">
        <ele>196.73</ele>
        <time>2017-04-22T11:27:22Z</time>
      </trkpt>
      <trkpt lat="43.08513" lon="2.60946">
        <ele>195.28</ele>
        <time>2017-04-22T11:27:36Z</time>
      </trkpt>
      <trkpt lat="43.08512" lon="2.60953">
        <ele>193.84</ele>
        <time>2017-04-22T11:27:41Z</time>
      </trkpt>
      <trkpt lat="43.08508" lon="2.60982">
        <ele>192.4</ele>
        <time>2017-04-22T11:28:01Z</time>
      </trkpt>
      <trkpt lat="43.08499" lon="2.61013">
        <ele>190</ele>
        <time>2017-04-22T11:28:21Z</time>
      </trkpt>
      <trkpt lat="43.08494" lon="2.6104">
        <ele>188.08</ele>
        <time>2017-04-22T11:28:40Z</time>
      </trkpt>
      <trkpt lat="43.08499" lon="2.61061">
        <ele>185.67</ele>
        <time>2017-04-22T11:28:54Z</time>
      </trkpt>
      <trkpt lat="43.08505" lon="2.61073">
        <ele>184.71</ele>
        <time>2017-04-22T11:29:04Z</time>
      </trkpt>
      <trkpt lat="43.08512" lon="2.61088">
        <ele>182.79</ele>
        <time>2017-04-22T11:29:16Z</time>
      </trkpt>
      <trkpt lat="43.08525" lon="2.61103">
        <ele>181.35</ele>
        <time>2017-04-22T11:29:32Z</time>
      </trkpt>
      <trkpt lat="43.08532" lon="2.61106">
        <ele>181.35</ele>
        <time>2017-04-22T11:29:40Z</time>
      </trkpt>
      <trkpt lat="43.08537" lon="2.61109">
        <ele>180.87</ele>
        <time>2017-04-22T11:29:44Z</time>
      </trkpt>
      <trkpt lat="43.08554" lon="2.61125">
        <ele>179.42</ele>
        <time>2017-04-22T11:30:01Z</time>
      </trkpt>
      <trkpt lat="43.08555" lon="2.61126">
        <ele>179.42</ele>
        <time>2017-04-22T11:30:02Z</time>
      </trkpt>
      <trkpt lat="43.08557" lon="2.6113">
        <ele>178.94</ele>
        <time>2017-04-22T11:30:05Z</time>
      </trkpt>
      <trkpt lat="43.08565" lon="2.61138">
        <ele>178.46</ele>
        <time>2017-04-22T11:30:14Z</time>
      </trkpt>
      <trkpt lat="43.0858" lon="2.61154">
        <ele>177.5</ele>
        <time>2017-04-22T11:30:31Z</time>
      </trkpt>
      <trkpt lat="43.08592" lon="2.61171">
        <ele>176.06</ele>
        <time>2017-04-22T11:30:46Z</time>
      </trkpt>
      <trkpt lat="43.08596" lon="2.61179">
        <ele>175.58</ele>
        <time>2017-04-22T11:30:52Z</time>
      </trkpt>
      <trkpt lat="43.08605" lon="2.61192">
        <ele>174.14</ele>
        <time>2017-04-22T11:31:05Z</time>
      </trkpt>
      <trkpt lat="43.08608" lon="2.61195">
        <ele>173.66</ele>
        <time>2017-04-22T11:31:08Z</time>
      </trkpt>
      <trkpt lat="43.08624" lon="2.61208">
        <ele>171.73</ele>
        <time>2017-04-22T11:31:25Z</time>
      </trkpt>
      <trkpt lat="43.08635" lon="2.61219">
        <ele>170.77</ele>
        <time>2017-04-22T11:31:38Z</time>
      </trkpt>
      <trkpt lat="43.08647" lon="2.6123">
        <ele>169.81</ele>
        <time>2017-04-22T11:31:51Z</time>
      </trkpt>
      <trkpt lat="43.08661" lon="2.6124">
        <ele>168.85</ele>
        <time>2017-04-22T11:32:05Z</time>
      </trkpt>
      <trkpt lat="43.08675" lon="2.61253">
        <ele>166.93</ele>
        <time>2017-04-22T11:32:19Z</time>
      </trkpt>
      <trkpt lat="43.08685" lon="2.61267">
        <ele>164.52</ele>
        <time>2017-04-22T11:32:33Z</time>
      </trkpt>
      <trkpt lat="43.08699" lon="2.61285">
        <ele>162.12</ele>
        <time>2017-04-22T11:32:50Z</time>
      </trkpt>
      <trkpt lat="43.08714" lon="2.61304">
        <ele>159.72</ele>
        <time>2017-04-22T11:33:07Z</time>
      </trkpt>
      <trkpt lat="43.0872" lon="2.61314">
        <ele>157.79</ele>
        <time>2017-04-22T11:33:15Z</time>
      </trkpt>
      <trkpt lat="43.08722" lon="2.61317">
        <ele>157.79</ele>
        <time>2017-04-22T11:33:18Z</time>
      </trkpt>
      <trkpt lat="43.08734" lon="2.61336">
        <ele>155.39</ele>
        <time>2017-04-22T11:33:34Z</time>
      </trkpt>
      <trkpt lat="43.08746" lon="2.61357">
        <ele>152.99</ele>
        <time>2017-04-22T11:33:51Z</time>
      </trkpt>
      <trkpt lat="43.08758" lon="2.61377">
        <ele>150.58</ele>
        <time>2017-04-22T11:34:07Z</time>
      </trkpt>
      <trkpt lat="43.08763" lon="2.61384">
        <ele>150.1</ele>
        <time>2017-04-22T11:34:14Z</time>
      </trkpt>
      <trkpt lat="43.08778" lon="2.61404">
        <ele>148.18</ele>
        <time>2017-04-22T11:34:31Z</time>
      </trkpt>
      <trkpt lat="43.08788" lon="2.61424">
        <ele>146.26</ele>
        <time>2017-04-22T11:34:47Z</time>
      </trkpt>
      <trkpt lat="43.08793" lon="2.61432">
        <ele>145.78</ele>
        <time>2017-04-22T11:34:54Z</time>
      </trkpt>
      <trkpt lat="43.08803" lon="2.61451">
        <ele>144.34</ele>
        <time>2017-04-22T11:35:10Z</time>
      </trkpt>
      <trkpt lat="43.08815" lon="2.6147">
        <ele>142.89</ele>
        <time>2017-04-22T11:35:26Z</time>
      </trkpt>
      <trkpt lat="43.08828" lon="2.61486">
        <ele>141.93</ele>
        <time>2017-04-22T11:35:42Z</time>
      </trkpt>
      <trkpt lat="43.08829" lon="2.61487">
        <ele>141.93</ele>
        <time>2017-04-22T11:35:43Z</time>
      </trkpt>
      <trkpt lat="43.08844" lon="2.61503">
        <ele>140.49</ele>
        <time>2017-04-22T11:35:59Z</time>
      </trkpt>
      <trkpt lat="43.08855" lon="2.61514">
        <ele>140.01</ele>
        <time>2017-04-22T11:36:10Z</time>
      </trkpt>
      <trkpt lat="43.08873" lon="2.61522">
        <ele>138.57</ele>
        <time>2017-04-22T11:36:27Z</time>
      </trkpt>
      <trkpt lat="43.08892" lon="2.61527">
        <ele>137.61</ele>
        <time>2017-04-22T11:36:45Z</time>
      </trkpt>
      <trkpt lat="43.08907" lon="2.61533">
        <ele>137.13</ele>
        <time>2017-04-22T11:37:01Z</time>
      </trkpt>
      <trkpt lat="43.08925" lon="2.6154">
        <ele>136.16</ele>
        <time>2017-04-22T11:37:17Z</time>
      </trkpt>
      <trkpt lat="43.0894" lon="2.61546">
        <ele>135.68</ele>
        <time>2017-04-22T11:37:30Z</time>
      </trkpt>
      <trkpt lat="43.08957" lon="2.61557">
        <ele>134.72</ele>
        <time>2017-04-22T11:37:47Z</time>
      </trkpt>
      <trkpt lat="43.08965" lon="2.61561">
        <ele>134.24</ele>
        <time>2017-04-22T11:37:55Z</time>
      </trkpt>
      <trkpt lat="43.08969" lon="2.61563">
        <ele>133.76</ele>
        <time>2017-04-22T11:37:59Z</time>
      </trkpt>
      <trkpt lat="43.08971" lon="2.61564">
        <ele>134.24</ele>
        <time>2017-04-22T11:38:01Z</time>
      </trkpt>
      <trkpt lat="43.08983" lon="2.6157">
        <ele>133.76</ele>
        <time>2017-04-22T11:38:12Z</time>
      </trkpt>
      <trkpt lat="43.08999" lon="2.61581">
        <ele>133.76</ele>
        <time>2017-04-22T11:38:26Z</time>
      </trkpt>
      <trkpt lat="43.09006" lon="2.61585">
        <ele>133.28</ele>
        <time>2017-04-22T11:38:33Z</time>
      </trkpt>
      <trkpt lat="43.09023" lon="2.61593">
        <ele>133.28</ele>
        <time>2017-04-22T11:38:49Z</time>
      </trkpt>
      <trkpt lat="43.09041" lon="2.61608">
        <ele>131.84</ele>
        <time>2017-04-22T11:39:07Z</time>
      </trkpt>
      <trkpt lat="43.09051" lon="2.61614">
        <ele>131.36</ele>
        <time>2017-04-22T11:39:16Z</time>
      </trkpt>
      <trkpt lat="43.09067" lon="2.61625">
        <ele>130.4</ele>
        <time>2017-04-22T11:39:33Z</time>
      </trkpt>
      <trkpt lat="43.0907" lon="2.61629">
        <ele>130.4</ele>
        <time>2017-04-22T11:39:36Z</time>
      </trkpt>
      <trkpt lat="43.09084" lon="2.61639">
        <ele>129.92</ele>
        <time>2017-04-22T11:39:49Z</time>
      </trkpt>
      <trkpt lat="43.09098" lon="2.61649">
        <ele>129.43</ele>
        <time>2017-04-22T11:40:05Z</time>
      </trkpt>
      <trkpt lat="43.09101" lon="2.61657">
        <ele>129.43</ele>
        <time>2017-04-22T11:40:11Z</time>
      </trkpt>
      <trkpt lat="43.09101" lon="2.61672">
        <ele>128.95</ele>
        <time>2017-04-22T11:40:26Z</time>
      </trkpt>
      <trkpt lat="43.091" lon="2.61676">
        <ele>129.43</ele>
        <time>2017-04-22T11:40:49Z</time>
      </trkpt>
      <trkpt lat="43.09099" lon="2.61676">
        <ele>129.43</ele>
        <time>2017-04-22T11:40:54Z</time>
      </trkpt>
      <trkpt lat="43.09097" lon="2.61677">
        <ele>129.43</ele>
        <time>2017-04-22T11:40:57Z</time>
      </trkpt>
      <trkpt lat="43.09095" lon="2.61677">
        <ele>128.95</ele>
        <time>2017-04-22T11:41:10Z</time>
      </trkpt>
      <trkpt lat="43.09099" lon="2.61674">
        <ele>129.43</ele>
        <time>2017-04-22T11:41:32Z</time>
      </trkpt>
      <trkpt lat="43.09103" lon="2.61682">
        <ele>129.43</ele>
        <time>2017-04-22T11:41:55Z</time>
      </trkpt>
      <trkpt lat="43.09106" lon="2.61676">
        <ele>129.43</ele>
        <time>2017-04-22T11:42:08Z</time>
      </trkpt>
      <trkpt lat="43.09106" lon="2.61674">
        <ele>129.43</ele>
        <time>2017-04-22T11:42:10Z</time>
      </trkpt>
      <trkpt lat="43.0911" lon="2.61679">
        <ele>129.43</ele>
        <time>2017-04-22T11:42:19Z</time>
      </trkpt>
      <trkpt lat="43.09111" lon="2.61689">
        <ele>129.43</ele>
        <time>2017-04-22T11:42:28Z</time>
      </trkpt>
      <trkpt lat="43.09117" lon="2.61708">
        <ele>128.95</ele>
        <time>2017-04-22T11:42:47Z</time>
      </trkpt>
      <trkpt lat="43.09115" lon="2.6171">
        <ele>128.95</ele>
        <time>2017-04-22T11:43:02Z</time>
      </trkpt>
      <trkpt lat="43.09119" lon="2.61718">
        <ele>128.95</ele>
        <time>2017-04-22T11:43:21Z</time>
      </trkpt>
      <trkpt lat="43.0912" lon="2.61718">
        <ele>128.47</ele>
        <time>2017-04-22T11:43:23Z</time>
      </trkpt>
      <trkpt lat="43.09123" lon="2.61719">
        <ele>128.47</ele>
        <time>2017-04-22T11:43:27Z</time>
      </trkpt>
      <trkpt lat="43.0911" lon="2.61736">
        <ele>127.51</ele>
        <time>2017-04-22T11:43:44Z</time>
      </trkpt>
      <trkpt lat="43.09104" lon="2.6175">
        <ele>127.03</ele>
        <time>2017-04-22T11:43:55Z</time>
      </trkpt>
      <trkpt lat="43.09088" lon="2.61756">
        <ele>126.55</ele>
        <time>2017-04-22T11:44:10Z</time>
      </trkpt>
      <trkpt lat="43.09071" lon="2.61762">
        <ele>126.07</ele>
        <time>2017-04-22T11:44:26Z</time>
      </trkpt>
      <trkpt lat="43.09058" lon="2.61765">
        <ele>126.07</ele>
        <time>2017-04-22T11:44:40Z</time>
      </trkpt>
      <trkpt lat="43.09056" lon="2.61765">
        <ele>126.07</ele>
        <time>2017-04-22T11:44:42Z</time>
      </trkpt>
      <trkpt lat="43.09049" lon="2.61769">
        <ele>125.59</ele>
        <time>2017-04-22T11:44:50Z</time>
      </trkpt>
      <trkpt lat="43.09044" lon="2.61772">
        <ele>125.59</ele>
        <time>2017-04-22T11:44:54Z</time>
      </trkpt>
      <trkpt lat="43.09025" lon="2.61779">
        <ele>126.07</ele>
        <time>2017-04-22T11:45:11Z</time>
      </trkpt>
      <trkpt lat="43.09008" lon="2.61785">
        <ele>126.55</ele>
        <time>2017-04-22T11:45:27Z</time>
      </trkpt>
      <trkpt lat="43.0899" lon="2.6179">
        <ele>126.55</ele>
        <time>2017-04-22T11:45:43Z</time>
      </trkpt>
      <trkpt lat="43.08989" lon="2.6179">
        <ele>126.55</ele>
        <time>2017-04-22T11:45:44Z</time>
      </trkpt>
      <trkpt lat="43.0897" lon="2.61791">
        <ele>126.07</ele>
        <time>2017-04-22T11:46:01Z</time>
      </trkpt>
      <trkpt lat="43.08952" lon="2.61791">
        <ele>126.07</ele>
        <time>2017-04-22T11:46:18Z</time>
      </trkpt>
      <trkpt lat="43.0895" lon="2.61802">
        <ele>125.11</ele>
        <time>2017-04-22T11:46:27Z</time>
      </trkpt>
      <trkpt lat="43.08947" lon="2.6182">
        <ele>123.19</ele>
        <time>2017-04-22T11:46:42Z</time>
      </trkpt>
      <trkpt lat="43.08946" lon="2.61826">
        <ele>122.71</ele>
        <time>2017-04-22T11:46:46Z</time>
      </trkpt>
      <trkpt lat="43.08946" lon="2.61848">
        <ele>122.71</ele>
        <time>2017-04-22T11:47:01Z</time>
      </trkpt>
      <trkpt lat="43.08937" lon="2.61864">
        <ele>122.71</ele>
        <time>2017-04-22T11:47:15Z</time>
      </trkpt>
      <trkpt lat="43.08932" lon="2.61867">
        <ele>123.19</ele>
        <time>2017-04-22T11:47:29Z</time>
      </trkpt>
      <trkpt lat="43.08931" lon="2.61869">
        <ele>123.19</ele>
        <time>2017-04-22T11:47:44Z</time>
      </trkpt>
      <trkpt lat="43.08924" lon="2.61863">
        <ele>120.78</ele>
        <time>2017-04-22T12:46:39Z</time>
      </trkpt>
      <trkpt lat="43.08926" lon="2.61862">
        <ele>120.78</ele>
        <time>2017-04-22T12:46:57Z</time>
      </trkpt>
      <trkpt lat="43.08928" lon="2.61862">
        <ele>121.26</ele>
        <time>2017-04-22T12:47:20Z</time>
      </trkpt>
      <trkpt lat="43.08927" lon="2.6186">
        <ele>121.26</ele>
        <time>2017-04-22T12:47:48Z</time>
      </trkpt>
      <trkpt lat="43.08931" lon="2.61857">
        <ele>120.78</ele>
        <time>2017-04-22T12:48:05Z</time>
      </trkpt>
      <trkpt lat="43.08934" lon="2.61856">
        <ele>120.78</ele>
        <time>2017-04-22T12:48:20Z</time>
      </trkpt>
      <trkpt lat="43.08938" lon="2.6186">
        <ele>120.78</ele>
        <time>2017-04-22T12:48:26Z</time>
      </trkpt>
      <trkpt lat="43.08942" lon="2.6186">
        <ele>120.78</ele>
        <time>2017-04-22T12:48:31Z</time>
      </trkpt>
      <trkpt lat="43.08948" lon="2.61864">
        <ele>121.26</ele>
        <time>2017-04-22T12:48:45Z</time>
      </trkpt>
      <trkpt lat="43.08954" lon="2.61866">
        <ele>121.26</ele>
        <time>2017-04-22T12:48:58Z</time>
      </trkpt>
      <trkpt lat="43.08965" lon="2.61867">
        <ele>122.22</ele>
        <time>2017-04-22T12:49:10Z</time>
      </trkpt>
      <trkpt lat="43.08975" lon="2.61868">
        <ele>121.26</ele>
        <time>2017-04-22T12:49:28Z</time>
      </trkpt>
      <trkpt lat="43.08985" lon="2.61865">
        <ele>121.26</ele>
        <time>2017-04-22T12:49:39Z</time>
      </trkpt>
      <trkpt lat="43.09002" lon="2.61861">
        <ele>121.26</ele>
        <time>2017-04-22T12:49:55Z</time>
      </trkpt>
      <trkpt lat="43.09005" lon="2.61861">
        <ele>121.74</ele>
        <time>2017-04-22T12:49:57Z</time>
      </trkpt>
      <trkpt lat="43.09013" lon="2.61858">
        <ele>123.19</ele>
        <time>2017-04-22T12:50:07Z</time>
      </trkpt>
      <trkpt lat="43.09017" lon="2.61859">
        <ele>123.19</ele>
        <time>2017-04-22T12:50:11Z</time>
      </trkpt>
      <trkpt lat="43.09025" lon="2.61861">
        <ele>123.67</ele>
        <time>2017-04-22T12:50:21Z</time>
      </trkpt>
      <trkpt lat="43.09028" lon="2.61856">
        <ele>123.67</ele>
        <time>2017-04-22T12:50:28Z</time>
      </trkpt>
      <trkpt lat="43.09034" lon="2.61854">
        <ele>123.67</ele>
        <time>2017-04-22T12:50:33Z</time>
      </trkpt>
      <trkpt lat="43.09049" lon="2.61855">
        <ele>124.63</ele>
        <time>2017-04-22T12:50:49Z</time>
      </trkpt>
      <trkpt lat="43.0906" lon="2.61861">
        <ele>125.11</ele>
        <time>2017-04-22T12:51:02Z</time>
      </trkpt>
      <trkpt lat="43.09062" lon="2.61868">
        <ele>125.59</ele>
        <time>2017-04-22T12:51:22Z</time>
      </trkpt>
      <trkpt lat="43.09057" lon="2.61879">
        <ele>126.55</ele>
        <time>2017-04-22T12:51:34Z</time>
      </trkpt>
      <trkpt lat="43.09052" lon="2.61895">
        <ele>127.51</ele>
        <time>2017-04-22T12:51:46Z</time>
      </trkpt>
      <trkpt lat="43.09051" lon="2.61901">
        <ele>127.51</ele>
        <time>2017-04-22T12:51:50Z</time>
      </trkpt>
      <trkpt lat="43.09051" lon="2.61903">
        <ele>127.99</ele>
        <time>2017-04-22T12:51:52Z</time>
      </trkpt>
      <trkpt lat="43.09047" lon="2.61922">
        <ele>128.47</ele>
        <time>2017-04-22T12:52:07Z</time>
      </trkpt>
      <trkpt lat="43.09047" lon="2.61929">
        <ele>128.95</ele>
        <time>2017-04-22T12:52:18Z</time>
      </trkpt>
      <trkpt lat="43.09045" lon="2.61936">
        <ele>128.47</ele>
        <time>2017-04-22T12:52:23Z</time>
      </trkpt>
      <trkpt lat="43.09038" lon="2.61939">
        <ele>128.47</ele>
        <time>2017-04-22T12:52:28Z</time>
      </trkpt>
      <trkpt lat="43.09041" lon="2.61944">
        <ele>128.47</ele>
        <time>2017-04-22T12:52:35Z</time>
      </trkpt>
      <trkpt lat="43.09044" lon="2.61949">
        <ele>128.47</ele>
        <time>2017-04-22T12:52:54Z</time>
      </trkpt>
      <trkpt lat="43.09043" lon="2.61962">
        <ele>128.95</ele>
        <time>2017-04-22T12:53:20Z</time>
      </trkpt>
      <trkpt lat="43.0904" lon="2.61975">
        <ele>129.92</ele>
        <time>2017-04-22T12:53:34Z</time>
      </trkpt>
      <trkpt lat="43.09035" lon="2.6198">
        <ele>129.92</ele>
        <time>2017-04-22T12:53:38Z</time>
      </trkpt>
      <trkpt lat="43.09018" lon="2.61987">
        <ele>130.88</ele>
        <time>2017-04-22T12:53:50Z</time>
      </trkpt>
      <trkpt lat="43.09013" lon="2.61994">
        <ele>130.88</ele>
        <time>2017-04-22T12:53:58Z</time>
      </trkpt>
      <trkpt lat="43.0901" lon="2.62001">
        <ele>131.36</ele>
        <time>2017-04-22T12:54:04Z</time>
      </trkpt>
      <trkpt lat="43.09009" lon="2.62008">
        <ele>131.84</ele>
        <time>2017-04-22T12:54:10Z</time>
      </trkpt>
      <trkpt lat="43.09009" lon="2.62008">
        <ele>132.32</ele>
        <time>2017-04-22T12:54:13Z</time>
      </trkpt>
      <trkpt lat="43.08993" lon="2.62009">
        <ele>133.28</ele>
        <time>2017-04-22T12:54:30Z</time>
      </trkpt>
      <trkpt lat="43.08988" lon="2.62008">
        <ele>133.76</ele>
        <time>2017-04-22T12:54:35Z</time>
      </trkpt>
      <trkpt lat="43.08972" lon="2.6202">
        <ele>134.24</ele>
        <time>2017-04-22T12:54:56Z</time>
      </trkpt>
      <trkpt lat="43.08967" lon="2.62025">
        <ele>134.24</ele>
        <time>2017-04-22T12:55:09Z</time>
      </trkpt>
      <trkpt lat="43.08966" lon="2.62029">
        <ele>134.24</ele>
        <time>2017-04-22T12:55:13Z</time>
      </trkpt>
      <trkpt lat="43.08957" lon="2.6203">
        <ele>134.72</ele>
        <time>2017-04-22T12:55:27Z</time>
      </trkpt>
      <trkpt lat="43.08944" lon="2.62025">
        <ele>135.2</ele>
        <time>2017-04-22T12:55:45Z</time>
      </trkpt>
      <trkpt lat="43.08933" lon="2.62015">
        <ele>135.68</ele>
        <time>2017-04-22T12:55:59Z</time>
      </trkpt>
      <trkpt lat="43.08921" lon="2.62011">
        <ele>137.13</ele>
        <time>2017-04-22T12:56:15Z</time>
      </trkpt>
      <trkpt lat="43.08911" lon="2.62007">
        <ele>139.05</ele>
        <time>2017-04-22T12:56:29Z</time>
      </trkpt>
      <trkpt lat="43.08905" lon="2.6201">
        <ele>140.49</ele>
        <time>2017-04-22T12:56:43Z</time>
      </trkpt>
      <trkpt lat="43.08901" lon="2.62014">
        <ele>141.45</ele>
        <time>2017-04-22T12:56:59Z</time>
      </trkpt>
      <trkpt lat="43.08901" lon="2.62019">
        <ele>141.93</ele>
        <time>2017-04-22T12:57:09Z</time>
      </trkpt>
      <trkpt lat="43.08892" lon="2.6203">
        <ele>143.85</ele>
        <time>2017-04-22T12:57:23Z</time>
      </trkpt>
      <trkpt lat="43.08887" lon="2.62037">
        <ele>144.82</ele>
        <time>2017-04-22T12:57:32Z</time>
      </trkpt>
      <trkpt lat="43.08878" lon="2.62042">
        <ele>146.74</ele>
        <time>2017-04-22T12:57:46Z</time>
      </trkpt>
      <trkpt lat="43.08873" lon="2.6205">
        <ele>148.66</ele>
        <time>2017-04-22T12:57:59Z</time>
      </trkpt>
      <trkpt lat="43.08872" lon="2.62053">
        <ele>148.66</ele>
        <time>2017-04-22T12:58:01Z</time>
      </trkpt>
      <trkpt lat="43.08871" lon="2.62057">
        <ele>149.62</ele>
        <time>2017-04-22T12:58:05Z</time>
      </trkpt>
      <trkpt lat="43.08867" lon="2.62065">
        <ele>150.58</ele>
        <time>2017-04-22T12:58:14Z</time>
      </trkpt>
      <trkpt lat="43.0886" lon="2.62077">
        <ele>152.51</ele>
        <time>2017-04-22T12:58:28Z</time>
      </trkpt>
      <trkpt lat="43.08857" lon="2.62083">
        <ele>152.99</ele>
        <time>2017-04-22T12:58:43Z</time>
      </trkpt>
      <trkpt lat="43.08854" lon="2.62092">
        <ele>154.43</ele>
        <time>2017-04-22T12:59:01Z</time>
      </trkpt>
      <trkpt lat="43.08852" lon="2.62096">
        <ele>154.91</ele>
        <time>2017-04-22T12:59:15Z</time>
      </trkpt>
      <trkpt lat="43.08845" lon="2.62111">
        <ele>157.31</ele>
        <time>2017-04-22T12:59:30Z</time>
      </trkpt>
      <trkpt lat="43.08843" lon="2.62117">
        <ele>157.79</ele>
        <time>2017-04-22T12:59:35Z</time>
      </trkpt>
      <trkpt lat="43.08831" lon="2.62129">
        <ele>159.72</ele>
        <time>2017-04-22T12:59:50Z</time>
      </trkpt>
      <trkpt lat="43.08827" lon="2.62141">
        <ele>161.16</ele>
        <time>2017-04-22T13:00:03Z</time>
      </trkpt>
      <trkpt lat="43.08825" lon="2.62144">
        <ele>161.64</ele>
        <time>2017-04-22T13:00:08Z</time>
      </trkpt>
      <trkpt lat="43.08822" lon="2.62148">
        <ele>162.12</ele>
        <time>2017-04-22T13:00:12Z</time>
      </trkpt>
      <trkpt lat="43.08816" lon="2.62161">
        <ele>164.04</ele>
        <time>2017-04-22T13:00:25Z</time>
      </trkpt>
      <trkpt lat="43.08815" lon="2.62163">
        <ele>164.04</ele>
        <time>2017-04-22T13:00:27Z</time>
      </trkpt>
      <trkpt lat="43.08812" lon="2.62174">
        <ele>165</ele>
        <time>2017-04-22T13:00:36Z</time>
      </trkpt>
      <trkpt lat="43.08809" lon="2.62184">
        <ele>165.96</ele>
        <time>2017-04-22T13:00:44Z</time>
      </trkpt>
      <trkpt lat="43.08808" lon="2.62185">
        <ele>166.45</ele>
        <time>2017-04-22T13:00:46Z</time>
      </trkpt>
      <trkpt lat="43.08803" lon="2.62197">
        <ele>167.41</ele>
        <time>2017-04-22T13:00:59Z</time>
      </trkpt>
      <trkpt lat="43.08801" lon="2.62205">
        <ele>168.37</ele>
        <time>2017-04-22T13:01:12Z</time>
      </trkpt>
      <trkpt lat="43.08798" lon="2.62214">
        <ele>169.81</ele>
        <time>2017-04-22T13:01:27Z</time>
      </trkpt>
      <trkpt lat="43.08793" lon="2.6223">
        <ele>171.73</ele>
        <time>2017-04-22T13:01:41Z</time>
      </trkpt>
      <trkpt lat="43.0879" lon="2.62238">
        <ele>173.17</ele>
        <time>2017-04-22T13:01:50Z</time>
      </trkpt>
      <trkpt lat="43.0879" lon="2.62242">
        <ele>173.66</ele>
        <time>2017-04-22T13:01:55Z</time>
      </trkpt>
      <trkpt lat="43.08789" lon="2.62256">
        <ele>175.58</ele>
        <time>2017-04-22T13:02:10Z</time>
      </trkpt>
      <trkpt lat="43.08788" lon="2.62261">
        <ele>176.54</ele>
        <time>2017-04-22T13:02:22Z</time>
      </trkpt>
      <trkpt lat="43.08787" lon="2.62278">
        <ele>178.46</ele>
        <time>2017-04-22T13:02:37Z</time>
      </trkpt>
      <trkpt lat="43.08784" lon="2.62293">
        <ele>180.38</ele>
        <time>2017-04-22T13:02:51Z</time>
      </trkpt>
      <trkpt lat="43.08783" lon="2.62302">
        <ele>180.87</ele>
        <time>2017-04-22T13:03:03Z</time>
      </trkpt>
      <trkpt lat="43.08779" lon="2.62319">
        <ele>181.83</ele>
        <time>2017-04-22T13:03:17Z</time>
      </trkpt>
      <trkpt lat="43.08777" lon="2.6233">
        <ele>182.31</ele>
        <time>2017-04-22T13:03:29Z</time>
      </trkpt>
      <trkpt lat="43.08777" lon="2.62332">
        <ele>182.31</ele>
        <time>2017-04-22T13:03:31Z</time>
      </trkpt>
      <trkpt lat="43.08776" lon="2.62338">
        <ele>182.31</ele>
        <time>2017-04-22T13:03:35Z</time>
      </trkpt>
      <trkpt lat="43.08775" lon="2.62356">
        <ele>183.27</ele>
        <time>2017-04-22T13:03:50Z</time>
      </trkpt>
      <trkpt lat="43.08776" lon="2.62371">
        <ele>183.27</ele>
        <time>2017-04-22T13:04:04Z</time>
      </trkpt>
      <trkpt lat="43.08776" lon="2.62386">
        <ele>184.71</ele>
        <time>2017-04-22T13:04:16Z</time>
      </trkpt>
      <trkpt lat="43.08763" lon="2.62386">
        <ele>186.15</ele>
        <time>2017-04-22T13:04:30Z</time>
      </trkpt>
      <trkpt lat="43.08761" lon="2.62382">
        <ele>186.15</ele>
        <time>2017-04-22T13:04:36Z</time>
      </trkpt>
      <trkpt lat="43.08759" lon="2.62372">
        <ele>187.11</ele>
        <time>2017-04-22T13:04:46Z</time>
      </trkpt>
      <trkpt lat="43.08756" lon="2.62365">
        <ele>187.59</ele>
        <time>2017-04-22T13:04:52Z</time>
      </trkpt>
      <trkpt lat="43.08752" lon="2.62353">
        <ele>188.08</ele>
        <time>2017-04-22T13:05:04Z</time>
      </trkpt>
      <trkpt lat="43.08745" lon="2.62341">
        <ele>189.52</ele>
        <time>2017-04-22T13:05:18Z</time>
      </trkpt>
      <trkpt lat="43.08739" lon="2.62336">
        <ele>190</ele>
        <time>2017-04-22T13:05:28Z</time>
      </trkpt>
      <trkpt lat="43.08736" lon="2.62333">
        <ele>190.48</ele>
        <time>2017-04-22T13:05:35Z</time>
      </trkpt>
      <trkpt lat="43.08728" lon="2.62334">
        <ele>191.92</ele>
        <time>2017-04-22T13:05:51Z</time>
      </trkpt>
      <trkpt lat="43.08725" lon="2.62341">
        <ele>193.36</ele>
        <time>2017-04-22T13:06:04Z</time>
      </trkpt>
      <trkpt lat="43.08723" lon="2.6235">
        <ele>195.28</ele>
        <time>2017-04-22T13:06:16Z</time>
      </trkpt>
      <trkpt lat="43.08724" lon="2.62353">
        <ele>195.28</ele>
        <time>2017-04-22T13:06:29Z</time>
      </trkpt>
      <trkpt lat="43.08725" lon="2.62358">
        <ele>195.77</ele>
        <time>2017-04-22T13:06:34Z</time>
      </trkpt>
      <trkpt lat="43.08727" lon="2.6237">
        <ele>196.73</ele>
        <time>2017-04-22T13:06:47Z</time>
      </trkpt>
      <trkpt lat="43.0873" lon="2.62375">
        <ele>197.69</ele>
        <time>2017-04-22T13:06:53Z</time>
      </trkpt>
      <trkpt lat="43.08736" lon="2.62391">
        <ele>198.65</ele>
        <time>2017-04-22T13:07:07Z</time>
      </trkpt>
      <trkpt lat="43.08742" lon="2.62403">
        <ele>199.13</ele>
        <time>2017-04-22T13:07:18Z</time>
      </trkpt>
      <trkpt lat="43.08747" lon="2.62414">
        <ele>199.13</ele>
        <time>2017-04-22T13:07:28Z</time>
      </trkpt>
      <trkpt lat="43.08748" lon="2.62419">
        <ele>199.13</ele>
        <time>2017-04-22T13:07:32Z</time>
      </trkpt>
      <trkpt lat="43.08756" lon="2.62431">
        <ele>199.13</ele>
        <time>2017-04-22T13:07:47Z</time>
      </trkpt>
      <trkpt lat="43.08762" lon="2.62449">
        <ele>200.09</ele>
        <time>2017-04-22T13:08:01Z</time>
      </trkpt>
      <trkpt lat="43.08766" lon="2.62456">
        <ele>200.57</ele>
        <time>2017-04-22T13:08:17Z</time>
      </trkpt>
      <trkpt lat="43.08768" lon="2.62469">
        <ele>202.01</ele>
        <time>2017-04-22T13:08:29Z</time>
      </trkpt>
      <trkpt lat="43.08769" lon="2.62472">
        <ele>202.01</ele>
        <time>2017-04-22T13:08:31Z</time>
      </trkpt>
      <trkpt lat="43.08771" lon="2.62481">
        <ele>203.46</ele>
        <time>2017-04-22T13:08:41Z</time>
      </trkpt>
      <trkpt lat="43.08775" lon="2.62492">
        <ele>204.9</ele>
        <time>2017-04-22T13:08:53Z</time>
      </trkpt>
      <trkpt lat="43.08779" lon="2.62506">
        <ele>206.34</ele>
        <time>2017-04-22T13:09:08Z</time>
      </trkpt>
      <trkpt lat="43.08782" lon="2.6252">
        <ele>207.3</ele>
        <time>2017-04-22T13:09:21Z</time>
      </trkpt>
      <trkpt lat="43.08782" lon="2.62523">
        <ele>207.78</ele>
        <time>2017-04-22T13:09:24Z</time>
      </trkpt>
      <trkpt lat="43.08787" lon="2.62535">
        <ele>209.22</ele>
        <time>2017-04-22T13:09:36Z</time>
      </trkpt>
      <trkpt lat="43.08792" lon="2.62543">
        <ele>209.7</ele>
        <time>2017-04-22T13:09:45Z</time>
      </trkpt>
      <trkpt lat="43.08797" lon="2.62555">
        <ele>211.63</ele>
        <time>2017-04-22T13:09:59Z</time>
      </trkpt>
      <trkpt lat="43.08799" lon="2.62561">
        <ele>212.59</ele>
        <time>2017-04-22T13:10:09Z</time>
      </trkpt>
      <trkpt lat="43.08801" lon="2.62572">
        <ele>214.51</ele>
        <time>2017-04-22T13:10:22Z</time>
      </trkpt>
      <trkpt lat="43.08804" lon="2.62581">
        <ele>215.95</ele>
        <time>2017-04-22T13:10:33Z</time>
      </trkpt>
      <trkpt lat="43.08809" lon="2.62587">
        <ele>217.4</ele>
        <time>2017-04-22T13:10:43Z</time>
      </trkpt>
      <trkpt lat="43.08815" lon="2.62594">
        <ele>218.36</ele>
        <time>2017-04-22T13:10:55Z</time>
      </trkpt>
      <trkpt lat="43.08817" lon="2.62595">
        <ele>218.84</ele>
        <time>2017-04-22T13:10:58Z</time>
      </trkpt>
      <trkpt lat="43.0882" lon="2.62601">
        <ele>218.84</ele>
        <time>2017-04-22T13:11:11Z</time>
      </trkpt>
      <trkpt lat="43.08822" lon="2.6261">
        <ele>219.8</ele>
        <time>2017-04-22T13:11:25Z</time>
      </trkpt>
      <trkpt lat="43.08827" lon="2.62618">
        <ele>221.72</ele>
        <time>2017-04-22T13:11:39Z</time>
      </trkpt>
      <trkpt lat="43.08826" lon="2.62623">
        <ele>223.16</ele>
        <time>2017-04-22T13:11:54Z</time>
      </trkpt>
      <trkpt lat="43.08832" lon="2.62628">
        <ele>224.12</ele>
        <time>2017-04-22T13:12:09Z</time>
      </trkpt>
      <trkpt lat="43.08835" lon="2.62629">
        <ele>226.05</ele>
        <time>2017-04-22T13:12:21Z</time>
      </trkpt>
      <trkpt lat="43.08838" lon="2.62634">
        <ele>227.49</ele>
        <time>2017-04-22T13:12:34Z</time>
      </trkpt>
      <trkpt lat="43.0884" lon="2.62641">
        <ele>228.45</ele>
        <time>2017-04-22T13:12:58Z</time>
      </trkpt>
      <trkpt lat="43.08846" lon="2.62648">
        <ele>229.89</ele>
        <time>2017-04-22T13:13:15Z</time>
      </trkpt>
      <trkpt lat="43.08851" lon="2.62652">
        <ele>230.85</ele>
        <time>2017-04-22T13:13:32Z</time>
      </trkpt>
      <trkpt lat="43.08853" lon="2.6266">
        <ele>232.3</ele>
        <time>2017-04-22T13:13:41Z</time>
      </trkpt>
      <trkpt lat="43.08859" lon="2.62669">
        <ele>234.7</ele>
        <time>2017-04-22T13:13:55Z</time>
      </trkpt>
      <trkpt lat="43.08866" lon="2.62675">
        <ele>235.66</ele>
        <time>2017-04-22T13:14:07Z</time>
      </trkpt>
      <trkpt lat="43.08874" lon="2.6268">
        <ele>237.1</ele>
        <time>2017-04-22T13:14:20Z</time>
      </trkpt>
      <trkpt lat="43.08877" lon="2.62686">
        <ele>239.02</ele>
        <time>2017-04-22T13:14:33Z</time>
      </trkpt>
      <trkpt lat="43.08877" lon="2.62683">
        <ele>239.99</ele>
        <time>2017-04-22T13:14:50Z</time>
      </trkpt>
      <trkpt lat="43.08886" lon="2.62682">
        <ele>240.95</ele>
        <time>2017-04-22T13:15:02Z</time>
      </trkpt>
      <trkpt lat="43.08894" lon="2.62689">
        <ele>241.91</ele>
        <time>2017-04-22T13:15:14Z</time>
      </trkpt>
      <trkpt lat="43.08898" lon="2.6269">
        <ele>242.39</ele>
        <time>2017-04-22T13:15:18Z</time>
      </trkpt>
      <trkpt lat="43.08907" lon="2.62694">
        <ele>244.31</ele>
        <time>2017-04-22T13:15:32Z</time>
      </trkpt>
      <trkpt lat="43.08914" lon="2.62699">
        <ele>245.75</ele>
        <time>2017-04-22T13:15:44Z</time>
      </trkpt>
      <trkpt lat="43.0892" lon="2.62705">
        <ele>247.2</ele>
        <time>2017-04-22T13:15:55Z</time>
      </trkpt>
      <trkpt lat="43.08925" lon="2.62708">
        <ele>248.64</ele>
        <time>2017-04-22T13:16:07Z</time>
      </trkpt>
      <trkpt lat="43.0893" lon="2.62715">
        <ele>250.08</ele>
        <time>2017-04-22T13:16:20Z</time>
      </trkpt>
      <trkpt lat="43.08936" lon="2.62717">
        <ele>252</ele>
        <time>2017-04-22T13:16:33Z</time>
      </trkpt>
      <trkpt lat="43.08942" lon="2.62715">
        <ele>253.93</ele>
        <time>2017-04-22T13:16:44Z</time>
      </trkpt>
      <trkpt lat="43.08949" lon="2.62712">
        <ele>254.89</ele>
        <time>2017-04-22T13:16:57Z</time>
      </trkpt>
      <trkpt lat="43.08958" lon="2.62714">
        <ele>256.33</ele>
        <time>2017-04-22T13:17:09Z</time>
      </trkpt>
      <trkpt lat="43.08961" lon="2.62727">
        <ele>258.73</ele>
        <time>2017-04-22T13:17:21Z</time>
      </trkpt>
      <trkpt lat="43.08959" lon="2.62741">
        <ele>259.69</ele>
        <time>2017-04-22T13:17:33Z</time>
      </trkpt>
      <trkpt lat="43.08949" lon="2.62751">
        <ele>261.62</ele>
        <time>2017-04-22T13:17:49Z</time>
      </trkpt>
      <trkpt lat="43.08945" lon="2.62759">
        <ele>262.58</ele>
        <time>2017-04-22T13:18:00Z</time>
      </trkpt>
      <trkpt lat="43.08941" lon="2.62766">
        <ele>263.54</ele>
        <time>2017-04-22T13:18:11Z</time>
      </trkpt>
      <trkpt lat="43.08943" lon="2.62775">
        <ele>264.98</ele>
        <time>2017-04-22T13:18:22Z</time>
      </trkpt>
      <trkpt lat="43.08943" lon="2.62783">
        <ele>266.42</ele>
        <time>2017-04-22T13:18:33Z</time>
      </trkpt>
      <trkpt lat="43.08948" lon="2.62791">
        <ele>267.38</ele>
        <time>2017-04-22T13:18:44Z</time>
      </trkpt>
      <trkpt lat="43.08952" lon="2.62802">
        <ele>268.83</ele>
        <time>2017-04-22T13:18:57Z</time>
      </trkpt>
      <trkpt lat="43.08955" lon="2.62814">
        <ele>270.27</ele>
        <time>2017-04-22T13:19:09Z</time>
      </trkpt>
      <trkpt lat="43.08959" lon="2.62822">
        <ele>271.23</ele>
        <time>2017-04-22T13:19:17Z</time>
      </trkpt>
      <trkpt lat="43.08966" lon="2.62836">
        <ele>272.19</ele>
        <time>2017-04-22T13:19:31Z</time>
      </trkpt>
      <trkpt lat="43.08964" lon="2.62842">
        <ele>272.19</ele>
        <time>2017-04-22T13:20:31Z</time>
      </trkpt>
      <trkpt lat="43.08965" lon="2.62851">
        <ele>273.63</ele>
        <time>2017-04-22T13:20:44Z</time>
      </trkpt>
      <trkpt lat="43.08977" lon="2.62869">
        <ele>274.59</ele>
        <time>2017-04-22T13:22:18Z</time>
      </trkpt>
      <trkpt lat="43.08983" lon="2.62859">
        <ele>274.59</ele>
        <time>2017-04-22T13:22:29Z</time>
      </trkpt>
      <trkpt lat="43.08986" lon="2.62853">
        <ele>274.59</ele>
        <time>2017-04-22T13:22:35Z</time>
      </trkpt>
      <trkpt lat="43.0898" lon="2.62852">
        <ele>275.07</ele>
        <time>2017-04-22T13:22:54Z</time>
      </trkpt>
      <trkpt lat="43.08979" lon="2.62848">
        <ele>274.11</ele>
        <time>2017-04-22T13:23:01Z</time>
      </trkpt>
      <trkpt lat="43.08993" lon="2.62843">
        <ele>275.56</ele>
        <time>2017-04-22T13:23:14Z</time>
      </trkpt>
      <trkpt lat="43.09006" lon="2.62848">
        <ele>276.04</ele>
        <time>2017-04-22T13:23:28Z</time>
      </trkpt>
      <trkpt lat="43.09016" lon="2.62849">
        <ele>277</ele>
        <time>2017-04-22T13:23:42Z</time>
      </trkpt>
      <trkpt lat="43.09024" lon="2.62842">
        <ele>277.96</ele>
        <time>2017-04-22T13:23:56Z</time>
      </trkpt>
      <trkpt lat="43.09025" lon="2.62842">
        <ele>278.92</ele>
        <time>2017-04-22T13:24:00Z</time>
      </trkpt>
      <trkpt lat="43.09029" lon="2.62835">
        <ele>279.88</ele>
        <time>2017-04-22T13:24:09Z</time>
      </trkpt>
      <trkpt lat="43.09032" lon="2.62828">
        <ele>281.8</ele>
        <time>2017-04-22T13:24:21Z</time>
      </trkpt>
      <trkpt lat="43.09031" lon="2.62823">
        <ele>283.73</ele>
        <time>2017-04-22T13:24:34Z</time>
      </trkpt>
      <trkpt lat="43.09033" lon="2.62817">
        <ele>285.65</ele>
        <time>2017-04-22T13:24:44Z</time>
      </trkpt>
      <trkpt lat="43.09042" lon="2.6281">
        <ele>286.13</ele>
        <time>2017-04-22T13:24:58Z</time>
      </trkpt>
      <trkpt lat="43.09051" lon="2.62806">
        <ele>287.57</ele>
        <time>2017-04-22T13:25:10Z</time>
      </trkpt>
      <trkpt lat="43.09059" lon="2.62809">
        <ele>289.49</ele>
        <time>2017-04-22T13:25:22Z</time>
      </trkpt>
      <trkpt lat="43.09071" lon="2.62809">
        <ele>290.46</ele>
        <time>2017-04-22T13:25:37Z</time>
      </trkpt>
      <trkpt lat="43.0908" lon="2.6281">
        <ele>291.9</ele>
        <time>2017-04-22T13:25:50Z</time>
      </trkpt>
      <trkpt lat="43.09082" lon="2.62809">
        <ele>292.38</ele>
        <time>2017-04-22T13:26:03Z</time>
      </trkpt>
      <trkpt lat="43.0908" lon="2.62801">
        <ele>292.86</ele>
        <time>2017-04-22T13:26:16Z</time>
      </trkpt>
      <trkpt lat="43.09078" lon="2.62802">
        <ele>293.34</ele>
        <time>2017-04-22T13:26:44Z</time>
      </trkpt>
      <trkpt lat="43.09081" lon="2.62801">
        <ele>293.34</ele>
        <time>2017-04-22T13:27:10Z</time>
      </trkpt>
      <trkpt lat="43.09085" lon="2.62806">
        <ele>293.82</ele>
        <time>2017-04-22T13:27:39Z</time>
      </trkpt>
      <trkpt lat="43.09081" lon="2.62801">
        <ele>293.34</ele>
        <time>2017-04-22T13:28:04Z</time>
      </trkpt>
      <trkpt lat="43.09081" lon="2.62796">
        <ele>293.82</ele>
        <time>2017-04-22T13:28:16Z</time>
      </trkpt>
      <trkpt lat="43.09079" lon="2.62797">
        <ele>294.3</ele>
        <time>2017-04-22T13:28:31Z</time>
      </trkpt>
      <trkpt lat="43.09082" lon="2.6279">
        <ele>295.74</ele>
        <time>2017-04-22T13:28:43Z</time>
      </trkpt>
      <trkpt lat="43.09083" lon="2.62785">
        <ele>295.74</ele>
        <time>2017-04-22T13:28:55Z</time>
      </trkpt>
      <trkpt lat="43.09084" lon="2.62784">
        <ele>295.74</ele>
        <time>2017-04-22T13:29:17Z</time>
      </trkpt>
      <trkpt lat="43.09082" lon="2.6278">
        <ele>296.22</ele>
        <time>2017-04-22T13:29:48Z</time>
      </trkpt>
      <trkpt lat="43.09085" lon="2.62783">
        <ele>296.22</ele>
        <time>2017-04-22T13:29:58Z</time>
      </trkpt>
      <trkpt lat="43.09089" lon="2.62778">
        <ele>296.7</ele>
        <time>2017-04-22T13:30:17Z</time>
      </trkpt>
      <trkpt lat="43.0909" lon="2.62778">
        <ele>297.18</ele>
        <time>2017-04-22T13:30:28Z</time>
      </trkpt>
      <trkpt lat="43.09089" lon="2.62782">
        <ele>296.7</ele>
        <time>2017-04-22T13:30:42Z</time>
      </trkpt>
      <trkpt lat="43.09092" lon="2.62783">
        <ele>296.7</ele>
        <time>2017-04-22T13:31:16Z</time>
      </trkpt>
      <trkpt lat="43.09091" lon="2.62782">
        <ele>297.18</ele>
        <time>2017-04-22T13:31:40Z</time>
      </trkpt>
      <trkpt lat="43.09092" lon="2.62784">
        <ele>297.18</ele>
        <time>2017-04-22T13:32:25Z</time>
      </trkpt>
      <trkpt lat="43.09093" lon="2.62782">
        <ele>297.18</ele>
        <time>2017-04-22T13:32:46Z</time>
      </trkpt>
      <trkpt lat="43.09089" lon="2.62789">
        <ele>297.67</ele>
        <time>2017-04-22T13:33:00Z</time>
      </trkpt>
      <trkpt lat="43.09084" lon="2.62789">
        <ele>297.67</ele>
        <time>2017-04-22T13:33:17Z</time>
      </trkpt>
      <trkpt lat="43.09084" lon="2.62793">
        <ele>296.22</ele>
        <time>2017-04-22T13:33:31Z</time>
      </trkpt>
      <trkpt lat="43.09085" lon="2.62795">
        <ele>296.22</ele>
        <time>2017-04-22T13:33:46Z</time>
      </trkpt>
      <trkpt lat="43.09086" lon="2.62798">
        <ele>296.22</ele>
        <time>2017-04-22T13:34:00Z</time>
      </trkpt>
      <trkpt lat="43.09085" lon="2.628">
        <ele>295.74</ele>
        <time>2017-04-22T13:34:14Z</time>
      </trkpt>
      <trkpt lat="43.09086" lon="2.62807">
        <ele>294.78</ele>
        <time>2017-04-22T13:34:27Z</time>
      </trkpt>
      <trkpt lat="43.09079" lon="2.62812">
        <ele>293.82</ele>
        <time>2017-04-22T13:34:43Z</time>
      </trkpt>
      <trkpt lat="43.09068" lon="2.62815">
        <ele>292.38</ele>
        <time>2017-04-22T13:34:58Z</time>
      </trkpt>
      <trkpt lat="43.09057" lon="2.6281">
        <ele>290.46</ele>
        <time>2017-04-22T13:35:15Z</time>
      </trkpt>
      <trkpt lat="43.09048" lon="2.62809">
        <ele>289.01</ele>
        <time>2017-04-22T13:35:28Z</time>
      </trkpt>
      <trkpt lat="43.09037" lon="2.62815">
        <ele>287.57</ele>
        <time>2017-04-22T13:35:46Z</time>
      </trkpt>
      <trkpt lat="43.09035" lon="2.62822">
        <ele>286.13</ele>
        <time>2017-04-22T13:36:02Z</time>
      </trkpt>
      <trkpt lat="43.09037" lon="2.62831">
        <ele>284.69</ele>
        <time>2017-04-22T13:36:16Z</time>
      </trkpt>
      <trkpt lat="43.09034" lon="2.6284">
        <ele>282.77</ele>
        <time>2017-04-22T13:36:29Z</time>
      </trkpt>
      <trkpt lat="43.09027" lon="2.62847">
        <ele>280.36</ele>
        <time>2017-04-22T13:36:44Z</time>
      </trkpt>
      <trkpt lat="43.09017" lon="2.62855">
        <ele>278.92</ele>
        <time>2017-04-22T13:37:00Z</time>
      </trkpt>
      <trkpt lat="43.09003" lon="2.62857">
        <ele>277.48</ele>
        <time>2017-04-22T13:37:15Z</time>
      </trkpt>
      <trkpt lat="43.08991" lon="2.62858">
        <ele>276.52</ele>
        <time>2017-04-22T13:37:30Z</time>
      </trkpt>
      <trkpt lat="43.0899" lon="2.6286">
        <ele>276.04</ele>
        <time>2017-04-22T13:37:31Z</time>
      </trkpt>
      <trkpt lat="43.08979" lon="2.62869">
        <ele>276.04</ele>
        <time>2017-04-22T13:37:43Z</time>
      </trkpt>
      <trkpt lat="43.08978" lon="2.62869">
        <ele>276.04</ele>
        <time>2017-04-22T13:37:44Z</time>
      </trkpt>
      <trkpt lat="43.08972" lon="2.62871">
        <ele>276.52</ele>
        <time>2017-04-22T13:37:52Z</time>
      </trkpt>
      <trkpt lat="43.08967" lon="2.62866">
        <ele>276.52</ele>
        <time>2017-04-22T13:37:57Z</time>
      </trkpt>
      <trkpt lat="43.08957" lon="2.62868">
        <ele>277</ele>
        <time>2017-04-22T13:38:07Z</time>
      </trkpt>
      <trkpt lat="43.08946" lon="2.62875">
        <ele>277</ele>
        <time>2017-04-22T13:38:21Z</time>
      </trkpt>
      <trkpt lat="43.08938" lon="2.62883">
        <ele>278.44</ele>
        <time>2017-04-22T13:38:35Z</time>
      </trkpt>
      <trkpt lat="43.0893" lon="2.62892">
        <ele>279.88</ele>
        <time>2017-04-22T13:38:48Z</time>
      </trkpt>
      <trkpt lat="43.08923" lon="2.62893">
        <ele>280.36</ele>
        <time>2017-04-22T13:39:00Z</time>
      </trkpt>
      <trkpt lat="43.08922" lon="2.62889">
        <ele>280.36</ele>
        <time>2017-04-22T13:39:04Z</time>
      </trkpt>
      <trkpt lat="43.08919" lon="2.62886">
        <ele>280.36</ele>
        <time>2017-04-22T13:39:18Z</time>
      </trkpt>
      <trkpt lat="43.08918" lon="2.62888">
        <ele>280.84</ele>
        <time>2017-04-22T13:39:44Z</time>
      </trkpt>
      <trkpt lat="43.08912" lon="2.62879">
        <ele>281.32</ele>
        <time>2017-04-22T13:39:56Z</time>
      </trkpt>
      <trkpt lat="43.08908" lon="2.6287">
        <ele>281.32</ele>
        <time>2017-04-22T13:40:08Z</time>
      </trkpt>
      <trkpt lat="43.08905" lon="2.62863">
        <ele>281.8</ele>
        <time>2017-04-22T13:40:13Z</time>
      </trkpt>
      <trkpt lat="43.08904" lon="2.6286">
        <ele>281.8</ele>
        <time>2017-04-22T13:40:15Z</time>
      </trkpt>
      <trkpt lat="43.08897" lon="2.62849">
        <ele>282.28</ele>
        <time>2017-04-22T13:40:26Z</time>
      </trkpt>
      <trkpt lat="43.08895" lon="2.62847">
        <ele>282.28</ele>
        <time>2017-04-22T13:40:28Z</time>
      </trkpt>
      <trkpt lat="43.0889" lon="2.62838">
        <ele>283.25</ele>
        <time>2017-04-22T13:40:43Z</time>
      </trkpt>
      <trkpt lat="43.08891" lon="2.6284">
        <ele>282.77</ele>
        <time>2017-04-22T13:41:00Z</time>
      </trkpt>
      <trkpt lat="43.08896" lon="2.62839">
        <ele>283.25</ele>
        <time>2017-04-22T13:41:16Z</time>
      </trkpt>
      <trkpt lat="43.08898" lon="2.62836">
        <ele>283.25</ele>
        <time>2017-04-22T13:41:44Z</time>
      </trkpt>
      <trkpt lat="43.08903" lon="2.62846">
        <ele>282.77</ele>
        <time>2017-04-22T13:42:01Z</time>
      </trkpt>
      <trkpt lat="43.0891" lon="2.62861">
        <ele>281.8</ele>
        <time>2017-04-22T13:42:17Z</time>
      </trkpt>
      <trkpt lat="43.08918" lon="2.62875">
        <ele>280.84</ele>
        <time>2017-04-22T13:42:32Z</time>
      </trkpt>
      <trkpt lat="43.0892" lon="2.62882">
        <ele>280.84</ele>
        <time>2017-04-22T13:42:39Z</time>
      </trkpt>
      <trkpt lat="43.08928" lon="2.62897">
        <ele>280.36</ele>
        <time>2017-04-22T13:42:54Z</time>
      </trkpt>
      <trkpt lat="43.08934" lon="2.62905">
        <ele>280.36</ele>
        <time>2017-04-22T13:43:07Z</time>
      </trkpt>
      <trkpt lat="43.08935" lon="2.6291">
        <ele>280.36</ele>
        <time>2017-04-22T13:43:25Z</time>
      </trkpt>
      <trkpt lat="43.08933" lon="2.62907">
        <ele>280.36</ele>
        <time>2017-04-22T13:43:46Z</time>
      </trkpt>
      <trkpt lat="43.0894" lon="2.62916">
        <ele>279.88</ele>
        <time>2017-04-22T13:44:06Z</time>
      </trkpt>
      <trkpt lat="43.08954" lon="2.62932">
        <ele>279.4</ele>
        <time>2017-04-22T13:44:22Z</time>
      </trkpt>
      <trkpt lat="43.08958" lon="2.62939">
        <ele>278.92</ele>
        <time>2017-04-22T13:44:42Z</time>
      </trkpt>
      <trkpt lat="43.0897" lon="2.62956">
        <ele>278.44</ele>
        <time>2017-04-22T13:44:58Z</time>
      </trkpt>
      <trkpt lat="43.08971" lon="2.62964">
        <ele>277.96</ele>
        <time>2017-04-22T13:45:03Z</time>
      </trkpt>
      <trkpt lat="43.08971" lon="2.62972">
        <ele>277.96</ele>
        <time>2017-04-22T13:45:08Z</time>
      </trkpt>
      <trkpt lat="43.08963" lon="2.62981">
        <ele>277.48</ele>
        <time>2017-04-22T13:45:25Z</time>
      </trkpt>
      <trkpt lat="43.08951" lon="2.62978">
        <ele>276.04</ele>
        <time>2017-04-22T13:45:42Z</time>
      </trkpt>
      <trkpt lat="43.08946" lon="2.62973">
        <ele>276.52</ele>
        <time>2017-04-22T13:46:04Z</time>
      </trkpt>
      <trkpt lat="43.0894" lon="2.6297">
        <ele>276.04</ele>
        <time>2017-04-22T13:46:22Z</time>
      </trkpt>
      <trkpt lat="43.0893" lon="2.62962">
        <ele>275.56</ele>
        <time>2017-04-22T13:46:42Z</time>
      </trkpt>
      <trkpt lat="43.0892" lon="2.62959">
        <ele>275.07</ele>
        <time>2017-04-22T13:46:55Z</time>
      </trkpt>
      <trkpt lat="43.08918" lon="2.62958">
        <ele>274.11</ele>
        <time>2017-04-22T13:46:57Z</time>
      </trkpt>
      <trkpt lat="43.08903" lon="2.62949">
        <ele>274.11</ele>
        <time>2017-04-22T13:47:13Z</time>
      </trkpt>
      <trkpt lat="43.08901" lon="2.62948">
        <ele>274.11</ele>
        <time>2017-04-22T13:47:15Z</time>
      </trkpt>
      <trkpt lat="43.08894" lon="2.62944">
        <ele>273.63</ele>
        <time>2017-04-22T13:47:22Z</time>
      </trkpt>
      <trkpt lat="43.08884" lon="2.62931">
        <ele>272.19</ele>
        <time>2017-04-22T13:47:35Z</time>
      </trkpt>
      <trkpt lat="43.08875" lon="2.62914">
        <ele>270.75</ele>
        <time>2017-04-22T13:47:50Z</time>
      </trkpt>
      <trkpt lat="43.08869" lon="2.62908">
        <ele>270.27</ele>
        <time>2017-04-22T13:48:01Z</time>
      </trkpt>
      <trkpt lat="43.08858" lon="2.62893">
        <ele>269.31</ele>
        <time>2017-04-22T13:48:17Z</time>
      </trkpt>
      <trkpt lat="43.08843" lon="2.62883">
        <ele>268.35</ele>
        <time>2017-04-22T13:48:32Z</time>
      </trkpt>
      <trkpt lat="43.08829" lon="2.6288">
        <ele>267.86</ele>
        <time>2017-04-22T13:48:47Z</time>
      </trkpt>
      <trkpt lat="43.08821" lon="2.62881">
        <ele>266.9</ele>
        <time>2017-04-22T13:49:05Z</time>
      </trkpt>
      <trkpt lat="43.08809" lon="2.62875">
        <ele>266.42</ele>
        <time>2017-04-22T13:49:19Z</time>
      </trkpt>
      <trkpt lat="43.08803" lon="2.62872">
        <ele>265.94</ele>
        <time>2017-04-22T13:49:24Z</time>
      </trkpt>
      <trkpt lat="43.08789" lon="2.62871">
        <ele>264.98</ele>
        <time>2017-04-22T13:49:38Z</time>
      </trkpt>
      <trkpt lat="43.08781" lon="2.62869">
        <ele>264.02</ele>
        <time>2017-04-22T13:49:52Z</time>
      </trkpt>
      <trkpt lat="43.08764" lon="2.62858">
        <ele>262.58</ele>
        <time>2017-04-22T13:50:08Z</time>
      </trkpt>
      <trkpt lat="43.08763" lon="2.62858">
        <ele>262.58</ele>
        <time>2017-04-22T13:50:09Z</time>
      </trkpt>
      <trkpt lat="43.0875" lon="2.62848">
        <ele>261.62</ele>
        <time>2017-04-22T13:50:23Z</time>
      </trkpt>
      <trkpt lat="43.08735" lon="2.62838">
        <ele>260.65</ele>
        <time>2017-04-22T13:50:39Z</time>
      </trkpt>
      <trkpt lat="43.0872" lon="2.6283">
        <ele>259.21</ele>
        <time>2017-04-22T13:50:55Z</time>
      </trkpt>
      <trkpt lat="43.08708" lon="2.62817">
        <ele>258.25</ele>
        <time>2017-04-22T13:51:10Z</time>
      </trkpt>
      <trkpt lat="43.087" lon="2.62803">
        <ele>257.29</ele>
        <time>2017-04-22T13:51:23Z</time>
      </trkpt>
      <trkpt lat="43.08693" lon="2.62788">
        <ele>256.81</ele>
        <time>2017-04-22T13:51:36Z</time>
      </trkpt>
      <trkpt lat="43.08692" lon="2.62785">
        <ele>257.29</ele>
        <time>2017-04-22T13:51:38Z</time>
      </trkpt>
      <trkpt lat="43.08683" lon="2.62762">
        <ele>258.25</ele>
        <time>2017-04-22T13:51:54Z</time>
      </trkpt>
      <trkpt lat="43.08669" lon="2.62732">
        <ele>258.73</ele>
        <time>2017-04-22T13:52:18Z</time>
      </trkpt>
      <trkpt lat="43.08661" lon="2.62716">
        <ele>258.73</ele>
        <time>2017-04-22T13:52:32Z</time>
      </trkpt>
      <trkpt lat="43.08653" lon="2.62705">
        <ele>258.73</ele>
        <time>2017-04-22T13:52:43Z</time>
      </trkpt>
      <trkpt lat="43.0865" lon="2.627">
        <ele>258.73</ele>
        <time>2017-04-22T13:52:47Z</time>
      </trkpt>
      <trkpt lat="43.0864" lon="2.62682">
        <ele>258.73</ele>
        <time>2017-04-22T13:53:02Z</time>
      </trkpt>
      <trkpt lat="43.08631" lon="2.62664">
        <ele>259.21</ele>
        <time>2017-04-22T13:53:17Z</time>
      </trkpt>
      <trkpt lat="43.0862" lon="2.62647">
        <ele>260.17</ele>
        <time>2017-04-22T13:53:32Z</time>
      </trkpt>
      <trkpt lat="43.0861" lon="2.62638">
        <ele>262.1</ele>
        <time>2017-04-22T13:53:46Z</time>
      </trkpt>
      <trkpt lat="43.08615" lon="2.62629">
        <ele>262.58</ele>
        <time>2017-04-22T13:54:02Z</time>
      </trkpt>
      <trkpt lat="43.08627" lon="2.62618">
        <ele>264.02</ele>
        <time>2017-04-22T13:54:17Z</time>
      </trkpt>
      <trkpt lat="43.08628" lon="2.6261">
        <ele>264.5</ele>
        <time>2017-04-22T13:54:28Z</time>
      </trkpt>
      <trkpt lat="43.08626" lon="2.62597">
        <ele>265.94</ele>
        <time>2017-04-22T13:54:41Z</time>
      </trkpt>
      <trkpt lat="43.08626" lon="2.62594">
        <ele>266.42</ele>
        <time>2017-04-22T13:54:43Z</time>
      </trkpt>
      <trkpt lat="43.08633" lon="2.62589">
        <ele>267.38</ele>
        <time>2017-04-22T13:54:54Z</time>
      </trkpt>
      <trkpt lat="43.08639" lon="2.62584">
        <ele>269.31</ele>
        <time>2017-04-22T13:55:05Z</time>
      </trkpt>
      <trkpt lat="43.08641" lon="2.62581">
        <ele>270.75</ele>
        <time>2017-04-22T13:56:50Z</time>
      </trkpt>
      <trkpt lat="43.08644" lon="2.62579">
        <ele>270.75</ele>
        <time>2017-04-22T13:57:14Z</time>
      </trkpt>
      <trkpt lat="43.08643" lon="2.62584">
        <ele>269.79</ele>
        <time>2017-04-22T13:57:32Z</time>
      </trkpt>
      <trkpt lat="43.08641" lon="2.62593">
        <ele>268.83</ele>
        <time>2017-04-22T13:57:45Z</time>
      </trkpt>
      <trkpt lat="43.08636" lon="2.62594">
        <ele>267.86</ele>
        <time>2017-04-22T13:57:53Z</time>
      </trkpt>
      <trkpt lat="43.08631" lon="2.62606">
        <ele>265.94</ele>
        <time>2017-04-22T13:58:07Z</time>
      </trkpt>
      <trkpt lat="43.08634" lon="2.62608">
        <ele>265.46</ele>
        <time>2017-04-22T13:58:25Z</time>
      </trkpt>
      <trkpt lat="43.08625" lon="2.62617">
        <ele>264.5</ele>
        <time>2017-04-22T13:58:38Z</time>
      </trkpt>
      <trkpt lat="43.08612" lon="2.62626">
        <ele>263.06</ele>
        <time>2017-04-22T13:58:53Z</time>
      </trkpt>
      <trkpt lat="43.08603" lon="2.62631">
        <ele>262.58</ele>
        <time>2017-04-22T13:59:03Z</time>
      </trkpt>
      <trkpt lat="43.08591" lon="2.62621">
        <ele>264.5</ele>
        <time>2017-04-22T13:59:17Z</time>
      </trkpt>
      <trkpt lat="43.0859" lon="2.6262">
        <ele>264.5</ele>
        <time>2017-04-22T13:59:18Z</time>
      </trkpt>
      <trkpt lat="43.08576" lon="2.62617">
        <ele>265.46</ele>
        <time>2017-04-22T13:59:32Z</time>
      </trkpt>
      <trkpt lat="43.08564" lon="2.62608">
        <ele>265.46</ele>
        <time>2017-04-22T13:59:50Z</time>
      </trkpt>
      <trkpt lat="43.08538" lon="2.62601">
        <ele>264.02</ele>
        <time>2017-04-22T14:00:13Z</time>
      </trkpt>
      <trkpt lat="43.08534" lon="2.62589">
        <ele>264.02</ele>
        <time>2017-04-22T14:00:27Z</time>
      </trkpt>
      <trkpt lat="43.08534" lon="2.6259">
        <ele>264.02</ele>
        <time>2017-04-22T14:00:29Z</time>
      </trkpt>
      <trkpt lat="43.0852" lon="2.62587">
        <ele>263.06</ele>
        <time>2017-04-22T14:00:44Z</time>
      </trkpt>
      <trkpt lat="43.08506" lon="2.6258">
        <ele>262.1</ele>
        <time>2017-04-22T14:01:00Z</time>
      </trkpt>
      <trkpt lat="43.08495" lon="2.62575">
        <ele>260.65</ele>
        <time>2017-04-22T14:01:13Z</time>
      </trkpt>
      <trkpt lat="43.0849" lon="2.62572">
        <ele>259.69</ele>
        <time>2017-04-22T14:01:19Z</time>
      </trkpt>
      <trkpt lat="43.08487" lon="2.6257">
        <ele>259.21</ele>
        <time>2017-04-22T14:01:23Z</time>
      </trkpt>
      <trkpt lat="43.08474" lon="2.62562">
        <ele>258.73</ele>
        <time>2017-04-22T14:01:37Z</time>
      </trkpt>
      <trkpt lat="43.08464" lon="2.62555">
        <ele>257.77</ele>
        <time>2017-04-22T14:01:48Z</time>
      </trkpt>
      <trkpt lat="43.0845" lon="2.62547">
        <ele>257.77</ele>
        <time>2017-04-22T14:02:03Z</time>
      </trkpt>
      <trkpt lat="43.08437" lon="2.62537">
        <ele>257.29</ele>
        <time>2017-04-22T14:02:18Z</time>
      </trkpt>
      <trkpt lat="43.08427" lon="2.62528">
        <ele>256.81</ele>
        <time>2017-04-22T14:02:30Z</time>
      </trkpt>
      <trkpt lat="43.08418" lon="2.62522">
        <ele>255.85</ele>
        <time>2017-04-22T14:02:40Z</time>
      </trkpt>
      <trkpt lat="43.08403" lon="2.62516">
        <ele>254.89</ele>
        <time>2017-04-22T14:02:55Z</time>
      </trkpt>
      <trkpt lat="43.08391" lon="2.62512">
        <ele>253.93</ele>
        <time>2017-04-22T14:03:08Z</time>
      </trkpt>
      <trkpt lat="43.08375" lon="2.62504">
        <ele>252.96</ele>
        <time>2017-04-22T14:03:24Z</time>
      </trkpt>
      <trkpt lat="43.08372" lon="2.62503">
        <ele>252.96</ele>
        <time>2017-04-22T14:03:27Z</time>
      </trkpt>
      <trkpt lat="43.0837" lon="2.62503">
        <ele>252.96</ele>
        <time>2017-04-22T14:03:29Z</time>
      </trkpt>
      <trkpt lat="43.08356" lon="2.62496">
        <ele>251.52</ele>
        <time>2017-04-22T14:03:44Z</time>
      </trkpt>
      <trkpt lat="43.08342" lon="2.62492">
        <ele>250.08</ele>
        <time>2017-04-22T14:03:57Z</time>
      </trkpt>
      <trkpt lat="43.08332" lon="2.62489">
        <ele>249.6</ele>
        <time>2017-04-22T14:04:06Z</time>
      </trkpt>
      <trkpt lat="43.08316" lon="2.62481">
        <ele>248.64</ele>
        <time>2017-04-22T14:04:23Z</time>
      </trkpt>
      <trkpt lat="43.08299" lon="2.62477">
        <ele>247.2</ele>
        <time>2017-04-22T14:04:40Z</time>
      </trkpt>
      <trkpt lat="43.0828" lon="2.62472">
        <ele>245.75</ele>
        <time>2017-04-22T14:04:58Z</time>
      </trkpt>
      <trkpt lat="43.08279" lon="2.62472">
        <ele>245.75</ele>
        <time>2017-04-22T14:04:59Z</time>
      </trkpt>
      <trkpt lat="43.08276" lon="2.62472">
        <ele>245.27</ele>
        <time>2017-04-22T14:05:02Z</time>
      </trkpt>
      <trkpt lat="43.08261" lon="2.6247">
        <ele>244.31</ele>
        <time>2017-04-22T14:05:16Z</time>
      </trkpt>
      <trkpt lat="43.08258" lon="2.62472">
        <ele>243.83</ele>
        <time>2017-04-22T14:05:19Z</time>
      </trkpt>
      <trkpt lat="43.08243" lon="2.62473">
        <ele>242.87</ele>
        <time>2017-04-22T14:05:34Z</time>
      </trkpt>
      <trkpt lat="43.08229" lon="2.62476">
        <ele>241.43</ele>
        <time>2017-04-22T14:05:48Z</time>
      </trkpt>
      <trkpt lat="43.08222" lon="2.62479">
        <ele>240.95</ele>
        <time>2017-04-22T14:05:55Z</time>
      </trkpt>
      <trkpt lat="43.08207" lon="2.62482">
        <ele>239.99</ele>
        <time>2017-04-22T14:06:12Z</time>
      </trkpt>
      <trkpt lat="43.08193" lon="2.62484">
        <ele>239.51</ele>
        <time>2017-04-22T14:06:25Z</time>
      </trkpt>
      <trkpt lat="43.0818" lon="2.62487">
        <ele>238.54</ele>
        <time>2017-04-22T14:06:39Z</time>
      </trkpt>
      <trkpt lat="43.08164" lon="2.62489">
        <ele>237.58</ele>
        <time>2017-04-22T14:06:53Z</time>
      </trkpt>
      <trkpt lat="43.08151" lon="2.6249">
        <ele>236.62</ele>
        <time>2017-04-22T14:07:06Z</time>
      </trkpt>
      <trkpt lat="43.08137" lon="2.6249">
        <ele>235.66</ele>
        <time>2017-04-22T14:07:20Z</time>
      </trkpt>
      <trkpt lat="43.08134" lon="2.6249">
        <ele>236.14</ele>
        <time>2017-04-22T14:07:22Z</time>
      </trkpt>
      <trkpt lat="43.08123" lon="2.62487">
        <ele>235.66</ele>
        <time>2017-04-22T14:07:35Z</time>
      </trkpt>
      <trkpt lat="43.08107" lon="2.62492">
        <ele>234.22</ele>
        <time>2017-04-22T14:07:50Z</time>
      </trkpt>
      <trkpt lat="43.08091" lon="2.62499">
        <ele>233.74</ele>
        <time>2017-04-22T14:08:05Z</time>
      </trkpt>
      <trkpt lat="43.08077" lon="2.62507">
        <ele>233.26</ele>
        <time>2017-04-22T14:08:19Z</time>
      </trkpt>
      <trkpt lat="43.08062" lon="2.62511">
        <ele>233.26</ele>
        <time>2017-04-22T14:08:33Z</time>
      </trkpt>
      <trkpt lat="43.08048" lon="2.62517">
        <ele>232.78</ele>
        <time>2017-04-22T14:08:46Z</time>
      </trkpt>
      <trkpt lat="43.08045" lon="2.62519">
        <ele>232.78</ele>
        <time>2017-04-22T14:08:50Z</time>
      </trkpt>
      <trkpt lat="43.0804" lon="2.62522">
        <ele>232.3</ele>
        <time>2017-04-22T14:08:55Z</time>
      </trkpt>
      <trkpt lat="43.08026" lon="2.62528">
        <ele>232.3</ele>
        <time>2017-04-22T14:09:09Z</time>
      </trkpt>
      <trkpt lat="43.08014" lon="2.62533">
        <ele>231.81</ele>
        <time>2017-04-22T14:09:21Z</time>
      </trkpt>
      <trkpt lat="43.08012" lon="2.62535">
        <ele>231.81</ele>
        <time>2017-04-22T14:09:23Z</time>
      </trkpt>
      <trkpt lat="43.08005" lon="2.62538">
        <ele>232.3</ele>
        <time>2017-04-22T14:09:30Z</time>
      </trkpt>
      <trkpt lat="43.08002" lon="2.62541">
        <ele>231.81</ele>
        <time>2017-04-22T14:09:34Z</time>
      </trkpt>
      <trkpt lat="43.07995" lon="2.62541">
        <ele>232.3</ele>
        <time>2017-04-22T14:09:40Z</time>
      </trkpt>
      <trkpt lat="43.07982" lon="2.62533">
        <ele>232.3</ele>
        <time>2017-04-22T14:09:53Z</time>
      </trkpt>
      <trkpt lat="43.07975" lon="2.62524">
        <ele>232.78</ele>
        <time>2017-04-22T14:10:06Z</time>
      </trkpt>
      <trkpt lat="43.07976" lon="2.62525">
        <ele>232.78</ele>
        <time>2017-04-22T14:10:29Z</time>
      </trkpt>
      <trkpt lat="43.07972" lon="2.62523">
        <ele>232.78</ele>
        <time>2017-04-22T14:10:36Z</time>
      </trkpt>
      <trkpt lat="43.07969" lon="2.62517">
        <ele>232.78</ele>
        <time>2017-04-22T14:10:41Z</time>
      </trkpt>
      <trkpt lat="43.07964" lon="2.6251">
        <ele>232.78</ele>
        <time>2017-04-22T14:10:51Z</time>
      </trkpt>
      <trkpt lat="43.07955" lon="2.62503">
        <ele>232.78</ele>
        <time>2017-04-22T14:11:03Z</time>
      </trkpt>
      <trkpt lat="43.07957" lon="2.62505">
        <ele>232.78</ele>
        <time>2017-04-22T14:11:24Z</time>
      </trkpt>
      <trkpt lat="43.07955" lon="2.62505">
        <ele>232.78</ele>
        <time>2017-04-22T14:11:47Z</time>
      </trkpt>
      <trkpt lat="43.07952" lon="2.62498">
        <ele>232.78</ele>
        <time>2017-04-22T14:12:03Z</time>
      </trkpt>
      <trkpt lat="43.07951" lon="2.62495">
        <ele>232.3</ele>
        <time>2017-04-22T14:12:07Z</time>
      </trkpt>
      <trkpt lat="43.07949" lon="2.62493">
        <ele>232.78</ele>
        <time>2017-04-22T14:12:09Z</time>
      </trkpt>
      <trkpt lat="43.07936" lon="2.62478">
        <ele>232.78</ele>
        <time>2017-04-22T14:12:24Z</time>
      </trkpt>
      <trkpt lat="43.07933" lon="2.62474">
        <ele>232.3</ele>
        <time>2017-04-22T14:12:28Z</time>
      </trkpt>
      <trkpt lat="43.07926" lon="2.62466">
        <ele>232.3</ele>
        <time>2017-04-22T14:12:37Z</time>
      </trkpt>
      <trkpt lat="43.07924" lon="2.62465">
        <ele>232.3</ele>
        <time>2017-04-22T14:12:39Z</time>
      </trkpt>
      <trkpt lat="43.07914" lon="2.62451">
        <ele>231.81</ele>
        <time>2017-04-22T14:12:53Z</time>
      </trkpt>
      <trkpt lat="43.07905" lon="2.62435">
        <ele>231.81</ele>
        <time>2017-04-22T14:13:05Z</time>
      </trkpt>
      <trkpt lat="43.07894" lon="2.62418">
        <ele>231.33</ele>
        <time>2017-04-22T14:13:20Z</time>
      </trkpt>
      <trkpt lat="43.07892" lon="2.62417">
        <ele>230.85</ele>
        <time>2017-04-22T14:13:22Z</time>
      </trkpt>
      <trkpt lat="43.07888" lon="2.62407">
        <ele>230.85</ele>
        <time>2017-04-22T14:13:29Z</time>
      </trkpt>
      <trkpt lat="43.07887" lon="2.62404">
        <ele>230.37</ele>
        <time>2017-04-22T14:13:31Z</time>
      </trkpt>
      <trkpt lat="43.07887" lon="2.62401">
        <ele>230.37</ele>
        <time>2017-04-22T14:13:33Z</time>
      </trkpt>
      <trkpt lat="43.07887" lon="2.62396">
        <ele>230.37</ele>
        <time>2017-04-22T14:13:36Z</time>
      </trkpt>
      <trkpt lat="43.07888" lon="2.62375">
        <ele>229.89</ele>
        <time>2017-04-22T14:13:50Z</time>
      </trkpt>
      <trkpt lat="43.0789" lon="2.62352">
        <ele>229.89</ele>
        <time>2017-04-22T14:14:06Z</time>
      </trkpt>
      <trkpt lat="43.0789" lon="2.6235">
        <ele>229.41</ele>
        <time>2017-04-22T14:14:07Z</time>
      </trkpt>
      <trkpt lat="43.0789" lon="2.62343">
        <ele>229.41</ele>
        <time>2017-04-22T14:14:12Z</time>
      </trkpt>
      <trkpt lat="43.07882" lon="2.62326">
        <ele>227.97</ele>
        <time>2017-04-22T14:14:28Z</time>
      </trkpt>
      <trkpt lat="43.07872" lon="2.62315">
        <ele>227.01</ele>
        <time>2017-04-22T14:14:41Z</time>
      </trkpt>
      <trkpt lat="43.07864" lon="2.62308">
        <ele>227.01</ele>
        <time>2017-04-22T14:14:49Z</time>
      </trkpt>
      <trkpt lat="43.07859" lon="2.62303">
        <ele>226.53</ele>
        <time>2017-04-22T14:14:54Z</time>
      </trkpt>
      <trkpt lat="43.07851" lon="2.62289">
        <ele>226.05</ele>
        <time>2017-04-22T14:15:08Z</time>
      </trkpt>
      <trkpt lat="43.07851" lon="2.62288">
        <ele>226.05</ele>
        <time>2017-04-22T14:15:09Z</time>
      </trkpt>
      <trkpt lat="43.07846" lon="2.62264">
        <ele>225.09</ele>
        <time>2017-04-22T14:15:24Z</time>
      </trkpt>
      <trkpt lat="43.07844" lon="2.6225">
        <ele>224.12</ele>
        <time>2017-04-22T14:15:34Z</time>
      </trkpt>
      <trkpt lat="43.07845" lon="2.62241">
        <ele>223.64</ele>
        <time>2017-04-22T14:15:39Z</time>
      </trkpt>
      <trkpt lat="43.07841" lon="2.62219">
        <ele>223.16</ele>
        <time>2017-04-22T14:15:54Z</time>
      </trkpt>
      <trkpt lat="43.07836" lon="2.6221">
        <ele>222.68</ele>
        <time>2017-04-22T14:16:02Z</time>
      </trkpt>
      <trkpt lat="43.07834" lon="2.62207">
        <ele>222.68</ele>
        <time>2017-04-22T14:16:04Z</time>
      </trkpt>
      <trkpt lat="43.0783" lon="2.62204">
        <ele>222.2</ele>
        <time>2017-04-22T14:16:09Z</time>
      </trkpt>
      <trkpt lat="43.07816" lon="2.62194">
        <ele>221.72</ele>
        <time>2017-04-22T14:16:25Z</time>
      </trkpt>
      <trkpt lat="43.07814" lon="2.62193">
        <ele>221.72</ele>
        <time>2017-04-22T14:16:27Z</time>
      </trkpt>
      <trkpt lat="43.07798" lon="2.62188">
        <ele>221.24</ele>
        <time>2017-04-22T14:16:42Z</time>
      </trkpt>
      <trkpt lat="43.07785" lon="2.62176">
        <ele>220.28</ele>
        <time>2017-04-22T14:16:56Z</time>
      </trkpt>
      <trkpt lat="43.0778" lon="2.62169">
        <ele>220.28</ele>
        <time>2017-04-22T14:17:03Z</time>
      </trkpt>
      <trkpt lat="43.07768" lon="2.62157">
        <ele>219.8</ele>
        <time>2017-04-22T14:17:16Z</time>
      </trkpt>
      <trkpt lat="43.07756" lon="2.62142">
        <ele>218.36</ele>
        <time>2017-04-22T14:17:31Z</time>
      </trkpt>
      <trkpt lat="43.07745" lon="2.62131">
        <ele>217.4</ele>
        <time>2017-04-22T14:17:45Z</time>
      </trkpt>
      <trkpt lat="43.07733" lon="2.62122">
        <ele>216.43</ele>
        <time>2017-04-22T14:17:58Z</time>
      </trkpt>
      <trkpt lat="43.07731" lon="2.62122">
        <ele>216.91</ele>
        <time>2017-04-22T14:17:59Z</time>
      </trkpt>
      <trkpt lat="43.07725" lon="2.62116">
        <ele>216.43</ele>
        <time>2017-04-22T14:18:06Z</time>
      </trkpt>
      <trkpt lat="43.07714" lon="2.62102">
        <ele>215.47</ele>
        <time>2017-04-22T14:18:20Z</time>
      </trkpt>
      <trkpt lat="43.07705" lon="2.62078">
        <ele>214.51</ele>
        <time>2017-04-22T14:18:36Z</time>
      </trkpt>
      <trkpt lat="43.07703" lon="2.62073">
        <ele>214.03</ele>
        <time>2017-04-22T14:18:40Z</time>
      </trkpt>
      <trkpt lat="43.077" lon="2.62066">
        <ele>213.55</ele>
        <time>2017-04-22T14:18:46Z</time>
      </trkpt>
      <trkpt lat="43.07698" lon="2.62062">
        <ele>213.55</ele>
        <time>2017-04-22T14:18:49Z</time>
      </trkpt>
      <trkpt lat="43.07696" lon="2.62056">
        <ele>213.07</ele>
        <time>2017-04-22T14:18:54Z</time>
      </trkpt>
      <trkpt lat="43.07686" lon="2.62043">
        <ele>212.59</ele>
        <time>2017-04-22T14:19:06Z</time>
      </trkpt>
      <trkpt lat="43.0768" lon="2.62035">
        <ele>212.11</ele>
        <time>2017-04-22T14:19:13Z</time>
      </trkpt>
      <trkpt lat="43.07671" lon="2.62023">
        <ele>211.63</ele>
        <time>2017-04-22T14:19:26Z</time>
      </trkpt>
      <trkpt lat="43.07666" lon="2.62016">
        <ele>211.15</ele>
        <time>2017-04-22T14:19:32Z</time>
      </trkpt>
      <trkpt lat="43.07658" lon="2.62002">
        <ele>210.19</ele>
        <time>2017-04-22T14:19:45Z</time>
      </trkpt>
      <trkpt lat="43.07651" lon="2.61984">
        <ele>209.22</ele>
        <time>2017-04-22T14:19:59Z</time>
      </trkpt>
      <trkpt lat="43.07642" lon="2.61963">
        <ele>208.26</ele>
        <time>2017-04-22T14:20:15Z</time>
      </trkpt>
      <trkpt lat="43.07635" lon="2.61955">
        <ele>207.3</ele>
        <time>2017-04-22T14:20:24Z</time>
      </trkpt>
      <trkpt lat="43.07633" lon="2.61953">
        <ele>207.78</ele>
        <time>2017-04-22T14:20:26Z</time>
      </trkpt>
      <trkpt lat="43.07629" lon="2.61949">
        <ele>207.3</ele>
        <time>2017-04-22T14:20:31Z</time>
      </trkpt>
      <trkpt lat="43.07615" lon="2.61932">
        <ele>205.86</ele>
        <time>2017-04-22T14:20:47Z</time>
      </trkpt>
      <trkpt lat="43.07612" lon="2.61926">
        <ele>205.38</ele>
        <time>2017-04-22T14:20:52Z</time>
      </trkpt>
      <trkpt lat="43.07606" lon="2.61905">
        <ele>204.42</ele>
        <time>2017-04-22T14:21:07Z</time>
      </trkpt>
      <trkpt lat="43.07604" lon="2.619">
        <ele>204.42</ele>
        <time>2017-04-22T14:21:11Z</time>
      </trkpt>
      <trkpt lat="43.07599" lon="2.61889">
        <ele>203.94</ele>
        <time>2017-04-22T14:21:22Z</time>
      </trkpt>
      <trkpt lat="43.07586" lon="2.61878">
        <ele>202.98</ele>
        <time>2017-04-22T14:21:38Z</time>
      </trkpt>
      <trkpt lat="43.07573" lon="2.61863">
        <ele>202.98</ele>
        <time>2017-04-22T14:21:53Z</time>
      </trkpt>
      <trkpt lat="43.07569" lon="2.61846">
        <ele>203.46</ele>
        <time>2017-04-22T14:22:04Z</time>
      </trkpt>
      <trkpt lat="43.07565" lon="2.61837">
        <ele>203.46</ele>
        <time>2017-04-22T14:22:11Z</time>
      </trkpt>
      <trkpt lat="43.07565" lon="2.61834">
        <ele>203.46</ele>
        <time>2017-04-22T14:22:13Z</time>
      </trkpt>
      <trkpt lat="43.0756" lon="2.6182">
        <ele>204.42</ele>
        <time>2017-04-22T14:22:24Z</time>
      </trkpt>
      <trkpt lat="43.07553" lon="2.61806">
        <ele>204.42</ele>
        <time>2017-04-22T14:22:36Z</time>
      </trkpt>
      <trkpt lat="43.07545" lon="2.61788">
        <ele>203.46</ele>
        <time>2017-04-22T14:22:52Z</time>
      </trkpt>
      <trkpt lat="43.07544" lon="2.61787">
        <ele>203.46</ele>
        <time>2017-04-22T14:22:53Z</time>
      </trkpt>
      <trkpt lat="43.07539" lon="2.61776">
        <ele>202.98</ele>
        <time>2017-04-22T14:23:02Z</time>
      </trkpt>
      <trkpt lat="43.07529" lon="2.61757">
        <ele>202.01</ele>
        <time>2017-04-22T14:23:18Z</time>
      </trkpt>
      <trkpt lat="43.0752" lon="2.6174">
        <ele>200.57</ele>
        <time>2017-04-22T14:23:32Z</time>
      </trkpt>
      <trkpt lat="43.07514" lon="2.61716">
        <ele>200.09</ele>
        <time>2017-04-22T14:23:48Z</time>
      </trkpt>
      <trkpt lat="43.07508" lon="2.61698">
        <ele>199.13</ele>
        <time>2017-04-22T14:24:02Z</time>
      </trkpt>
      <trkpt lat="43.07505" lon="2.61681">
        <ele>198.65</ele>
        <time>2017-04-22T14:24:14Z</time>
      </trkpt>
      <trkpt lat="43.07504" lon="2.61676">
        <ele>198.65</ele>
        <time>2017-04-22T14:24:17Z</time>
      </trkpt>
      <trkpt lat="43.07503" lon="2.61671">
        <ele>198.17</ele>
        <time>2017-04-22T14:24:21Z</time>
      </trkpt>
      <trkpt lat="43.07501" lon="2.61657">
        <ele>198.17</ele>
        <time>2017-04-22T14:24:30Z</time>
      </trkpt>
      <trkpt lat="43.075" lon="2.61654">
        <ele>198.17</ele>
        <time>2017-04-22T14:24:32Z</time>
      </trkpt>
      <trkpt lat="43.07498" lon="2.61634">
        <ele>196.73</ele>
        <time>2017-04-22T14:24:45Z</time>
      </trkpt>
      <trkpt lat="43.07497" lon="2.6161">
        <ele>195.28</ele>
        <time>2017-04-22T14:25:01Z</time>
      </trkpt>
      <trkpt lat="43.07498" lon="2.61587">
        <ele>194.32</ele>
        <time>2017-04-22T14:25:17Z</time>
      </trkpt>
      <trkpt lat="43.07504" lon="2.61564">
        <ele>193.84</ele>
        <time>2017-04-22T14:25:32Z</time>
      </trkpt>
      <trkpt lat="43.07506" lon="2.61544">
        <ele>193.36</ele>
        <time>2017-04-22T14:25:46Z</time>
      </trkpt>
      <trkpt lat="43.07506" lon="2.61543">
        <ele>193.84</ele>
        <time>2017-04-22T14:25:47Z</time>
      </trkpt>
      <trkpt lat="43.07505" lon="2.61525">
        <ele>192.4</ele>
        <time>2017-04-22T14:25:59Z</time>
      </trkpt>
      <trkpt lat="43.07504" lon="2.61502">
        <ele>190.96</ele>
        <time>2017-04-22T14:26:14Z</time>
      </trkpt>
      <trkpt lat="43.07506" lon="2.61475">
        <ele>189.52</ele>
        <time>2017-04-22T14:26:32Z</time>
      </trkpt>
      <trkpt lat="43.0751" lon="2.61454">
        <ele>189.04</ele>
        <time>2017-04-22T14:26:46Z</time>
      </trkpt>
      <trkpt lat="43.07513" lon="2.61431">
        <ele>187.59</ele>
        <time>2017-04-22T14:27:01Z</time>
      </trkpt>
      <trkpt lat="43.07517" lon="2.61409">
        <ele>185.67</ele>
        <time>2017-04-22T14:27:16Z</time>
      </trkpt>
      <trkpt lat="43.07518" lon="2.61401">
        <ele>185.19</ele>
        <time>2017-04-22T14:27:22Z</time>
      </trkpt>
      <trkpt lat="43.07519" lon="2.61382">
        <ele>183.75</ele>
        <time>2017-04-22T14:27:34Z</time>
      </trkpt>
      <trkpt lat="43.0752" lon="2.61365">
        <ele>183.27</ele>
        <time>2017-04-22T14:27:47Z</time>
      </trkpt>
      <trkpt lat="43.07518" lon="2.61347">
        <ele>181.83</ele>
        <time>2017-04-22T14:28:01Z</time>
      </trkpt>
      <trkpt lat="43.07513" lon="2.6133">
        <ele>179.9</ele>
        <time>2017-04-22T14:28:15Z</time>
      </trkpt>
      <trkpt lat="43.07511" lon="2.6132">
        <ele>178.94</ele>
        <time>2017-04-22T14:28:24Z</time>
      </trkpt>
      <trkpt lat="43.07512" lon="2.61315">
        <ele>178.46</ele>
        <time>2017-04-22T14:28:27Z</time>
      </trkpt>
      <trkpt lat="43.07525" lon="2.61304">
        <ele>177.02</ele>
        <time>2017-04-22T14:28:43Z</time>
      </trkpt>
      <trkpt lat="43.07539" lon="2.61309">
        <ele>175.58</ele>
        <time>2017-04-22T14:29:00Z</time>
      </trkpt>
      <trkpt lat="43.07541" lon="2.61327">
        <ele>175.58</ele>
        <time>2017-04-22T14:29:11Z</time>
      </trkpt>
      <trkpt lat="43.07539" lon="2.61347">
        <ele>175.1</ele>
        <time>2017-04-22T14:29:27Z</time>
      </trkpt>
      <trkpt lat="43.07542" lon="2.61365">
        <ele>175.1</ele>
        <time>2017-04-22T14:29:41Z</time>
      </trkpt>
      <trkpt lat="43.07544" lon="2.61385">
        <ele>175.58</ele>
        <time>2017-04-22T14:29:55Z</time>
      </trkpt>
      <trkpt lat="43.07543" lon="2.61396">
        <ele>175.58</ele>
        <time>2017-04-22T14:30:05Z</time>
      </trkpt>
      <trkpt lat="43.07549" lon="2.61416">
        <ele>173.66</ele>
        <time>2017-04-22T14:30:20Z</time>
      </trkpt>
      <trkpt lat="43.07554" lon="2.61427">
        <ele>173.17</ele>
        <time>2017-04-22T14:30:30Z</time>
      </trkpt>
      <trkpt lat="43.07558" lon="2.61433">
        <ele>173.17</ele>
        <time>2017-04-22T14:30:35Z</time>
      </trkpt>
      <trkpt lat="43.07559" lon="2.61437">
        <ele>173.17</ele>
        <time>2017-04-22T14:30:38Z</time>
      </trkpt>
      <trkpt lat="43.07563" lon="2.61453">
        <ele>174.14</ele>
        <time>2017-04-22T14:30:50Z</time>
      </trkpt>
      <trkpt lat="43.0757" lon="2.61473">
        <ele>174.14</ele>
        <time>2017-04-22T14:31:04Z</time>
      </trkpt>
      <trkpt lat="43.07574" lon="2.6149">
        <ele>174.62</ele>
        <time>2017-04-22T14:31:15Z</time>
      </trkpt>
      <trkpt lat="43.07576" lon="2.61496">
        <ele>174.62</ele>
        <time>2017-04-22T14:31:20Z</time>
      </trkpt>
      <trkpt lat="43.07577" lon="2.615">
        <ele>174.62</ele>
        <time>2017-04-22T14:31:23Z</time>
      </trkpt>
      <trkpt lat="43.07583" lon="2.61523">
        <ele>174.62</ele>
        <time>2017-04-22T14:31:39Z</time>
      </trkpt>
      <trkpt lat="43.07584" lon="2.61532">
        <ele>175.1</ele>
        <time>2017-04-22T14:31:45Z</time>
      </trkpt>
      <trkpt lat="43.07589" lon="2.61537">
        <ele>175.1</ele>
        <time>2017-04-22T14:31:52Z</time>
      </trkpt>
      <trkpt lat="43.07593" lon="2.61535">
        <ele>175.1</ele>
        <time>2017-04-22T14:31:56Z</time>
      </trkpt>
      <trkpt lat="43.07595" lon="2.61532">
        <ele>175.1</ele>
        <time>2017-04-22T14:32:00Z</time>
      </trkpt>
      <trkpt lat="43.07597" lon="2.61526">
        <ele>175.58</ele>
        <time>2017-04-22T14:32:04Z</time>
      </trkpt>
      <trkpt lat="43.07599" lon="2.61517">
        <ele>176.06</ele>
        <time>2017-04-22T14:32:11Z</time>
      </trkpt>
      <trkpt lat="43.07601" lon="2.61495">
        <ele>177.5</ele>
        <time>2017-04-22T14:32:27Z</time>
      </trkpt>
      <trkpt lat="43.07597" lon="2.61479">
        <ele>178.46</ele>
        <time>2017-04-22T14:32:40Z</time>
      </trkpt>
      <trkpt lat="43.07595" lon="2.61469">
        <ele>178.46</ele>
        <time>2017-04-22T14:32:47Z</time>
      </trkpt>
      <trkpt lat="43.07593" lon="2.61452">
        <ele>179.42</ele>
        <time>2017-04-22T14:33:00Z</time>
      </trkpt>
      <trkpt lat="43.07592" lon="2.61436">
        <ele>179.9</ele>
        <time>2017-04-22T14:33:11Z</time>
      </trkpt>
      <trkpt lat="43.07592" lon="2.61433">
        <ele>179.9</ele>
        <time>2017-04-22T14:33:13Z</time>
      </trkpt>
      <trkpt lat="43.07591" lon="2.6143">
        <ele>179.9</ele>
        <time>2017-04-22T14:33:15Z</time>
      </trkpt>
      <trkpt lat="43.0759" lon="2.61414">
        <ele>180.87</ele>
        <time>2017-04-22T14:33:27Z</time>
      </trkpt>
      <trkpt lat="43.07592" lon="2.61394">
        <ele>181.83</ele>
        <time>2017-04-22T14:33:41Z</time>
      </trkpt>
      <trkpt lat="43.07592" lon="2.61388">
        <ele>182.31</ele>
        <time>2017-04-22T14:33:46Z</time>
      </trkpt>
      <trkpt lat="43.07597" lon="2.61368">
        <ele>182.79</ele>
        <time>2017-04-22T14:34:01Z</time>
      </trkpt>
      <trkpt lat="43.07603" lon="2.61353">
        <ele>183.27</ele>
        <time>2017-04-22T14:34:13Z</time>
      </trkpt>
      <trkpt lat="43.07612" lon="2.6134">
        <ele>184.23</ele>
        <time>2017-04-22T14:34:25Z</time>
      </trkpt>
      <trkpt lat="43.07617" lon="2.61335">
        <ele>184.71</ele>
        <time>2017-04-22T14:34:31Z</time>
      </trkpt>
      <trkpt lat="43.0763" lon="2.6133">
        <ele>186.15</ele>
        <time>2017-04-22T14:34:44Z</time>
      </trkpt>
      <trkpt lat="43.07641" lon="2.61331">
        <ele>187.59</ele>
        <time>2017-04-22T14:34:56Z</time>
      </trkpt>
      <trkpt lat="43.07654" lon="2.6133">
        <ele>188.08</ele>
        <time>2017-04-22T14:35:09Z</time>
      </trkpt>
      <trkpt lat="43.07655" lon="2.61331">
        <ele>188.08</ele>
        <time>2017-04-22T14:35:11Z</time>
      </trkpt>
      <trkpt lat="43.07669" lon="2.61337">
        <ele>188.56</ele>
        <time>2017-04-22T14:35:25Z</time>
      </trkpt>
      <trkpt lat="43.07671" lon="2.61338">
        <ele>188.56</ele>
        <time>2017-04-22T14:35:27Z</time>
      </trkpt>
      <trkpt lat="43.07679" lon="2.61346">
        <ele>189.04</ele>
        <time>2017-04-22T14:35:39Z</time>
      </trkpt>
      <trkpt lat="43.07685" lon="2.61352">
        <ele>190</ele>
        <time>2017-04-22T14:35:47Z</time>
      </trkpt>
      <trkpt lat="43.07688" lon="2.61356">
        <ele>190.48</ele>
        <time>2017-04-22T14:35:51Z</time>
      </trkpt>
      <trkpt lat="43.07693" lon="2.61362">
        <ele>190.96</ele>
        <time>2017-04-22T14:35:57Z</time>
      </trkpt>
      <trkpt lat="43.07705" lon="2.61377">
        <ele>190.48</ele>
        <time>2017-04-22T14:36:13Z</time>
      </trkpt>
      <trkpt lat="43.07717" lon="2.61392">
        <ele>190.96</ele>
        <time>2017-04-22T14:36:27Z</time>
      </trkpt>
      <trkpt lat="43.07723" lon="2.614">
        <ele>190.96</ele>
        <time>2017-04-22T14:36:35Z</time>
      </trkpt>
      <trkpt lat="43.07733" lon="2.61415">
        <ele>190.96</ele>
        <time>2017-04-22T14:36:49Z</time>
      </trkpt>
      <trkpt lat="43.07742" lon="2.61428">
        <ele>191.44</ele>
        <time>2017-04-22T14:37:02Z</time>
      </trkpt>
      <trkpt lat="43.07756" lon="2.61443">
        <ele>191.92</ele>
        <time>2017-04-22T14:37:20Z</time>
      </trkpt>
      <trkpt lat="43.07774" lon="2.61459">
        <ele>192.4</ele>
        <time>2017-04-22T14:37:41Z</time>
      </trkpt>
      <trkpt lat="43.07787" lon="2.6147">
        <ele>191.92</ele>
        <time>2017-04-22T14:37:55Z</time>
      </trkpt>
      <trkpt lat="43.07797" lon="2.61483">
        <ele>193.36</ele>
        <time>2017-04-22T14:38:09Z</time>
      </trkpt>
      <trkpt lat="43.07808" lon="2.61499">
        <ele>194.32</ele>
        <time>2017-04-22T14:38:23Z</time>
      </trkpt>
      <trkpt lat="43.07819" lon="2.61514">
        <ele>195.28</ele>
        <time>2017-04-22T14:38:37Z</time>
      </trkpt>
      <trkpt lat="43.07822" lon="2.61518">
        <ele>195.77</ele>
        <time>2017-04-22T14:38:42Z</time>
      </trkpt>
      <trkpt lat="43.07827" lon="2.61524">
        <ele>195.77</ele>
        <time>2017-04-22T14:38:49Z</time>
      </trkpt>
      <trkpt lat="43.07842" lon="2.61532">
        <ele>196.73</ele>
        <time>2017-04-22T14:39:04Z</time>
      </trkpt>
      <trkpt lat="43.07859" lon="2.61542">
        <ele>198.17</ele>
        <time>2017-04-22T14:39:21Z</time>
      </trkpt>
      <trkpt lat="43.07872" lon="2.61553">
        <ele>198.65</ele>
        <time>2017-04-22T14:39:35Z</time>
      </trkpt>
      <trkpt lat="43.07882" lon="2.61566">
        <ele>199.13</ele>
        <time>2017-04-22T14:39:49Z</time>
      </trkpt>
      <trkpt lat="43.07895" lon="2.61578">
        <ele>200.09</ele>
        <time>2017-04-22T14:40:04Z</time>
      </trkpt>
      <trkpt lat="43.07911" lon="2.61589">
        <ele>199.61</ele>
        <time>2017-04-22T14:40:19Z</time>
      </trkpt>
      <trkpt lat="43.07924" lon="2.61603">
        <ele>200.09</ele>
        <time>2017-04-22T14:40:33Z</time>
      </trkpt>
      <trkpt lat="43.07933" lon="2.6162">
        <ele>200.09</ele>
        <time>2017-04-22T14:40:47Z</time>
      </trkpt>
      <trkpt lat="43.07943" lon="2.61634">
        <ele>200.09</ele>
        <time>2017-04-22T14:41:00Z</time>
      </trkpt>
      <trkpt lat="43.07956" lon="2.6165">
        <ele>201.05</ele>
        <time>2017-04-22T14:41:15Z</time>
      </trkpt>
      <trkpt lat="43.07973" lon="2.6166">
        <ele>200.57</ele>
        <time>2017-04-22T14:41:31Z</time>
      </trkpt>
      <trkpt lat="43.07989" lon="2.61671">
        <ele>200.57</ele>
        <time>2017-04-22T14:41:46Z</time>
      </trkpt>
      <trkpt lat="43.08004" lon="2.61683">
        <ele>200.57</ele>
        <time>2017-04-22T14:42:02Z</time>
      </trkpt>
      <trkpt lat="43.08008" lon="2.61686">
        <ele>200.57</ele>
        <time>2017-04-22T14:42:05Z</time>
      </trkpt>
      <trkpt lat="43.0802" lon="2.61696">
        <ele>201.53</ele>
        <time>2017-04-22T14:42:17Z</time>
      </trkpt>
      <trkpt lat="43.08034" lon="2.61708">
        <ele>201.53</ele>
        <time>2017-04-22T14:42:33Z</time>
      </trkpt>
      <trkpt lat="43.08048" lon="2.61717">
        <ele>202.01</ele>
        <time>2017-04-22T14:42:46Z</time>
      </trkpt>
      <trkpt lat="43.0806" lon="2.61733">
        <ele>202.49</ele>
        <time>2017-04-22T14:43:01Z</time>
      </trkpt>
      <trkpt lat="43.08063" lon="2.61736">
        <ele>202.01</ele>
        <time>2017-04-22T14:43:04Z</time>
      </trkpt>
      <trkpt lat="43.08069" lon="2.6174">
        <ele>202.01</ele>
        <time>2017-04-22T14:43:10Z</time>
      </trkpt>
      <trkpt lat="43.08082" lon="2.61744">
        <ele>202.01</ele>
        <time>2017-04-22T14:43:24Z</time>
      </trkpt>
      <trkpt lat="43.08098" lon="2.61747">
        <ele>202.01</ele>
        <time>2017-04-22T14:43:37Z</time>
      </trkpt>
      <trkpt lat="43.08105" lon="2.61754">
        <ele>202.49</ele>
        <time>2017-04-22T14:43:44Z</time>
      </trkpt>
      <trkpt lat="43.08116" lon="2.61771">
        <ele>203.46</ele>
        <time>2017-04-22T14:43:58Z</time>
      </trkpt>
      <trkpt lat="43.08123" lon="2.61778">
        <ele>203.46</ele>
        <time>2017-04-22T14:44:05Z</time>
      </trkpt>
      <trkpt lat="43.08135" lon="2.61793">
        <ele>203.94</ele>
        <time>2017-04-22T14:44:20Z</time>
      </trkpt>
      <trkpt lat="43.08148" lon="2.61806">
        <ele>204.42</ele>
        <time>2017-04-22T14:44:34Z</time>
      </trkpt>
      <trkpt lat="43.08155" lon="2.61812">
        <ele>204.9</ele>
        <time>2017-04-22T14:44:42Z</time>
      </trkpt>
      <trkpt lat="43.08165" lon="2.61825">
        <ele>205.86</ele>
        <time>2017-04-22T14:44:56Z</time>
      </trkpt>
      <trkpt lat="43.0818" lon="2.61838">
        <ele>206.82</ele>
        <time>2017-04-22T14:45:12Z</time>
      </trkpt>
      <trkpt lat="43.08194" lon="2.61849">
        <ele>207.3</ele>
        <time>2017-04-22T14:45:26Z</time>
      </trkpt>
      <trkpt lat="43.08206" lon="2.61858">
        <ele>207.3</ele>
        <time>2017-04-22T14:45:38Z</time>
      </trkpt>
      <trkpt lat="43.08218" lon="2.61864">
        <ele>207.3</ele>
        <time>2017-04-22T14:45:49Z</time>
      </trkpt>
      <trkpt lat="43.08236" lon="2.61875">
        <ele>207.78</ele>
        <time>2017-04-22T14:46:06Z</time>
      </trkpt>
      <trkpt lat="43.08245" lon="2.61884">
        <ele>208.26</ele>
        <time>2017-04-22T14:46:16Z</time>
      </trkpt>
      <trkpt lat="43.08257" lon="2.61898">
        <ele>208.74</ele>
        <time>2017-04-22T14:46:31Z</time>
      </trkpt>
      <trkpt lat="43.08262" lon="2.61902">
        <ele>208.74</ele>
        <time>2017-04-22T14:46:37Z</time>
      </trkpt>
      <trkpt lat="43.08278" lon="2.6191">
        <ele>209.22</ele>
        <time>2017-04-22T14:46:51Z</time>
      </trkpt>
      <trkpt lat="43.08294" lon="2.61913">
        <ele>210.19</ele>
        <time>2017-04-22T14:47:07Z</time>
      </trkpt>
      <trkpt lat="43.0831" lon="2.6192">
        <ele>210.67</ele>
        <time>2017-04-22T14:47:21Z</time>
      </trkpt>
      <trkpt lat="43.08312" lon="2.61922">
        <ele>210.19</ele>
        <time>2017-04-22T14:47:23Z</time>
      </trkpt>
      <trkpt lat="43.08326" lon="2.61933">
        <ele>209.7</ele>
        <time>2017-04-22T14:47:38Z</time>
      </trkpt>
      <trkpt lat="43.08337" lon="2.61944">
        <ele>210.19</ele>
        <time>2017-04-22T14:47:51Z</time>
      </trkpt>
      <trkpt lat="43.0835" lon="2.61956">
        <ele>211.15</ele>
        <time>2017-04-22T14:48:06Z</time>
      </trkpt>
      <trkpt lat="43.08363" lon="2.61968">
        <ele>210.67</ele>
        <time>2017-04-22T14:48:20Z</time>
      </trkpt>
      <trkpt lat="43.08375" lon="2.61979">
        <ele>209.22</ele>
        <time>2017-04-22T14:48:34Z</time>
      </trkpt>
      <trkpt lat="43.08379" lon="2.61984">
        <ele>208.74</ele>
        <time>2017-04-22T14:48:40Z</time>
      </trkpt>
      <trkpt lat="43.08389" lon="2.62001">
        <ele>207.3</ele>
        <time>2017-04-22T14:48:57Z</time>
      </trkpt>
      <trkpt lat="43.08398" lon="2.62014">
        <ele>206.34</ele>
        <time>2017-04-22T14:49:10Z</time>
      </trkpt>
      <trkpt lat="43.08401" lon="2.62016">
        <ele>206.34</ele>
        <time>2017-04-22T14:49:13Z</time>
      </trkpt>
      <trkpt lat="43.08409" lon="2.6203">
        <ele>205.38</ele>
        <time>2017-04-22T14:49:25Z</time>
      </trkpt>
      <trkpt lat="43.08415" lon="2.62037">
        <ele>205.86</ele>
        <time>2017-04-22T14:49:32Z</time>
      </trkpt>
      <trkpt lat="43.08423" lon="2.62044">
        <ele>206.34</ele>
        <time>2017-04-22T14:49:42Z</time>
      </trkpt>
      <trkpt lat="43.08427" lon="2.62049">
        <ele>205.86</ele>
        <time>2017-04-22T14:49:47Z</time>
      </trkpt>
      <trkpt lat="43.08434" lon="2.62056">
        <ele>206.82</ele>
        <time>2017-04-22T14:49:55Z</time>
      </trkpt>
      <trkpt lat="43.08447" lon="2.62071">
        <ele>208.26</ele>
        <time>2017-04-22T14:50:10Z</time>
      </trkpt>
      <trkpt lat="43.08458" lon="2.62085">
        <ele>208.26</ele>
        <time>2017-04-22T14:50:25Z</time>
      </trkpt>
      <trkpt lat="43.08471" lon="2.62098">
        <ele>209.22</ele>
        <time>2017-04-22T14:50:40Z</time>
      </trkpt>
      <trkpt lat="43.08482" lon="2.62112">
        <ele>210.67</ele>
        <time>2017-04-22T14:50:54Z</time>
      </trkpt>
      <trkpt lat="43.08495" lon="2.62123">
        <ele>211.63</ele>
        <time>2017-04-22T14:51:08Z</time>
      </trkpt>
      <trkpt lat="43.08512" lon="2.62132">
        <ele>211.63</ele>
        <time>2017-04-22T14:51:23Z</time>
      </trkpt>
      <trkpt lat="43.08514" lon="2.62133">
        <ele>211.63</ele>
        <time>2017-04-22T14:51:26Z</time>
      </trkpt>
      <trkpt lat="43.08524" lon="2.62131">
        <ele>211.63</ele>
        <time>2017-04-22T14:51:35Z</time>
      </trkpt>
      <trkpt lat="43.08525" lon="2.62128">
        <ele>211.63</ele>
        <time>2017-04-22T14:51:37Z</time>
      </trkpt>
      <trkpt lat="43.08535" lon="2.62115">
        <ele>212.11</ele>
        <time>2017-04-22T14:51:49Z</time>
      </trkpt>
      <trkpt lat="43.08549" lon="2.6211">
        <ele>212.11</ele>
        <time>2017-04-22T14:52:03Z</time>
      </trkpt>
      <trkpt lat="43.0855" lon="2.6211">
        <ele>212.59</ele>
        <time>2017-04-22T14:52:04Z</time>
      </trkpt>
      <trkpt lat="43.08563" lon="2.6212">
        <ele>212.11</ele>
        <time>2017-04-22T14:52:18Z</time>
      </trkpt>
      <trkpt lat="43.0857" lon="2.62125">
        <ele>212.11</ele>
        <time>2017-04-22T14:52:26Z</time>
      </trkpt>
      <trkpt lat="43.08573" lon="2.62129">
        <ele>212.11</ele>
        <time>2017-04-22T14:52:30Z</time>
      </trkpt>
      <trkpt lat="43.08579" lon="2.6214">
        <ele>212.11</ele>
        <time>2017-04-22T14:52:39Z</time>
      </trkpt>
      <trkpt lat="43.08587" lon="2.62162">
        <ele>210.67</ele>
        <time>2017-04-22T14:52:57Z</time>
      </trkpt>
      <trkpt lat="43.08593" lon="2.62181">
        <ele>209.22</ele>
        <time>2017-04-22T14:53:12Z</time>
      </trkpt>
      <trkpt lat="43.08599" lon="2.62199">
        <ele>207.3</ele>
        <time>2017-04-22T14:53:27Z</time>
      </trkpt>
      <trkpt lat="43.086" lon="2.62203">
        <ele>207.3</ele>
        <time>2017-04-22T14:53:30Z</time>
      </trkpt>
      <trkpt lat="43.08607" lon="2.62223">
        <ele>206.34</ele>
        <time>2017-04-22T14:53:45Z</time>
      </trkpt>
      <trkpt lat="43.08615" lon="2.62238">
        <ele>204.9</ele>
        <time>2017-04-22T14:53:58Z</time>
      </trkpt>
      <trkpt lat="43.08623" lon="2.62253">
        <ele>204.42</ele>
        <time>2017-04-22T14:54:11Z</time>
      </trkpt>
      <trkpt lat="43.0863" lon="2.62263">
        <ele>203.94</ele>
        <time>2017-04-22T14:54:21Z</time>
      </trkpt>
      <trkpt lat="43.08632" lon="2.62267">
        <ele>204.42</ele>
        <time>2017-04-22T14:54:24Z</time>
      </trkpt>
      <trkpt lat="43.08648" lon="2.62283">
        <ele>202.98</ele>
        <time>2017-04-22T14:54:41Z</time>
      </trkpt>
      <trkpt lat="43.08661" lon="2.62294">
        <ele>202.49</ele>
        <time>2017-04-22T14:54:56Z</time>
      </trkpt>
      <trkpt lat="43.08664" lon="2.62297">
        <ele>202.01</ele>
        <time>2017-04-22T14:54:59Z</time>
      </trkpt>
      <trkpt lat="43.08671" lon="2.62302">
        <ele>201.53</ele>
        <time>2017-04-22T14:55:06Z</time>
      </trkpt>
      <trkpt lat="43.08673" lon="2.62305">
        <ele>202.01</ele>
        <time>2017-04-22T14:55:09Z</time>
      </trkpt>
      <trkpt lat="43.08683" lon="2.62313">
        <ele>200.57</ele>
        <time>2017-04-22T14:55:20Z</time>
      </trkpt>
      <trkpt lat="43.08697" lon="2.62319">
        <ele>199.13</ele>
        <time>2017-04-22T14:55:35Z</time>
      </trkpt>
      <trkpt lat="43.08706" lon="2.62319">
        <ele>197.69</ele>
        <time>2017-04-22T14:55:45Z</time>
      </trkpt>
      <trkpt lat="43.08723" lon="2.62322">
        <ele>195.28</ele>
        <time>2017-04-22T14:56:01Z</time>
      </trkpt>
      <trkpt lat="43.08735" lon="2.62328">
        <ele>193.36</ele>
        <time>2017-04-22T14:56:16Z</time>
      </trkpt>
      <trkpt lat="43.08738" lon="2.62329">
        <ele>193.36</ele>
        <time>2017-04-22T14:56:27Z</time>
      </trkpt>
      <trkpt lat="43.08742" lon="2.62335">
        <ele>193.36</ele>
        <time>2017-04-22T14:56:31Z</time>
      </trkpt>
      <trkpt lat="43.08744" lon="2.62336">
        <ele>192.4</ele>
        <time>2017-04-22T14:56:33Z</time>
      </trkpt>
      <trkpt lat="43.08755" lon="2.62355">
        <ele>190.96</ele>
        <time>2017-04-22T14:56:49Z</time>
      </trkpt>
      <trkpt lat="43.08758" lon="2.62368">
        <ele>189.52</ele>
        <time>2017-04-22T14:56:59Z</time>
      </trkpt>
      <trkpt lat="43.08758" lon="2.62374">
        <ele>189.04</ele>
        <time>2017-04-22T14:57:03Z</time>
      </trkpt>
      <trkpt lat="43.08763" lon="2.62383">
        <ele>188.08</ele>
        <time>2017-04-22T14:57:17Z</time>
      </trkpt>
      <trkpt lat="43.08765" lon="2.62386">
        <ele>188.08</ele>
        <time>2017-04-22T14:57:21Z</time>
      </trkpt>
      <trkpt lat="43.08766" lon="2.62386">
        <ele>187.59</ele>
        <time>2017-04-22T14:57:23Z</time>
      </trkpt>
      <trkpt lat="43.08771" lon="2.62379">
        <ele>186.15</ele>
        <time>2017-04-22T14:57:30Z</time>
      </trkpt>
      <trkpt lat="43.08771" lon="2.62375">
        <ele>186.15</ele>
        <time>2017-04-22T14:57:33Z</time>
      </trkpt>
      <trkpt lat="43.08769" lon="2.62355">
        <ele>185.19</ele>
        <time>2017-04-22T14:57:47Z</time>
      </trkpt>
      <trkpt lat="43.0877" lon="2.6235">
        <ele>185.19</ele>
        <time>2017-04-22T14:57:51Z</time>
      </trkpt>
      <trkpt lat="43.08774" lon="2.62328">
        <ele>184.23</ele>
        <time>2017-04-22T14:58:06Z</time>
      </trkpt>
      <trkpt lat="43.08777" lon="2.62309">
        <ele>183.27</ele>
        <time>2017-04-22T14:58:19Z</time>
      </trkpt>
      <trkpt lat="43.08781" lon="2.62294">
        <ele>182.79</ele>
        <time>2017-04-22T14:58:34Z</time>
      </trkpt>
      <trkpt lat="43.08783" lon="2.62276">
        <ele>180.87</ele>
        <time>2017-04-22T14:58:48Z</time>
      </trkpt>
      <trkpt lat="43.08782" lon="2.62258">
        <ele>178.46</ele>
        <time>2017-04-22T14:59:03Z</time>
      </trkpt>
      <trkpt lat="43.08784" lon="2.62241">
        <ele>176.06</ele>
        <time>2017-04-22T14:59:17Z</time>
      </trkpt>
      <trkpt lat="43.08789" lon="2.62224">
        <ele>174.14</ele>
        <time>2017-04-22T14:59:30Z</time>
      </trkpt>
      <trkpt lat="43.08794" lon="2.62208">
        <ele>171.73</ele>
        <time>2017-04-22T14:59:44Z</time>
      </trkpt>
      <trkpt lat="43.08796" lon="2.62202">
        <ele>171.25</ele>
        <time>2017-04-22T14:59:49Z</time>
      </trkpt>
      <trkpt lat="43.08802" lon="2.6219">
        <ele>169.33</ele>
        <time>2017-04-22T15:00:04Z</time>
      </trkpt>
      <trkpt lat="43.08804" lon="2.62186">
        <ele>168.85</ele>
        <time>2017-04-22T15:00:07Z</time>
      </trkpt>
      <trkpt lat="43.08811" lon="2.62167">
        <ele>167.89</ele>
        <time>2017-04-22T15:00:23Z</time>
      </trkpt>
      <trkpt lat="43.08818" lon="2.6215">
        <ele>165</ele>
        <time>2017-04-22T15:00:38Z</time>
      </trkpt>
      <trkpt lat="43.08824" lon="2.6214">
        <ele>163.56</ele>
        <time>2017-04-22T15:00:53Z</time>
      </trkpt>
      <trkpt lat="43.08827" lon="2.62137">
        <ele>163.08</ele>
        <time>2017-04-22T15:00:58Z</time>
      </trkpt>
      <trkpt lat="43.08828" lon="2.62135">
        <ele>162.6</ele>
        <time>2017-04-22T15:01:00Z</time>
      </trkpt>
      <trkpt lat="43.0883" lon="2.62131">
        <ele>162.12</ele>
        <time>2017-04-22T15:01:04Z</time>
      </trkpt>
      <trkpt lat="43.08838" lon="2.62114">
        <ele>160.2</ele>
        <time>2017-04-22T15:01:19Z</time>
      </trkpt>
      <trkpt lat="43.08839" lon="2.62113">
        <ele>159.72</ele>
        <time>2017-04-22T15:01:20Z</time>
      </trkpt>
      <trkpt lat="43.08839" lon="2.62112">
        <ele>159.24</ele>
        <time>2017-04-22T15:01:22Z</time>
      </trkpt>
      <trkpt lat="43.08849" lon="2.62091">
        <ele>156.83</ele>
        <time>2017-04-22T15:01:40Z</time>
      </trkpt>
      <trkpt lat="43.08858" lon="2.62076">
        <ele>154.91</ele>
        <time>2017-04-22T15:01:55Z</time>
      </trkpt>
      <trkpt lat="43.08866" lon="2.6206">
        <ele>152.03</ele>
        <time>2017-04-22T15:02:10Z</time>
      </trkpt>
      <trkpt lat="43.08869" lon="2.62052">
        <ele>151.54</ele>
        <time>2017-04-22T15:02:17Z</time>
      </trkpt>
      <trkpt lat="43.08875" lon="2.6204">
        <ele>149.14</ele>
        <time>2017-04-22T15:02:27Z</time>
      </trkpt>
      <trkpt lat="43.08889" lon="2.62029">
        <ele>146.26</ele>
        <time>2017-04-22T15:02:45Z</time>
      </trkpt>
      <trkpt lat="43.08898" lon="2.62015">
        <ele>143.85</ele>
        <time>2017-04-22T15:03:00Z</time>
      </trkpt>
      <trkpt lat="43.08907" lon="2.62006">
        <ele>141.93</ele>
        <time>2017-04-22T15:03:13Z</time>
      </trkpt>
      <trkpt lat="43.0892" lon="2.62007">
        <ele>139.53</ele>
        <time>2017-04-22T15:03:32Z</time>
      </trkpt>
      <trkpt lat="43.08929" lon="2.62009">
        <ele>138.09</ele>
        <time>2017-04-22T15:03:45Z</time>
      </trkpt>
      <trkpt lat="43.08939" lon="2.62019">
        <ele>138.09</ele>
        <time>2017-04-22T15:04:01Z</time>
      </trkpt>
      <trkpt lat="43.08952" lon="2.62029">
        <ele>136.64</ele>
        <time>2017-04-22T15:04:18Z</time>
      </trkpt>
      <trkpt lat="43.08962" lon="2.62035">
        <ele>135.68</ele>
        <time>2017-04-22T15:04:36Z</time>
      </trkpt>
      <trkpt lat="43.08964" lon="2.62033">
        <ele>136.16</ele>
        <time>2017-04-22T15:05:05Z</time>
      </trkpt>
      <trkpt lat="43.08968" lon="2.62032">
        <ele>135.68</ele>
        <time>2017-04-22T15:05:35Z</time>
      </trkpt>
      <trkpt lat="43.08978" lon="2.62037">
        <ele>135.68</ele>
        <time>2017-04-22T15:05:43Z</time>
      </trkpt>
      <trkpt lat="43.08993" lon="2.62043">
        <ele>135.2</ele>
        <time>2017-04-22T15:05:59Z</time>
      </trkpt>
      <trkpt lat="43.09008" lon="2.62045">
        <ele>134.72</ele>
        <time>2017-04-22T15:06:14Z</time>
      </trkpt>
      <trkpt lat="43.09021" lon="2.62051">
        <ele>134.24</ele>
        <time>2017-04-22T15:06:28Z</time>
      </trkpt>
      <trkpt lat="43.09035" lon="2.62047">
        <ele>133.76</ele>
        <time>2017-04-22T15:06:43Z</time>
      </trkpt>
      <trkpt lat="43.0905" lon="2.62049">
        <ele>132.8</ele>
        <time>2017-04-22T15:06:58Z</time>
      </trkpt>
      <trkpt lat="43.0907" lon="2.62058">
        <ele>132.32</ele>
        <time>2017-04-22T15:07:14Z</time>
      </trkpt>
      <trkpt lat="43.09082" lon="2.62059">
        <ele>132.32</ele>
        <time>2017-04-22T15:07:29Z</time>
      </trkpt>
      <trkpt lat="43.09085" lon="2.62065">
        <ele>131.84</ele>
        <time>2017-04-22T15:07:45Z</time>
      </trkpt>
      <trkpt lat="43.09089" lon="2.62065">
        <ele>131.84</ele>
        <time>2017-04-22T15:08:03Z</time>
      </trkpt>
      <trkpt lat="43.09079" lon="2.62076">
        <ele>131.84</ele>
        <time>2017-04-22T15:09:12Z</time>
      </trkpt>
      <trkpt lat="43.09082" lon="2.62078">
        <ele>132.32</ele>
        <time>2017-04-22T15:09:41Z</time>
      </trkpt>
      <trkpt lat="43.09077" lon="2.62074">
        <ele>132.32</ele>
        <time>2017-04-22T15:10:05Z</time>
      </trkpt>
      <trkpt lat="43.09088" lon="2.62068">
        <ele>132.32</ele>
        <time>2017-04-22T15:10:45Z</time>
      </trkpt>
      <trkpt lat="43.09083" lon="2.6207">
        <ele>132.8</ele>
        <time>2017-04-22T15:11:18Z</time>
      </trkpt>
      <trkpt lat="43.09082" lon="2.62069">
        <ele>133.76</ele>
        <time>2017-04-22T15:14:13Z</time>
      </trkpt>
      <trkpt lat="43.09086" lon="2.6207">
        <ele>133.28</ele>
        <time>2017-04-22T15:14:29Z</time>
      </trkpt>
    </trkseg>
  </trk>
</gpx>